GFSSE_sfc_temp_000.txt.gz
Temp
70 72 74 75 75 75 74 74 74 74 75 75 75 76 76 75 75 75 75 75 76 77 77 76 76 76 76 75 75 74 74 74 74 76 76 77 78 78 77 76 75 75 75
71 73 73 74 75 75 75 74 74 75 75 75 75 75 75 75 75 75 75 75 75 76 76 76 75 75 74 74 73 73 73 73 73 73 75 77 78 78 76 75 74 74 75
72 74 74 73 75 75 75 75 75 75 75 75 75 75 74 74 74 74 74 74 74 75 76 76 75 74 73 72 72 72 72 72 72 72 74 69 69 76 76 75 74 75 75
73 73 74 73 74 74 74 74 75 75 75 75 74 74 74 74 74 73 73 73 74 74 75 75 74 73 72 71 71 71 71 71 71 72 69 69 72 73 74 74 75 75 75
72 73 73 72 73 74 74 74 74 74 74 74 74 74 74 74 73 73 72 73 73 74 74 74 73 71 70 69 69 70 70 70 70 70 65 66 67 72 73 74 74 74 74
72 71 71 71 72 73 73 73 73 72 72 73 73 73 73 73 73 72 72 72 72 72 72 72 71 70 69 69 69 69 69 69 69 63 64 68 67 73 75 74 73 73 73
73 73 72 70 72 72 73 73 72 72 71 72 72 72 72 72 72 71 70 70 70 70 70 70 70 69 69 69 69 69 68 68 65 62 63 65 66 73 74 73 72 73 73
72 73 73 72 71 71 72 71 70 70 71 71 71 71 72 71 71 70 70 70 70 69 69 69 69 69 69 69 69 68 67 67 65 61 64 64 67 72 74 74 72 72 72
70 70 70 70 70 69 69 69 69 70 70 70 70 70 70 70 70 70 70 70 70 69 69 69 69 69 69 68 68 67 66 67 62 62 67 64 68 73 75 74 73 72 72
67 68 66 67 67 67 67 68 68 69 69 69 69 69 69 69 70 70 70 70 70 70 70 70 69 69 68 67 67 66 66 66 61 61 62 63 70 72 74 74 74 72 72
68 65 65 65 65 65 65 68 69 69 69 69 69 69 67 65 65 67 67 68 69 69 69 69 68 68 67 67 66 66 67 60 60 61 61 66 70 73 73 72 71 71 71
66 66 67 66 65 64 72 66 65 67 66 66 66 65 64 64 64 67 67 68 68 68 68 68 67 67 66 60 60 63 59 59 59 61 61 65 69 72 73 73 72 71 71
70 71 68 68 66 65 68 64 63 64 64 64 65 64 64 65 63 63 62 62 62 65 62 63 62 61 60 59 59 59 60 60 57 59 62 65 68 71 73 73 72 71 71
71 70 70 68 67 65 65 63 64 64 63 63 64 65 63 62 61 61 61 61 60 60 60 60 60 60 59 60 60 60 60 59 58 59 59 65 67 70 72 73 73 72 71
71 71 69 67 67 67 67 66 65 65 66 65 65 66 63 63 62 61 61 61 60 60 59 59 59 60 60 61 60 60 60 60 60 59 57 63 65 67 71 73 73 73 72
73 68 67 67 67 70 68 66 65 64 63 65 64 65 66 63 61 61 60 61 60 59 60 59 59 59 59 59 60 60 60 60 60 60 59 57 63 65 68 71 72 73 73
73 70 68 67 67 67 69 68 66 63 64 63 63 63 64 63 62 61 59 59 59 60 60 59 59 58 58 59 58 59 59 60 58 59 59 59 58 62 64 67 69 70 71
69 70 67 69 67 65 67 65 66 65 62 61 61 61 63 63 62 59 59 59 58 58 58 57 57 57 56 55 55 56 57 58 59 59 58 59 60 61 61 63 65 67 68
69 68 67 64 65 64 65 62 61 61 61 62 61 61 63 63 63 61 59 59 59 57 56 56 55 54 53 54 57 57 56 56 56 61 59 59 56 60 58 61 63 64 65
63 62 62 63 63 61 61 59 58 58 60 60 60 62 62 61 61 59 59 57 57 55 54 54 53 53 52 51 59 56 53 54 55 53 54 58 57 57 56 58 56 60 61
61 61 59 60 62 63 57 57 55 56 58 59 58 59 60 60 59 57 55 55 54 53 52 52 51 50 51 50 49 54 51 53 52 51 52 52 54 54 55 56 56 54 56
58 58 58 58 59 59 57 56 57 56 56 57 60 61 59 57 58 58 53 52 52 51 50 49 49 48 49 49 47 45 46 52 49 51 49 51 47 50 53 54 54 54 53
57 58 60 59 58 58 58 57 56 56 57 56 56 55 56 55 55 54 52 51 50 50 48 48 48 47 45 46 46 45 40 38 40 46 47 47 45 45 46 48 53 56 54
56 57 59 60 60 59 58 56 55 52 52 52 51 51 51 52 53 53 52 50 49 48 47 47 49 45 45 42 44 48 44 42 41 40 43 47 45 47 43 44 46 50 54
56 56 57 59 59 59 58 56 53 52 51 50 49 49 50 50 51 51 50 48 48 47 46 45 45 44 43 42 41 41 41 41 44 39 36 39 44 43 43 42 42 45 50
56 56 56 58 59 58 56 55 54 52 50 48 47 47 47 48 49 48 49 46 45 44 43 42 42 42 41 40 39 40 39 38 37 36 38 36 38 41 41 41 40 42 45

GFSSE_sfc_temp_003.txt.gz
Temp
70 72 74 74 74 74 74 74 74 74 75 75 75 75 75 75 75 75 75 75 76 76 76 76 75 75 75 74 74 74 74 73 74 75 76 77 78 78 77 75 74 74 75
71 72 73 74 74 74 74 74 74 74 75 75 75 75 75 75 75 74 74 74 75 76 76 75 75 74 74 73 73 73 73 72 72 73 75 76 76 77 77 75 74 73 74
71 72 73 73 74 74 74 74 74 75 75 75 75 74 74 74 74 74 73 74 74 75 75 75 74 74 73 72 71 72 72 72 71 72 73 67 68 75 76 74 74 75 75
71 72 73 73 73 74 74 74 74 75 75 74 74 74 74 74 73 73 73 73 74 74 74 74 74 72 71 70 70 70 71 71 70 71 66 67 69 74 75 75 75 75 75
70 72 72 72 73 73 73 73 74 74 74 73 73 74 74 73 73 73 72 72 73 73 74 73 72 71 70 69 69 70 70 70 69 67 64 65 65 71 75 75 74 74 74
69 70 71 71 72 73 73 73 73 72 72 72 73 73 73 73 73 72 72 72 72 72 72 72 71 70 69 69 69 69 69 68 68 62 62 65 67 71 75 75 73 72 73
70 71 71 70 71 72 73 72 72 71 71 72 72 72 72 72 72 71 70 71 70 70 70 70 70 69 69 69 69 68 68 67 63 59 61 63 64 70 74 74 73 72 72
72 72 71 71 71 71 72 71 70 70 71 71 71 71 71 71 70 70 70 70 70 70 69 70 69 69 69 69 68 68 67 67 64 59 62 63 67 71 73 74 72 72 72
74 73 72 72 71 70 69 69 69 70 70 70 70 70 70 69 69 70 70 70 70 69 70 70 69 69 69 68 68 67 66 66 60 59 64 63 68 71 74 74 73 72 72
71 71 69 67 67 66 66 68 68 69 69 69 69 69 68 69 69 70 69 69 70 70 70 70 69 69 69 68 67 66 66 65 59 59 59 61 69 73 74 73 72 71 72
65 64 64 65 65 64 65 67 68 69 69 68 68 68 66 64 64 65 67 68 69 68 69 69 68 68 67 67 66 66 65 58 58 59 59 65 68 72 74 73 72 71 71
62 63 63 63 63 64 69 65 64 66 65 64 65 65 64 63 63 65 66 67 68 68 68 68 68 67 66 59 59 63 58 58 58 58 58 66 68 71 72 73 72 71 71
66 66 65 63 63 63 65 63 62 63 63 63 64 63 63 64 62 62 61 61 61 64 61 63 62 61 60 59 58 58 58 58 57 58 61 65 68 71 72 73 73 72 71
65 67 67 64 63 62 63 63 63 63 62 63 63 64 61 61 60 59 59 59 59 58 58 59 58 59 58 59 58 58 58 57 57 58 58 64 66 70 72 74 74 73 72
68 68 67 65 65 64 63 62 62 62 64 64 63 63 62 61 60 59 59 59 58 58 58 58 58 58 58 58 58 58 58 58 58 58 58 63 64 67 71 73 74 74 73
71 69 66 67 65 65 62 62 62 62 63 63 63 62 63 61 59 59 59 59 58 57 57 57 57 56 56 56 58 58 58 57 58 58 58 57 62 64 67 71 73 74 74
70 69 65 64 64 63 64 63 61 61 63 61 61 63 63 61 59 59 58 58 57 57 57 56 55 55 55 56 55 56 57 58 57 57 57 57 57 61 63 65 68 70 72
65 66 66 67 63 63 62 60 59 59 58 59 59 59 61 62 60 58 57 57 56 55 55 54 54 54 53 52 52 54 54 55 56 59 55 54 54 57 59 61 63 65 67
63 66 64 65 64 62 60 59 57 57 57 58 58 58 59 59 59 56 56 54 54 54 52 52 52 52 50 50 54 52 51 51 52 56 54 54 54 54 55 58 59 60 63
59 61 60 60 60 58 58 56 56 56 56 56 57 58 58 58 57 56 54 53 53 52 51 50 50 50 50 49 55 53 50 51 50 48 50 54 52 51 52 53 53 54 58
57 58 58 58 58 58 55 55 54 53 54 54 56 56 55 55 56 53 51 51 51 50 49 49 48 48 49 47 47 51 49 49 50 48 48 47 50 51 52 53 52 53 54
56 58 57 57 57 57 55 53 53 53 53 57 58 57 55 54 53 54 51 50 49 48 48 47 46 46 45 45 43 42 40 46 45 49 46 47 44 46 49 51 50 52 52
56 56 58 57 57 57 56 55 54 54 53 53 51 50 51 52 52 51 50 48 47 46 45 45 44 43 42 43 43 41 38 35 38 43 46 44 42 43 43 45 48 49 49
54 55 56 58 57 58 56 55 54 53 52 49 48 48 49 50 49 50 48 47 45 44 43 44 44 41 41 39 41 46 41 39 35 35 40 45 43 45 41 41 43 45 46
54 54 55 57 58 57 56 54 52 50 48 47 46 47 47 47 47 48 47 47 45 43 42 41 41 40 40 38 38 38 38 38 38 36 34 37 41 41 44 40 41 41 44
53 52 53 55 56 56 54 52 50 48 46 45 45 46 46 46 46 47 48 45 43 42 41 40 40 40 38 38 37 40 38 38 37 36 35 36 35 39 39 41 39 40 41

GFSSE_sfc_temp_006.txt.gz
Temp
69 71 74 74 74 74 74 73 74 74 75 75 75 75 75 75 75 75 75 75 75 76 76 75 75 75 75 75 74 73 73 73 73 74 74 76 77 77 77 75 74 74 75
70 71 73 74 74 74 74 74 74 74 75 75 75 75 75 75 74 74 74 75 75 76 76 75 75 75 74 73 72 72 72 72 72 72 73 74 74 75 77 75 74 74 74
70 72 73 73 74 74 74 74 74 75 75 75 75 74 74 74 74 73 73 74 75 75 75 75 74 74 73 71 71 71 71 71 71 71 72 67 67 74 76 74 74 75 75
72 71 73 73 73 74 74 74 74 75 75 75 74 74 74 74 73 73 73 73 74 75 75 74 74 72 71 70 70 70 70 70 70 69 65 66 67 72 74 75 75 75 74
70 71 72 72 73 73 73 73 73 74 73 73 73 74 73 73 73 73 72 73 73 74 74 74 73 71 70 69 70 70 70 69 69 65 63 64 66 69 73 75 74 73 73
68 69 69 71 72 73 73 73 73 72 72 72 73 73 73 73 73 72 71 72 73 73 73 72 71 70 69 69 69 69 69 68 66 60 61 64 65 70 73 73 73 73 72
69 69 70 70 71 73 73 73 72 71 71 71 72 72 72 72 72 71 71 71 71 71 71 71 70 70 69 69 69 69 68 67 62 60 60 62 64 71 73 75 73 72 72
71 71 70 71 71 71 72 71 71 71 71 71 71 71 71 71 70 71 71 70 70 70 70 70 70 69 69 69 69 68 67 67 63 60 61 62 68 72 74 74 73 71 72
73 71 70 69 70 70 69 69 69 70 70 70 70 70 70 69 70 70 70 70 70 70 70 70 70 69 69 69 68 67 66 66 59 60 63 62 69 72 74 74 74 72 71
72 73 71 72 71 67 67 68 68 69 69 69 69 69 69 69 70 70 69 69 70 70 70 70 69 69 69 68 67 66 66 64 58 58 59 60 69 72 74 74 73 72 71
69 70 69 69 68 65 65 67 68 69 69 68 68 69 66 63 63 63 67 68 69 68 69 69 68 68 67 66 65 66 65 58 58 59 58 64 69 72 73 73 72 71 71
66 66 66 64 63 63 68 64 64 65 64 64 64 64 63 62 62 65 65 67 68 67 68 67 67 67 65 60 59 62 59 59 58 58 59 65 69 72 73 73 72 72 71
64 63 62 62 62 62 64 62 61 62 62 62 63 62 62 63 62 61 60 60 59 63 60 61 61 60 59 59 58 58 58 58 57 58 60 65 67 71 73 73 73 73 72
62 63 63 62 61 61 61 61 61 61 61 61 62 63 61 60 59 58 58 58 58 57 58 57 57 58 58 58 58 57 57 57 57 57 58 63 65 69 73 74 74 73 73
62 63 63 62 61 61 61 60 60 61 62 62 62 62 60 59 57 57 57 57 58 57 56 56 56 57 56 57 57 57 57 57 57 57 56 61 63 66 69 72 73 74 74
65 64 64 63 61 61 61 61 60 60 61 62 61 61 61 59 58 58 58 57 56 55 55 55 55 55 54 55 56 56 56 56 56 56 56 55 60 62 64 66 67 69 70
65 65 62 61 61 60 60 60 60 60 62 60 59 60 59 59 58 56 56 55 55 54 54 54 54 53 53 54 54 54 55 54 54 55 54 55 55 58 60 62 63 64 65
63 62 62 64 63 61 60 59 59 58 58 57 56 56 57 58 57 55 54 53 53 53 52 52 51 51 50 50 50 51 51 53 53 53 53 53 53 55 56 59 60 61 62
62 62 62 63 62 60 58 57 57 56 55 54 54 55 56 57 56 54 52 52 52 51 50 50 50 49 49 48 52 51 50 50 50 54 52 51 51 51 52 55 57 57 59
58 60 59 59 58 58 57 57 56 54 54 54 54 54 56 58 57 56 53 51 50 49 48 48 48 48 48 47 52 51 48 49 48 48 48 52 50 50 51 52 51 52 55
55 56 57 57 57 57 54 53 53 53 53 55 54 54 54 56 52 50 49 49 48 47 46 47 46 46 46 45 44 46 46 47 47 47 47 47 48 49 49 50 51 51 52
54 55 56 56 55 56 54 52 54 53 53 52 53 51 50 51 51 51 48 47 47 46 45 44 43 44 44 43 41 41 39 43 45 47 46 46 43 45 48 49 48 49 50
53 53 55 55 55 55 54 53 52 52 51 50 48 47 48 49 49 48 48 46 45 44 43 42 42 42 40 41 41 40 36 34 37 42 43 43 42 43 43 44 47 48 49
51 53 54 55 55 55 54 53 53 50 48 46 46 46 46 48 48 48 47 45 44 43 42 42 43 41 41 37 40 43 40 38 35 35 42 42 41 43 41 41 43 44 46
54 52 52 54 55 54 53 51 49 46 45 45 45 46 46 47 47 47 46 44 43 42 41 41 39 39 39 37 37 36 37 37 37 35 32 36 42 41 41 41 41 41 44
51 51 51 52 50 50 49 48 48 46 45 45 46 46 46 46 45 45 45 42 41 41 40 39 39 38 37 36 36 36 35 34 33 33 31 32 34 38 39 40 40 41 41

GFSSE_sfc_temp_009.txt.gz
Temp
75 79 74 74 74 74 74 74 74 74 75 75 76 76 76 75 75 75 75 75 75 76 76 76 76 75 75 74 73 73 73 72 72 73 74 75 75 76 77 75 75 82 75
77 79 72 74 74 74 74 74 74 74 75 75 75 75 75 75 74 74 75 75 76 76 76 76 75 74 74 73 72 72 72 71 71 71 72 75 75 75 75 75 74 79 75
77 79 79 73 74 74 74 74 75 75 75 75 75 75 75 74 74 74 74 74 75 76 76 75 75 74 73 72 71 71 71 71 70 70 71 79 79 73 75 75 74 75 75
76 79 79 73 73 74 74 74 74 75 75 75 74 74 74 74 74 73 73 73 74 75 75 75 74 73 72 71 71 71 71 70 69 70 79 78 79 73 74 75 75 74 74
76 78 78 73 73 73 74 74 74 74 74 74 74 74 74 74 74 73 73 73 74 75 75 74 73 72 70 70 70 70 70 70 68 75 79 77 78 75 74 74 76 75 73
76 76 73 71 72 73 73 73 73 73 72 72 73 74 74 74 73 72 72 73 74 74 74 73 72 70 70 70 70 70 69 69 70 79 78 76 77 73 74 75 73 73 72
75 77 77 70 71 73 73 73 72 72 71 72 72 72 73 72 72 72 72 72 72 72 72 72 71 70 70 70 69 69 68 68 76 78 78 76 76 73 75 75 73 72 72
74 76 77 72 71 71 72 72 71 71 71 71 71 72 72 71 71 71 71 71 71 71 71 70 70 70 70 70 69 68 67 67 75 77 76 77 72 73 75 74 73 72 72
75 74 75 77 74 70 69 70 69 70 70 70 70 70 70 70 70 71 71 71 71 71 71 70 70 70 70 69 68 67 66 66 76 76 76 79 70 73 74 74 74 72 72
73 74 75 76 76 75 75 68 69 69 69 69 70 69 69 69 70 70 69 70 70 70 70 70 70 69 69 67 67 66 66 67 76 77 78 78 69 73 74 74 73 72 72
71 73 73 73 73 73 74 73 70 69 69 69 70 69 69 75 74 74 70 69 69 69 69 69 69 68 67 67 66 66 66 77 76 78 78 67 69 73 74 73 72 72 72
70 70 70 70 70 71 73 73 73 74 76 75 75 73 75 73 74 73 70 67 67 67 68 67 67 67 69 76 76 71 76 74 75 75 77 66 68 72 74 73 73 72 72
72 71 70 69 70 71 73 73 74 74 73 73 72 72 73 73 74 75 75 75 74 69 74 73 73 75 72 73 73 72 73 73 74 74 72 64 66 70 72 73 73 73 72
69 71 70 71 70 70 72 72 72 73 72 72 73 72 72 73 73 72 75 73 71 72 71 71 73 70 70 70 70 70 70 72 73 74 72 63 64 67 69 70 71 72 72
70 71 71 70 69 69 69 70 70 69 70 70 71 70 72 73 72 72 71 72 71 72 71 71 71 71 70 70 70 70 69 69 70 73 72 61 62 65 67 68 68 68 69
72 73 70 69 69 70 69 68 66 66 65 64 64 63 66 67 69 70 69 69 69 69 70 70 69 69 69 69 68 68 67 68 69 69 72 68 60 61 63 64 65 66 66
73 73 68 66 68 68 66 67 65 63 61 60 62 62 62 64 66 66 68 67 66 68 68 69 68 68 68 68 67 68 68 66 67 66 67 67 67 59 59 60 61 62 63
73 71 69 67 67 66 65 63 61 59 60 59 60 61 65 67 66 66 67 66 67 67 67 67 66 67 66 65 65 66 66 66 65 65 65 65 65 65 62 58 58 59 60
72 69 67 67 65 63 60 57 57 60 62 61 61 62 63 62 63 65 65 63 63 64 64 64 64 63 62 62 64 65 65 66 65 66 62 61 61 62 63 59 57 58 58
65 65 64 65 63 61 59 60 61 64 63 64 62 60 63 65 63 64 63 62 64 63 62 63 61 62 60 59 62 62 63 64 65 63 61 61 60 59 60 59 60 61 57
64 65 64 64 63 64 63 63 63 63 62 59 65 63 62 63 63 62 63 63 62 62 60 61 62 59 60 58 59 60 61 61 60 61 61 60 57 58 58 58 59 59 60
64 64 63 64 65 67 68 67 66 64 63 63 62 60 61 60 61 62 61 62 61 61 59 58 58 58 58 56 54 54 53 57 60 59 59 57 55 56 56 56 55 56 57
62 63 64 65 66 66 65 65 64 63 63 62 61 61 61 61 63 62 61 61 60 59 58 56 55 54 54 55 53 52 48 47 49 56 55 56 54 54 54 53 54 54 54
60 62 64 64 65 63 63 64 63 64 62 59 60 61 62 60 60 60 59 58 57 57 54 54 54 53 52 50 53 54 51 49 44 43 52 53 52 51 51 51 52 52 53
61 61 61 61 61 61 61 61 61 59 59 60 60 58 58 58 58 58 57 55 54 55 52 52 51 51 52 51 50 49 48 48 48 43 40 45 49 51 51 50 50 51 52
60 60 59 60 59 59 60 59 59 58 58 58 57 57 57 58 58 57 55 54 53 52 52 52 51 49 50 50 51 49 47 44 43 42 40 42 42 47 49 49 48 50 51

GFSSE_sfc_temp_015.txt.gz
Temp
83 84 73 74 74 74 74 74 74 75 75 76 76 76 76 76 75 75 75 75 76 76 76 76 76 76 75 75 74 74 73 72 72 73 74 76 77 77 76 75 75 82 76
84 85 73 74 74 75 75 74 74 75 75 76 75 75 75 75 75 75 75 75 76 76 76 76 76 75 75 74 73 73 73 72 72 72 74 76 76 76 76 75 74 78 75
84 85 82 73 74 74 75 75 75 75 76 75 75 75 75 75 75 75 75 75 76 76 76 76 75 75 74 73 72 72 72 72 72 73 74 86 81 76 76 75 75 75 75
84 81 81 73 73 74 74 74 74 75 75 75 75 75 75 75 74 74 74 74 75 76 76 76 75 74 73 72 72 71 72 72 72 72 87 87 85 75 75 76 75 74 74
82 82 79 73 73 74 74 74 74 74 74 74 75 75 75 75 74 74 74 74 75 75 75 75 74 73 72 71 71 71 71 71 71 75 87 84 84 77 75 74 76 75 73
79 81 72 72 73 74 74 73 73 73 73 73 74 74 74 74 74 73 73 74 74 74 74 74 73 72 71 71 71 71 70 70 70 89 87 82 80 75 75 74 73 73 73
73 75 76 70 72 74 73 73 73 72 72 73 73 73 73 74 73 73 73 73 73 73 73 73 72 72 71 71 70 69 69 69 83 87 87 81 77 75 75 74 73 73 73
72 77 75 71 72 72 73 72 71 71 72 72 72 73 73 72 72 72 72 72 72 72 72 72 72 71 71 70 70 68 68 68 84 86 86 81 73 75 75 74 73 72 72
72 75 78 78 75 69 70 70 70 70 71 71 71 71 71 72 72 72 72 72 72 72 72 72 72 71 71 70 69 68 68 68 77 86 87 82 71 74 75 74 73 73 72
71 77 78 78 81 79 77 69 70 70 70 70 71 71 71 71 72 72 72 72 72 71 71 71 71 70 70 70 70 69 69 69 83 86 84 75 71 72 74 74 73 73 73
75 77 78 78 79 79 77 73 71 70 70 70 72 71 72 82 82 80 71 70 71 70 70 70 70 69 69 69 71 70 69 84 83 84 79 67 70 72 73 73 73 73 73
75 75 76 78 80 82 84 81 82 82 84 83 82 82 85 81 82 81 75 71 71 70 71 71 71 70 70 84 83 76 83 81 83 83 75 66 69 72 72 71 71 71 71
79 76 77 77 78 83 82 84 85 84 83 81 81 82 82 82 83 82 82 84 83 74 83 81 81 83 80 80 80 79 79 80 82 82 69 66 69 71 71 70 70 70 69
82 78 74 75 79 82 84 85 83 83 83 83 82 82 81 81 81 80 82 82 81 82 80 81 81 80 80 80 79 77 77 78 79 79 68 64 66 68 69 69 68 68 67
82 81 78 79 81 80 81 82 81 79 78 78 76 74 75 77 75 75 72 78 80 81 81 80 80 79 78 78 78 77 76 76 77 78 78 63 64 65 66 67 67 67 66
84 82 82 82 81 82 80 78 77 77 75 74 73 74 75 75 73 70 73 76 76 75 77 77 77 75 76 78 77 77 75 76 76 75 76 71 62 63 63 63 63 64 64
85 84 81 80 81 80 79 75 70 64 65 69 73 72 71 72 70 68 71 70 68 73 75 75 75 76 76 77 75 75 75 75 76 74 74 75 67 60 61 61 61 62 62
87 83 82 81 80 79 75 70 65 66 69 69 68 68 70 71 69 70 70 72 75 75 75 74 74 73 72 72 72 73 73 74 73 73 74 74 73 73 61 61 61 62 61
88 84 80 78 77 75 72 69 73 73 75 73 72 74 72 74 75 75 76 74 73 75 74 73 71 70 69 69 70 71 71 72 72 73 72 72 70 66 68 65 62 61 61
87 84 80 78 72 72 71 73 76 76 75 76 77 77 76 76 74 75 75 72 72 73 72 70 67 69 68 68 69 67 68 70 70 70 69 71 70 66 66 65 65 64 60
83 82 72 71 69 72 75 75 74 74 76 76 77 74 74 74 74 72 73 72 72 70 68 68 67 64 65 67 65 64 64 66 68 70 70 69 66 67 65 64 64 63 62
79 79 71 73 73 78 80 79 79 78 77 77 75 73 73 72 73 72 69 69 69 68 66 65 64 62 63 64 60 59 54 59 64 65 66 65 64 66 65 63 61 60 60
76 75 76 77 79 80 79 78 77 76 74 74 73 74 71 70 71 70 69 68 66 66 64 64 63 61 58 61 61 57 51 50 54 60 61 63 62 62 61 61 60 60 59
77 79 79 79 78 77 78 78 75 76 72 72 72 72 72 71 69 70 69 67 65 64 63 63 65 60 58 56 59 61 59 56 49 47 57 58 59 59 59 59 59 58 58
76 76 76 77 76 76 76 75 74 71 71 71 72 68 69 70 69 69 68 65 64 63 63 61 60 59 59 57 55 55 54 55 54 50 45 50 56 58 58 57 57 57 57
75 74 73 74 74 74 73 71 69 67 67 67 66 65 66 66 66 66 65 63 62 62 61 61 60 58 55 54 56 55 52 50 49 49 46 47 48 52 56 56 56 56 57

GFSSE_sfc_temp_018.txt.gz
Temp
76 76 74 74 74 74 74 74 74 75 75 76 76 76 76 75 75 75 75 75 76 77 77 76 76 76 76 75 74 74 73 73 72 73 75 76 77 76 76 74 74 76 75
78 77 73 74 74 75 74 74 74 75 75 75 75 75 75 75 75 75 75 75 76 77 77 76 76 75 74 74 73 73 73 72 72 72 74 76 76 76 76 74 74 75 75
78 77 77 73 74 74 75 75 75 75 75 75 75 75 75 75 74 74 74 74 75 76 76 76 76 75 74 73 72 72 72 72 72 72 73 73 74 76 76 74 74 74 75
80 79 77 73 74 74 74 74 75 75 75 75 75 75 75 75 75 74 74 74 75 76 76 76 75 74 73 72 71 71 72 72 71 72 75 79 78 75 75 75 75 74 74
80 81 76 72 73 73 74 74 74 74 74 74 74 75 75 75 74 74 73 74 75 75 76 75 74 73 71 70 70 70 71 71 71 72 75 74 73 75 75 74 74 73 73
79 77 71 72 73 74 74 73 73 73 73 73 73 74 74 74 74 73 73 74 74 74 74 74 73 72 70 70 70 70 70 70 71 76 74 73 72 76 75 73 72 72 72
69 69 71 69 72 74 73 73 72 72 72 72 72 73 73 73 73 72 72 72 73 73 73 72 72 71 70 70 70 69 69 69 72 73 71 70 69 75 75 74 73 72 72
70 70 70 70 72 72 71 71 71 71 71 71 72 72 72 72 72 72 72 72 72 72 72 72 71 71 71 70 70 70 69 69 74 72 72 68 72 75 75 74 72 72 72
69 69 68 69 72 70 69 69 70 70 70 70 71 71 71 71 71 72 72 72 72 72 71 71 71 71 71 71 70 69 69 69 67 72 75 69 72 74 75 74 73 72 72
67 68 68 70 72 70 71 69 69 69 70 70 70 70 70 71 71 71 71 71 71 71 71 71 71 70 70 70 70 69 68 69 70 72 68 65 71 73 73 73 73 72 72
63 68 71 72 72 71 71 70 70 70 70 70 70 70 69 72 71 72 70 71 71 70 71 71 71 70 70 69 70 70 69 70 70 70 66 68 72 73 72 72 71 71 71
63 70 71 72 72 72 77 71 70 73 72 73 74 70 73 73 73 77 72 71 72 71 71 71 71 70 69 71 70 69 69 70 70 68 62 68 71 72 71 70 70 70 69
72 73 74 73 73 75 75 75 75 76 73 73 74 75 73 74 73 72 70 71 69 70 73 71 72 73 72 70 69 68 69 68 66 67 64 67 70 71 70 70 69 68 67
74 73 74 75 75 74 76 76 75 74 73 70 70 71 70 70 70 70 70 70 70 69 71 69 69 71 69 70 70 68 68 66 66 66 61 65 67 69 69 69 68 68 67
74 73 74 75 75 75 74 73 73 72 72 71 70 71 70 69 67 67 66 68 68 67 67 66 67 67 66 68 69 69 68 67 67 65 60 64 65 67 67 67 67 66 66
77 75 75 76 74 76 73 72 71 70 67 67 68 69 70 69 66 66 66 65 65 66 66 66 65 65 65 66 66 67 66 65 66 65 64 59 63 64 64 65 65 65 64
79 78 75 73 74 73 72 71 68 65 65 66 66 66 66 66 65 64 63 63 63 65 65 65 64 64 63 65 64 65 64 64 64 64 64 63 59 61 61 63 64 64 63
80 77 77 78 75 73 70 67 65 65 67 67 65 65 66 68 66 64 63 63 64 64 64 63 61 61 60 60 59 60 60 61 63 65 63 62 61 62 60 62 63 64 62
80 78 76 74 73 70 68 66 67 68 69 68 66 66 67 69 69 65 63 63 63 63 62 62 59 58 57 58 61 59 57 57 59 65 61 61 60 58 61 62 62 62 62
80 77 74 72 71 69 68 68 70 70 69 68 68 68 69 68 67 64 63 63 63 62 60 59 57 58 56 54 62 61 56 56 57 57 60 63 61 61 60 58 55 56 60
78 75 70 67 66 69 69 69 69 66 68 68 68 68 67 67 67 64 62 62 61 59 58 58 56 54 53 54 52 52 54 55 54 55 55 55 56 60 60 57 56 54 53
76 73 69 67 66 71 72 72 70 69 68 68 66 66 66 65 65 65 61 60 59 58 56 55 53 52 52 52 48 48 44 48 52 54 52 54 51 56 56 56 53 54 51
67 69 70 70 69 72 72 73 71 68 66 65 65 64 63 64 65 63 62 59 57 56 54 53 52 52 48 49 51 46 42 39 45 49 50 50 49 49 49 52 53 53 51
69 71 73 73 74 73 72 70 67 66 63 64 63 63 63 65 63 63 60 57 55 55 53 53 56 50 49 46 48 53 47 44 39 39 45 47 48 50 47 47 48 50 50
73 72 72 72 72 72 70 69 66 63 63 63 61 60 60 59 60 60 58 54 53 53 53 52 51 50 49 46 45 44 44 43 43 39 37 39 45 47 48 47 46 46 49
72 69 69 70 70 69 67 64 61 59 59 58 57 55 57 57 56 56 57 53 53 52 52 52 51 49 47 45 45 46 43 40 40 38 36 37 38 42 45 46 45 44 46

GFSSE_sfc_temp_021.txt.gz
Temp
70 73 73 74 74 74 74 74 74 74 75 75 75 75 75 75 75 75 75 75 76 77 77 76 76 75 75 75 74 74 73 73 72 73 75 76 77 77 75 74 74 74 75
72 74 73 74 74 75 74 74 74 74 75 75 75 75 75 75 75 75 75 75 76 77 77 76 76 75 75 74 73 73 73 72 72 72 74 76 76 76 75 74 74 74 75
72 74 74 73 74 74 75 75 75 75 75 75 75 75 75 74 74 74 74 75 75 76 76 76 75 75 74 73 72 72 72 72 72 72 73 72 73 75 75 74 74 74 74
72 74 74 73 74 74 74 74 74 75 75 75 75 74 74 74 74 74 74 74 75 76 76 76 75 74 73 72 71 72 72 72 72 73 72 72 75 75 75 74 74 74 73
73 74 74 73 73 74 74 74 74 74 74 74 74 75 75 75 74 74 74 74 75 75 75 75 74 73 72 70 70 71 72 71 72 72 67 68 69 75 74 73 73 73 72
72 72 72 72 73 73 73 73 73 73 72 73 73 74 75 74 74 73 73 74 74 74 74 74 73 72 70 70 71 71 71 70 71 65 66 70 70 75 75 73 72 72 72
69 69 71 70 72 72 73 73 72 72 72 72 72 73 73 73 73 72 72 72 73 73 73 73 72 71 71 71 71 70 70 70 68 64 64 66 68 75 75 74 72 72 72
67 68 69 70 69 71 71 71 71 71 71 71 72 72 72 72 72 72 72 72 72 72 71 71 71 71 71 71 71 69 68 69 69 66 66 65 72 75 75 74 72 72 72
65 65 67 68 69 70 69 69 69 70 70 70 70 71 71 71 71 72 72 72 71 71 71 71 71 71 71 71 70 68 67 68 65 66 70 64 72 74 74 73 73 72 72
64 63 65 67 69 68 69 69 69 69 70 70 70 70 70 70 71 71 71 71 71 71 72 71 71 71 70 70 70 68 68 68 63 63 62 64 72 74 73 72 72 71 70
63 63 65 67 67 67 68 70 70 70 70 70 70 70 68 68 68 70 69 70 71 70 70 71 71 70 69 69 69 68 68 65 64 61 60 69 72 73 72 70 70 69 69
61 62 65 67 68 68 73 67 66 70 68 68 68 68 68 67 67 71 69 69 70 69 70 70 70 68 70 67 66 67 65 65 63 61 61 69 72 72 71 70 69 68 68
64 65 67 68 69 70 70 68 68 67 66 68 68 68 68 69 68 67 67 66 68 68 67 69 68 68 66 65 64 64 64 64 60 60 63 67 70 71 70 69 68 67 66
66 69 69 70 70 70 70 67 67 68 67 65 66 68 66 64 63 63 63 62 63 63 63 64 63 65 64 65 65 63 63 62 62 59 61 66 68 70 70 69 68 67 66
68 69 69 69 70 69 69 69 69 66 65 66 66 66 65 64 62 62 62 62 62 62 62 62 62 62 62 63 62 63 63 62 62 60 56 64 65 68 68 67 66 66 65
68 66 67 68 68 70 68 66 64 62 63 63 62 63 64 62 61 61 61 61 61 61 61 60 59 58 58 60 60 61 61 60 60 60 57 57 63 65 66 66 65 65 65
69 69 66 67 67 68 65 63 61 61 61 60 60 62 62 62 61 60 59 58 59 59 59 59 58 57 57 60 58 59 59 58 58 59 58 56 57 61 63 64 65 64 64
71 69 70 72 66 65 62 61 60 61 60 59 59 59 61 62 61 59 58 57 58 58 57 56 55 55 54 54 53 54 54 56 57 58 58 56 54 57 60 62 63 63 63
72 70 69 67 65 63 62 61 62 62 60 59 59 60 62 63 63 59 57 57 59 57 55 56 54 53 51 51 55 53 51 51 53 58 56 57 54 53 54 61 60 60 61
70 68 69 66 64 62 61 61 61 61 60 60 60 60 62 62 62 58 57 56 56 55 54 53 52 52 50 49 57 54 49 50 51 49 50 56 54 55 56 53 50 53 59
69 70 66 64 63 63 60 59 60 59 59 58 59 61 60 60 60 57 56 55 55 53 52 52 50 49 49 48 46 46 48 49 50 48 48 49 50 52 56 56 52 50 51
67 64 64 65 64 64 65 65 62 60 59 59 59 58 59 59 59 59 56 54 54 53 51 50 48 47 47 46 44 41 39 43 45 48 46 48 45 48 52 55 52 51 49
62 62 63 64 65 65 65 63 61 59 57 56 55 56 58 60 60 57 54 52 51 50 49 48 47 47 44 45 46 42 37 34 38 43 46 45 44 43 43 46 48 49 48
61 61 64 65 64 65 64 64 63 58 55 54 55 55 55 56 56 56 53 51 49 48 48 47 51 46 44 41 43 48 42 40 34 33 39 41 43 45 42 42 43 46 46
65 65 63 64 64 63 63 61 59 57 55 53 52 52 53 53 54 54 52 50 48 47 47 47 46 44 43 41 40 40 40 39 39 35 30 35 39 41 42 41 41 41 44
65 65 66 63 60 59 59 56 55 54 52 51 50 49 50 50 50 50 52 49 48 48 46 45 44 44 42 42 41 40 39 38 36 35 32 32 33 37 40 41 40 40 41

GFSSE_sfc_temp_024.txt.gz
Temp
71 73 73 74 74 74 74 74 74 74 75 75 75 75 75 75 75 75 75 75 76 76 77 76 76 76 76 75 74 74 74 73 73 74 75 76 76 76 75 74 74 73 74
72 73 73 74 74 74 74 74 74 74 75 75 75 74 74 75 74 75 75 75 76 76 76 76 76 76 75 74 74 73 73 72 72 73 74 75 76 75 74 73 73 73 74
72 73 74 73 74 74 74 74 74 75 75 75 74 74 74 74 74 74 74 75 75 76 76 76 76 76 75 74 72 73 73 72 72 72 74 68 70 75 74 74 73 73 73
72 73 74 73 74 74 74 74 74 75 75 74 74 74 74 74 74 74 74 74 75 76 76 76 76 75 73 72 72 72 73 72 72 72 68 69 73 74 74 73 73 73 72
71 73 73 72 73 73 74 74 73 74 74 74 74 74 74 74 74 74 74 74 75 76 76 76 75 73 72 71 71 71 72 71 70 69 64 66 68 74 74 73 72 72 72
70 72 71 72 72 73 73 73 73 73 73 73 73 74 74 74 74 74 73 74 75 75 75 74 74 72 71 71 71 70 71 70 68 63 64 68 68 75 74 73 72 72 72
69 71 72 70 72 72 73 73 72 72 72 72 73 73 73 73 73 72 72 73 73 74 73 73 72 72 71 71 71 70 69 69 64 62 63 65 68 74 74 73 72 72 72
68 69 70 70 70 70 72 71 71 71 71 71 72 72 72 72 72 72 72 72 72 72 72 72 71 71 71 71 70 69 68 69 67 63 63 63 71 74 74 73 72 71 71
66 66 66 67 69 69 69 69 69 70 70 71 71 71 71 70 71 71 72 72 72 71 71 72 71 71 71 71 70 68 68 67 62 62 67 63 72 73 73 72 71 70 70
63 64 64 67 67 68 68 68 69 69 69 70 70 70 69 70 71 71 71 71 72 72 72 72 71 71 71 70 69 68 67 66 60 61 61 62 72 73 72 71 70 69 69
61 62 67 66 67 66 67 69 69 70 69 69 69 69 67 66 67 68 69 70 71 70 70 71 71 69 68 68 68 68 66 61 60 59 59 69 72 72 71 69 68 68 68
60 61 64 65 65 66 71 66 64 68 67 67 67 66 66 65 65 69 68 69 70 69 69 69 68 69 67 63 63 65 62 61 60 59 59 69 71 72 70 69 68 67 67
61 63 63 65 67 65 68 64 64 65 64 65 66 66 66 66 65 64 64 63 64 66 65 66 65 63 63 62 61 60 61 60 57 58 62 67 70 71 70 69 68 67 66
62 64 65 66 67 65 66 64 64 64 65 63 65 66 65 62 61 61 61 60 61 60 61 61 60 61 61 62 61 60 60 58 57 57 57 65 68 70 70 69 67 66 65
63 65 66 68 67 66 65 65 64 64 64 63 63 64 63 61 60 60 60 60 60 60 59 59 59 59 58 59 59 59 58 58 57 57 54 63 65 68 69 68 67 66 65
66 67 67 67 65 67 65 62 62 61 62 61 61 61 62 60 59 59 58 59 58 58 58 57 56 56 55 56 57 57 56 56 56 55 55 54 62 65 66 66 66 66 65
68 68 65 64 65 65 61 61 60 60 59 59 60 60 61 60 59 58 57 57 56 56 56 55 55 54 54 56 55 55 55 54 55 55 53 54 56 62 63 65 65 64 64
67 65 66 69 64 62 61 60 60 59 58 58 58 59 60 60 59 57 56 56 55 55 54 53 52 52 51 51 50 51 50 52 52 53 53 53 51 54 59 62 63 63 62
68 67 64 65 63 61 61 60 59 59 58 58 57 58 59 60 59 56 54 54 54 53 52 53 51 50 49 49 52 49 47 48 49 54 52 52 51 52 52 59 60 60 61
67 67 64 64 61 61 60 59 58 57 57 58 57 58 59 58 58 56 54 53 54 52 51 51 50 49 48 46 54 51 47 47 47 45 47 52 50 50 51 51 51 54 59
64 65 64 61 61 61 60 58 56 56 56 56 56 58 57 57 57 55 53 53 52 51 49 50 47 47 46 45 44 44 44 45 45 45 45 45 46 48 49 49 49 46 47
64 64 63 63 61 63 63 59 59 57 56 56 55 56 56 56 57 56 53 51 51 50 49 48 47 45 44 44 42 39 37 41 43 45 43 45 42 44 46 48 47 48 46
63 62 62 61 62 62 63 60 57 56 54 53 52 53 55 56 55 53 51 49 48 48 47 45 45 45 42 42 42 41 35 33 35 40 41 40 41 40 40 43 45 45 44
62 60 62 63 63 62 60 60 60 59 57 52 52 52 53 54 52 52 51 49 47 46 45 44 47 43 42 40 40 45 40 39 33 31 37 39 40 42 40 40 40 43 43
61 61 61 61 61 61 60 60 59 54 52 51 51 50 50 50 50 51 49 47 46 45 44 44 42 42 41 40 39 39 38 37 35 33 29 33 37 39 39 39 38 39 42
61 60 58 59 58 59 59 56 55 52 51 51 48 47 47 47 47 48 48 46 45 45 44 43 42 42 40 40 39 38 38 36 35 33 30 31 31 35 38 38 38 38 39

GFSSE_sfc_temp_027.txt.gz
Temp
71 72 73 74 74 74 73 73 74 74 74 75 75 75 75 75 75 75 75 75 76 76 77 76 76 76 76 75 74 74 73 73 73 74 75 76 76 75 74 73 73 72 74
73 73 73 73 74 74 74 74 74 74 74 75 75 75 74 75 75 75 75 75 76 76 77 77 76 76 76 74 73 73 72 72 73 73 73 75 75 75 74 73 73 72 74
72 73 73 73 74 74 74 74 74 74 75 75 74 74 74 74 74 74 74 75 75 77 77 77 76 76 75 73 73 73 72 72 72 72 72 66 69 74 74 73 73 73 73
73 73 72 73 73 74 73 74 74 75 75 74 74 74 74 74 74 74 74 74 75 76 77 77 76 75 74 72 72 72 72 71 71 70 66 67 71 74 74 73 73 73 72
72 72 72 72 72 73 73 73 74 74 73 74 74 74 74 75 75 74 74 74 75 76 76 76 75 74 72 71 70 71 71 70 69 68 63 65 66 74 74 73 72 72 72
70 72 71 71 72 73 73 73 73 72 72 73 73 74 75 75 75 74 73 74 75 75 75 75 74 72 71 71 71 70 70 69 67 61 62 67 67 74 74 72 72 72 71
69 70 70 70 72 72 73 72 72 72 72 72 73 73 74 74 73 73 72 73 73 74 74 74 73 72 71 71 71 69 69 68 62 60 61 63 67 74 73 72 71 71 71
67 69 70 72 71 72 72 71 71 71 71 72 72 72 73 72 72 72 72 72 72 72 72 72 72 71 71 70 70 68 68 68 65 61 62 63 71 73 73 72 70 70 70
65 65 67 68 70 70 69 69 69 70 70 71 71 71 71 70 71 71 71 72 72 71 71 71 71 71 70 70 69 67 67 67 61 62 66 62 72 73 72 71 70 70 70
63 63 63 64 65 66 69 69 69 69 69 69 70 69 69 70 70 70 70 71 72 72 71 71 70 70 70 69 68 66 66 65 59 59 60 63 72 72 71 70 69 69 69
61 61 63 64 65 65 66 68 69 70 69 69 69 69 67 65 65 66 69 70 70 70 70 70 69 68 67 67 67 66 64 59 58 58 58 69 71 71 70 69 68 68 67
60 61 63 64 64 65 70 65 65 67 65 65 65 65 64 64 65 67 67 69 68 68 68 68 67 67 64 61 60 63 58 58 58 58 58 69 71 71 70 68 67 67 67
60 60 62 65 64 64 66 63 63 63 63 64 64 64 63 63 63 63 63 63 62 65 63 63 62 61 61 59 58 58 58 57 54 56 59 67 70 71 70 68 67 67 66
60 62 63 63 63 63 63 62 62 63 63 63 63 64 62 60 60 60 60 59 59 58 58 58 57 58 58 58 58 57 57 55 54 54 56 64 67 70 70 68 67 66 66
61 63 63 64 63 63 63 62 62 63 62 61 62 63 61 59 58 59 58 58 58 57 57 56 56 56 56 56 56 56 56 54 54 53 52 61 64 67 69 68 67 66 65
63 63 64 64 64 63 62 61 61 61 61 60 60 61 61 59 58 58 56 56 56 56 55 54 54 53 53 54 54 54 53 52 52 52 52 51 61 65 67 67 66 66 65
64 66 64 63 63 62 61 60 61 59 59 59 59 60 60 59 58 56 55 54 54 54 54 53 53 52 52 54 52 52 51 51 51 51 50 50 52 59 63 65 65 64 64
66 65 64 67 63 60 59 59 58 58 58 57 57 57 58 59 57 55 54 53 53 53 52 51 51 50 49 49 48 47 47 49 50 50 50 50 50 52 55 61 63 63 62
65 65 63 63 61 60 59 58 58 57 57 57 57 57 58 58 57 54 52 52 52 51 51 52 48 48 47 46 50 46 45 45 46 51 49 49 49 49 50 58 60 60 61
63 63 62 61 59 59 58 58 56 55 56 56 56 56 57 56 56 53 52 51 51 50 49 49 48 47 45 44 52 48 43 44 44 43 44 49 47 46 47 48 46 48 57
61 61 61 59 59 60 58 57 54 54 54 54 55 56 55 55 54 52 51 51 50 49 47 48 45 45 44 43 43 43 41 42 43 42 42 42 44 45 45 45 44 43 45
62 61 61 61 59 61 62 57 57 55 54 54 54 54 54 54 54 53 50 49 49 47 47 46 45 43 42 42 40 38 36 40 41 42 40 42 40 42 44 45 44 44 42
61 61 61 61 60 61 60 58 54 53 53 52 51 51 52 53 52 50 49 47 46 46 44 43 43 43 41 40 40 40 34 32 34 38 39 39 39 39 39 42 43 43 42
61 61 62 62 61 61 60 59 58 55 55 51 50 50 50 50 50 50 48 47 45 44 44 43 45 41 40 39 39 43 39 37 33 31 36 37 38 41 38 38 39 41 41
61 60 60 61 60 61 59 57 55 53 51 50 49 48 47 47 49 49 48 46 45 44 43 43 42 41 40 39 38 38 36 35 34 32 29 33 36 38 38 38 38 38 39
60 59 59 60 60 59 60 56 54 52 50 49 46 46 45 45 45 47 47 46 48 47 43 42 41 41 39 39 38 37 36 35 34 31 29 30 31 35 37 38 37 37 37

GFSSE_sfc_temp_030.txt.gz
Temp
69 72 73 74 74 74 73 73 73 74 74 75 75 75 75 75 75 75 75 75 76 77 77 77 77 76 75 75 75 74 74 73 73 74 75 75 75 75 74 73 73 73 74
71 72 73 73 74 74 74 73 74 74 75 75 75 75 75 75 75 75 75 75 76 77 77 77 76 75 75 74 73 73 73 72 72 73 73 75 75 75 74 73 73 73 73
71 72 72 73 74 74 74 74 74 74 75 75 75 75 75 75 75 75 75 75 76 77 77 77 76 76 75 73 73 73 73 72 71 72 71 66 70 75 74 73 73 73 73
73 72 72 73 73 74 74 74 74 75 75 75 75 75 75 75 74 74 74 75 76 77 77 77 77 75 74 72 72 72 72 71 70 69 66 67 72 74 74 73 73 73 72
72 71 71 72 73 73 73 73 74 74 74 74 74 75 75 75 75 74 74 75 76 76 77 77 76 74 72 71 71 71 71 70 69 67 64 66 67 73 73 72 72 72 71
70 70 70 71 72 73 73 73 73 73 72 73 74 74 75 75 75 74 74 75 76 76 76 75 74 73 71 70 70 70 69 68 66 62 63 67 67 74 73 72 71 71 71
69 70 71 70 72 73 73 73 72 72 72 73 73 74 74 74 74 73 73 73 74 74 75 74 73 72 71 70 70 69 68 67 62 61 62 64 68 73 73 71 71 71 71
66 67 70 72 71 71 72 71 71 71 72 72 72 73 73 72 72 72 72 72 72 72 72 72 71 71 71 70 70 68 68 67 64 62 63 64 71 73 72 71 70 70 70
64 65 65 68 69 69 69 69 69 70 70 71 71 71 71 70 71 71 72 71 72 71 71 71 71 70 71 69 69 67 66 66 61 62 66 64 72 72 71 71 70 70 69
62 63 62 62 65 64 67 68 69 69 69 69 70 69 69 70 70 70 71 71 71 71 71 71 70 69 69 68 67 66 65 64 60 60 62 65 71 71 71 70 70 69 68
61 61 62 62 63 64 66 68 69 69 69 69 69 69 66 65 65 66 69 70 70 69 69 69 68 67 66 66 66 65 63 58 58 59 59 68 71 71 70 69 68 68 68
59 60 61 61 62 63 68 65 64 67 65 64 64 64 64 63 63 66 67 68 68 68 67 67 66 65 63 59 59 61 57 57 57 58 59 67 71 70 69 68 68 67 67
60 60 60 61 61 62 64 62 62 62 62 63 64 63 62 62 62 61 61 61 60 64 61 61 60 59 58 57 56 55 55 55 53 55 58 65 69 70 69 68 67 67 66
60 60 62 63 64 63 63 62 61 62 62 60 61 63 61 60 60 59 59 57 57 57 57 56 56 56 55 56 56 55 54 53 53 53 55 63 66 69 69 68 67 67 66
61 62 62 62 62 62 61 60 60 61 60 61 61 61 59 59 58 57 57 56 55 56 55 54 54 55 54 54 54 53 53 52 52 52 51 60 63 66 69 68 67 66 65
62 62 62 62 63 62 59 60 60 60 60 60 60 59 60 58 56 56 55 55 54 54 53 53 52 52 51 52 52 51 51 51 51 50 51 51 60 63 66 67 66 66 65
62 63 61 62 63 61 60 60 60 59 59 59 59 59 59 58 57 55 53 53 53 53 53 52 51 51 50 52 50 49 49 49 50 49 49 51 53 59 62 64 64 65 64
61 61 62 66 61 59 59 59 58 58 58 57 57 57 58 58 56 54 53 52 52 52 51 50 50 49 48 48 46 46 47 48 49 48 49 49 50 52 56 61 62 62 62
62 62 62 62 60 59 58 58 57 57 56 56 55 56 57 56 56 53 52 51 51 50 50 51 47 48 46 46 48 45 44 44 45 50 47 47 48 49 50 56 56 57 59
61 62 61 60 59 58 57 56 55 54 55 55 55 56 56 55 54 52 51 50 50 49 48 48 46 45 45 44 51 46 43 43 43 43 44 48 46 46 47 47 46 50 56
60 60 60 58 57 58 57 55 53 53 53 53 54 55 55 54 53 51 49 49 49 48 47 47 45 44 42 42 43 42 42 42 42 42 42 43 44 45 46 45 45 45 46
61 61 60 59 58 60 61 56 55 54 53 53 53 53 53 52 51 51 48 47 47 46 45 45 45 42 41 41 40 38 36 40 41 42 41 42 41 43 45 46 45 45 44
60 60 60 59 59 60 60 56 52 53 52 51 50 50 51 51 50 49 48 46 45 45 44 43 43 43 41 40 40 40 36 34 35 39 40 40 40 40 41 43 44 45 44
60 60 61 60 59 60 59 58 56 55 52 50 49 48 48 49 48 48 47 45 45 44 43 44 44 42 41 39 40 42 39 38 35 33 38 38 39 41 41 41 41 42 42
58 59 60 59 59 59 59 59 55 53 52 50 48 46 46 46 47 47 46 46 44 44 46 46 43 41 40 39 39 39 37 36 35 33 32 35 38 39 40 39 40 40 40
57 57 58 59 59 59 59 56 54 51 51 50 46 45 45 44 45 46 46 44 46 47 45 44 41 41 40 39 39 37 37 36 35 33 31 31 32 36 38 39 39 38 38

GFSSE_sfc_temp_033.txt.gz
Temp
75 79 73 74 74 74 74 73 74 74 75 75 75 75 75 75 75 75 75 76 76 77 77 77 77 77 77 76 75 75 74 73 73 74 75 75 75 75 74 73 75 79 74
77 79 73 73 74 74 74 73 74 74 75 75 75 75 75 75 75 75 75 76 77 77 77 76 76 76 76 75 74 73 73 72 72 73 74 76 75 75 74 73 73 77 74
74 79 78 73 74 74 74 74 74 75 75 75 75 75 75 75 75 75 75 76 76 77 77 77 77 77 75 74 73 73 72 72 71 72 74 80 79 75 74 73 73 73 73
75 78 79 73 73 74 74 74 74 75 75 75 75 75 75 75 75 75 75 75 76 77 77 77 77 76 74 73 72 72 72 71 70 73 79 80 79 74 74 73 73 73 73
75 78 78 72 73 73 73 74 74 74 74 74 74 75 75 75 75 75 75 75 76 77 77 77 76 74 72 71 71 71 70 70 70 76 80 79 79 75 73 73 73 72 72
75 77 73 71 72 73 73 74 73 73 73 73 74 74 75 75 75 75 74 75 76 76 76 75 74 72 71 70 70 70 69 69 72 79 79 76 77 74 73 72 71 71 71
71 75 74 70 72 73 73 73 73 72 72 73 73 74 74 74 74 73 73 74 74 75 75 74 73 71 71 70 70 69 68 68 78 79 79 78 76 73 73 72 71 71 71
67 69 72 72 71 71 72 71 71 71 72 72 73 73 73 73 72 72 72 72 72 72 72 72 71 71 71 70 69 68 68 69 77 77 77 78 73 73 72 71 71 70 70
64 65 67 67 68 69 69 69 70 70 71 71 71 71 71 71 71 71 72 72 72 71 71 71 71 70 70 69 68 66 66 67 76 76 77 78 72 72 72 71 71 70 69
62 63 63 63 64 65 67 68 69 69 69 70 70 70 69 70 71 71 71 71 71 71 71 70 70 69 68 67 66 65 65 66 75 76 76 76 71 72 71 71 70 69 68
60 60 61 61 62 66 68 70 70 70 69 69 70 68 69 76 75 75 70 70 70 68 68 68 67 66 66 66 65 65 67 74 74 75 76 69 71 71 70 69 69 69 68
57 59 60 61 61 67 70 67 69 69 69 70 72 72 74 73 73 74 71 67 67 67 66 66 66 66 69 73 72 68 72 71 73 74 75 67 71 70 70 69 68 68 67
60 60 61 61 61 63 66 66 68 67 68 68 68 70 69 71 72 73 72 72 71 68 71 70 70 71 68 71 70 69 69 70 72 73 69 65 68 70 69 68 68 67 67
61 60 60 61 61 64 66 67 66 70 67 67 68 70 71 71 70 70 70 69 69 68 67 68 68 66 67 67 67 66 67 69 71 71 69 62 66 69 69 68 68 67 66
61 63 62 63 64 66 65 66 66 68 70 71 71 72 72 70 68 69 67 68 68 69 68 68 68 68 66 66 66 66 65 65 66 70 71 61 63 66 69 68 68 67 66
64 64 65 66 68 67 66 67 69 69 70 69 70 70 69 69 66 67 67 68 68 69 69 69 68 67 66 66 64 64 64 65 65 66 69 68 61 64 67 67 67 66 66
67 68 66 66 68 67 66 67 66 68 68 69 69 68 68 68 67 66 67 66 66 66 66 66 65 65 65 64 62 63 64 63 64 64 66 67 67 61 63 65 65 65 65
67 66 67 68 68 67 67 68 67 67 68 67 66 66 67 67 66 66 66 65 65 66 66 65 64 64 64 64 62 62 63 62 61 61 63 65 65 67 62 60 61 62 62
68 68 68 68 67 66 67 68 67 67 67 67 65 66 66 66 66 66 66 64 64 64 63 64 62 64 63 63 61 61 61 61 60 62 61 61 61 63 65 57 58 59 60
69 68 69 68 68 67 67 65 66 65 65 65 66 68 66 66 65 64 63 62 63 63 62 63 61 61 61 62 62 59 58 59 61 60 60 61 60 60 62 61 63 60 56
67 68 68 67 66 66 64 65 64 61 62 63 66 65 64 65 64 63 63 62 63 63 61 61 60 58 59 59 59 59 57 57 57 59 60 61 59 59 59 61 63 63 61
68 68 67 68 66 67 69 68 67 64 63 65 65 64 64 63 63 62 61 62 62 61 59 59 58 57 59 57 58 56 54 54 56 56 58 58 55 59 59 58 58 58 59
68 67 68 68 67 67 68 67 63 61 60 61 62 62 63 62 63 62 61 60 59 60 59 58 57 56 55 54 54 57 53 52 53 55 53 56 55 57 58 57 56 56 56
67 68 68 68 67 67 66 66 63 63 62 62 60 61 61 60 60 61 60 59 58 58 57 57 55 52 55 54 54 56 55 54 51 49 54 55 54 54 54 56 55 55 55
68 66 67 67 66 66 64 64 62 62 62 59 58 57 57 58 59 59 59 57 57 57 56 55 53 53 55 55 56 54 53 53 51 48 46 50 54 55 55 54 54 54 53
67 66 66 64 65 64 63 64 62 61 58 56 53 53 55 57 56 57 58 57 57 56 54 54 49 49 54 54 55 53 53 51 51 48 46 47 46 50 53 53 52 53 53

GFSSE_sfc_temp_036.txt.gz
Temp
83 84 73 74 75 74 74 74 74 74 75 75 75 75 75 75 75 75 76 76 77 77 78 77 77 77 77 76 75 74 74 74 74 75 75 75 76 75 74 74 77 81 74
85 84 73 74 74 74 74 74 74 74 75 75 75 75 75 75 75 75 76 76 77 77 77 77 77 77 76 75 74 74 73 73 73 74 75 76 75 75 74 73 73 78 74
82 85 81 73 74 74 74 74 74 75 75 75 75 75 75 75 75 75 75 76 76 77 78 77 77 77 75 74 73 73 73 72 72 74 78 85 81 75 74 73 73 73 73
81 84 83 72 73 74 74 74 74 75 75 75 75 75 75 75 75 75 75 75 76 77 78 78 77 76 74 72 72 72 72 72 72 75 86 85 83 74 74 73 73 74 73
79 82 83 72 73 73 74 74 74 74 74 74 75 75 75 75 75 75 75 75 76 77 77 77 76 74 72 71 71 71 71 71 73 81 85 84 83 76 74 73 74 72 72
76 81 74 71 72 73 74 74 74 74 73 74 74 75 75 75 75 75 74 75 76 76 76 75 74 72 71 70 70 70 70 71 75 86 85 80 79 74 73 72 71 72 71
75 77 77 71 72 73 74 73 73 73 73 73 74 74 74 75 75 74 74 74 75 75 75 74 73 71 71 70 70 70 69 71 85 85 84 81 77 73 73 72 71 71 71
72 75 74 72 72 72 72 72 72 72 72 73 73 73 74 73 72 73 72 72 73 73 72 72 71 71 70 70 69 68 69 71 83 84 83 81 73 73 73 72 71 70 70
70 69 68 68 70 70 68 69 70 71 71 72 72 72 72 71 72 72 72 72 72 72 72 71 71 70 70 69 68 67 67 70 83 83 83 82 72 73 72 71 70 70 70
65 66 65 64 65 67 69 68 69 69 70 70 70 70 70 70 71 71 71 72 72 71 71 70 69 69 68 67 66 66 67 70 82 83 83 79 72 72 72 71 70 69 69
61 62 63 62 63 65 69 68 70 69 69 69 70 69 71 81 81 80 71 69 69 68 69 68 68 67 66 66 66 67 70 82 82 83 82 69 71 71 70 70 69 69 68
59 60 61 61 62 63 67 69 72 74 75 75 76 78 81 79 79 81 72 67 67 67 67 67 67 68 74 82 79 74 81 79 81 81 78 67 71 70 70 69 68 68 68
58 59 60 61 62 63 64 67 73 74 72 72 71 74 75 76 75 78 77 78 76 73 78 77 77 81 78 79 78 77 78 79 80 81 71 65 68 70 69 69 68 68 67
59 59 60 61 61 63 64 71 70 72 72 71 72 72 73 76 77 78 79 78 77 79 77 78 77 75 75 75 75 74 74 77 78 79 70 63 66 69 69 69 68 67 66
59 59 59 60 61 63 65 70 71 71 73 74 75 79 80 79 77 79 77 79 79 78 78 77 76 76 74 74 74 73 73 73 73 77 78 63 64 67 69 68 68 67 66
62 61 63 65 67 68 71 71 73 74 76 75 77 79 78 80 76 76 76 77 77 79 78 78 77 76 76 75 72 71 71 73 72 72 76 73 62 64 68 68 67 67 66
66 65 65 67 72 72 73 76 76 76 76 79 79 75 77 77 74 75 77 76 76 76 75 74 74 75 75 75 71 72 74 71 72 71 74 74 72 61 63 66 66 66 65
70 69 71 72 71 71 71 74 77 77 77 79 77 76 76 77 75 75 75 75 75 75 75 75 74 74 75 75 73 73 73 72 70 71 73 74 74 75 61 61 62 62 63
74 73 73 74 74 74 74 75 73 76 74 79 74 75 74 75 75 76 76 74 73 74 73 73 72 74 73 73 73 73 71 72 69 72 70 69 69 72 73 57 59 59 60
75 74 74 74 74 73 75 74 77 75 75 76 76 76 75 77 74 75 74 71 73 73 72 72 70 71 72 72 71 68 68 68 69 69 68 71 69 68 69 67 67 64 57
74 73 74 73 73 72 75 74 75 73 74 75 76 76 74 75 74 73 73 71 72 72 71 69 69 67 68 69 66 67 66 64 64 67 68 69 66 66 66 66 67 68 65
75 74 74 75 74 74 78 77 77 75 75 76 76 74 74 73 74 73 71 71 72 70 68 67 67 67 69 67 64 65 62 63 63 63 66 64 63 65 65 63 63 62 63
75 74 75 77 77 76 78 78 76 75 71 70 72 72 72 72 73 72 71 71 70 70 68 66 66 64 64 64 63 63 61 60 63 64 60 62 61 62 63 62 61 61 61
76 77 77 78 78 78 77 76 72 72 69 68 69 72 69 67 70 72 70 68 68 69 67 66 66 65 63 62 63 64 62 61 59 57 61 60 61 60 60 61 61 61 60
79 77 77 78 78 78 76 74 71 70 72 71 70 69 67 66 68 70 67 65 65 67 66 65 63 62 64 58 63 62 60 61 59 56 54 59 62 62 62 60 60 60 60
80 77 75 75 77 76 71 66 66 68 69 66 67 66 65 65 64 63 62 63 66 66 64 62 60 61 59 62 64 62 60 59 58 57 54 55 55 58 60 60 59 59 59

GFSSE_sfc_temp_039.txt.gz
Temp
87 84 74 75 75 75 74 74 74 74 75 75 75 76 76 76 76 76 76 76 77 78 78 78 78 77 76 76 75 74 74 74 74 75 75 76 76 75 74 74 77 79 74
88 85 73 74 75 75 74 74 74 74 75 75 75 75 75 75 75 76 76 76 77 78 78 78 77 76 76 75 74 74 74 73 74 74 75 76 75 75 74 73 73 76 74
83 83 80 74 74 74 74 74 74 75 75 75 75 75 75 75 75 75 76 76 77 78 78 78 77 76 75 74 73 73 73 73 74 75 79 83 79 74 74 74 73 73 73
81 85 82 73 74 74 74 74 74 75 75 75 75 75 75 75 75 75 75 75 76 77 78 77 77 75 74 72 72 72 73 73 74 76 86 84 81 74 74 73 73 73 73
77 84 78 72 73 73 74 74 74 74 74 74 75 75 75 75 75 75 75 76 77 77 78 77 76 74 72 71 71 72 72 72 75 82 83 81 80 75 73 72 74 72 72
71 74 72 71 72 73 73 74 74 73 73 74 74 75 75 75 75 75 75 76 76 77 77 76 74 72 71 70 71 71 71 73 73 86 83 78 77 74 73 72 72 71 71
68 71 73 70 72 73 74 73 73 73 73 73 74 74 74 75 74 74 74 74 75 75 75 74 72 71 71 70 71 70 71 71 86 86 82 78 75 73 72 72 71 71 70
72 71 70 72 72 72 72 72 72 72 72 73 73 74 74 73 73 73 73 73 73 72 72 72 71 71 70 70 69 69 70 71 84 85 82 78 73 73 72 71 71 70 70
68 68 69 70 71 69 69 69 70 71 71 72 72 71 71 71 71 72 72 72 72 71 71 71 71 70 70 69 68 68 70 71 83 84 84 79 72 72 72 71 70 70 69
66 66 67 67 71 70 70 68 69 69 70 70 70 70 70 71 71 71 71 72 71 71 71 70 69 69 69 68 68 68 69 72 83 85 81 76 72 72 71 71 70 69 69
63 64 64 64 66 69 68 69 69 70 69 69 70 69 71 80 81 79 70 70 70 69 69 69 68 67 67 67 68 69 69 82 83 83 79 69 71 71 71 70 69 69 68
59 60 61 62 63 64 70 70 70 74 77 75 76 73 79 78 80 76 69 67 67 67 67 68 68 67 69 81 80 72 81 80 82 81 74 67 71 71 70 69 69 68 68
59 59 60 62 62 63 65 66 67 73 75 75 75 76 75 75 73 72 70 74 73 72 78 75 74 81 79 80 79 77 78 80 80 81 69 66 69 70 70 69 68 68 67
58 59 59 61 60 61 61 63 66 66 71 72 74 74 73 72 73 73 76 78 77 80 78 79 79 76 76 77 76 76 75 77 78 80 69 64 66 69 69 69 68 67 67
57 58 57 59 60 61 61 61 64 69 72 72 73 74 74 74 74 79 79 79 80 80 79 78 76 77 76 76 76 75 75 75 75 77 75 64 65 67 69 69 68 67 67
57 57 59 60 61 62 62 62 63 71 76 76 75 76 78 80 78 79 78 79 79 80 80 79 77 77 78 77 74 73 73 74 74 73 77 69 63 64 68 69 68 67 67
58 59 59 59 61 62 63 65 72 76 78 76 77 77 78 80 77 78 79 78 79 79 78 76 76 76 76 76 73 74 75 73 74 72 74 75 68 61 63 66 66 67 66
65 65 65 68 63 67 70 75 77 77 75 77 79 78 77 80 77 76 77 77 78 77 78 76 76 75 75 75 73 74 74 74 71 71 73 73 73 72 62 61 63 63 63
70 70 68 70 70 71 74 75 77 78 78 80 80 78 77 79 78 78 78 77 76 77 76 75 74 75 72 73 73 72 72 72 71 74 71 70 69 71 70 59 60 60 60
73 72 72 72 71 72 73 72 76 77 76 78 78 77 76 78 77 77 78 75 75 76 74 74 72 73 73 73 74 72 70 70 71 69 69 71 70 68 68 68 64 63 58
74 73 72 73 74 73 74 76 76 74 76 74 75 77 77 79 77 76 77 74 74 74 73 72 71 69 69 71 68 70 69 67 66 68 68 68 68 67 67 67 67 68 62
74 74 74 74 75 75 78 78 78 78 79 79 78 76 78 77 77 76 75 74 73 74 71 70 70 69 71 70 65 66 62 65 65 65 67 66 65 66 66 65 64 64 63
75 75 76 78 76 75 78 80 80 79 78 77 77 77 77 76 77 76 74 73 72 73 69 69 68 68 67 68 66 63 61 60 64 67 63 64 64 63 64 64 63 63 62
77 78 78 79 78 76 77 76 77 76 71 73 74 76 76 74 73 74 72 72 71 72 70 69 70 68 65 63 67 67 65 63 58 58 64 62 63 61 61 62 63 63 62
80 79 79 80 80 81 76 77 78 75 76 75 74 73 73 70 71 69 71 70 69 70 68 67 67 64 63 62 64 64 63 63 62 56 54 61 63 64 64 63 62 62 61
83 81 79 79 80 81 79 76 74 74 72 69 71 69 69 69 69 69 70 67 67 64 63 67 65 63 63 62 62 65 61 60 60 59 56 57 58 62 64 62 60 60 61

GFSSE_sfc_temp_042.txt.gz
Temp
79 78 74 75 75 74 74 74 74 74 75 75 75 75 75 76 76 76 76 76 77 77 78 77 77 77 76 76 75 75 74 74 74 74 75 75 76 75 74 74 74 74 74
77 79 73 74 74 75 74 74 74 74 75 75 75 75 75 75 75 76 76 76 76 77 78 77 77 76 76 75 74 74 73 73 73 75 75 75 75 75 74 73 73 73 73
72 77 78 74 74 74 74 74 74 75 75 75 75 75 75 75 75 75 75 76 77 77 77 77 76 76 75 74 73 73 73 73 73 74 76 73 72 74 73 73 73 73 73
77 79 77 73 74 74 74 74 74 75 75 75 75 75 75 75 75 75 75 75 76 77 77 77 76 75 74 72 72 72 72 73 73 76 76 75 74 74 74 73 73 73 73
77 78 76 73 73 73 73 74 74 74 74 74 75 75 75 75 75 75 75 75 76 77 77 76 75 73 72 71 71 72 72 73 73 76 72 71 71 74 73 73 72 71 71
70 75 70 72 72 73 73 74 73 73 73 73 74 75 75 75 75 75 75 76 77 77 76 75 74 72 71 71 71 71 71 71 72 74 71 72 70 73 73 72 71 71 70
70 71 71 69 71 72 73 73 73 73 73 73 74 74 74 75 74 74 74 75 75 75 74 73 72 71 70 70 70 70 71 71 77 73 70 68 69 72 72 71 71 70 70
69 70 70 71 72 72 72 72 72 72 72 72 73 73 73 73 73 73 73 73 73 72 72 71 71 70 70 70 70 70 70 70 79 74 71 68 71 72 72 71 70 70 70
68 69 68 68 70 69 69 70 70 71 71 71 71 71 71 71 71 72 72 72 72 71 71 70 70 69 70 69 70 69 69 70 70 73 74 68 72 72 72 71 70 70 69
65 66 65 66 67 68 69 69 70 70 69 70 70 70 70 70 71 71 71 71 71 71 70 70 69 69 69 69 69 69 69 68 72 72 69 67 71 72 71 70 70 69 69
64 64 65 65 64 66 68 69 70 70 69 69 70 69 70 71 72 73 69 69 70 69 69 69 68 68 68 68 69 69 69 70 71 70 67 70 71 71 71 70 69 69 68
60 61 62 64 65 67 70 69 69 70 71 71 71 70 71 70 71 70 68 67 67 67 68 68 68 68 68 67 66 68 68 69 69 67 64 68 70 71 70 69 69 68 68
59 60 61 61 62 63 66 67 67 68 71 70 68 70 69 69 68 66 65 66 65 67 68 68 66 67 69 68 67 66 67 67 65 65 64 66 70 70 70 69 68 68 67
57 58 59 61 61 61 62 63 64 64 65 68 70 69 69 68 67 66 66 67 66 68 66 67 66 67 68 69 68 66 66 64 64 63 61 65 67 70 70 69 68 68 67
56 57 57 59 59 59 59 60 62 63 65 67 69 69 69 68 68 67 67 68 68 69 68 67 67 67 67 67 66 66 66 65 65 63 59 64 65 67 69 70 68 68 67
56 56 57 57 58 59 59 60 59 61 64 65 67 68 70 68 68 69 69 70 69 69 69 68 67 66 65 65 64 65 65 64 65 64 61 59 63 65 68 69 68 68 67
57 58 57 58 59 58 59 60 61 63 67 68 69 69 70 71 70 70 69 68 68 69 69 67 67 66 64 66 64 64 64 64 63 63 62 60 59 62 64 67 66 66 66
59 59 60 61 59 58 59 58 59 62 68 72 70 69 71 73 71 69 68 68 69 68 67 65 64 64 63 63 61 61 62 63 63 63 63 62 60 60 60 63 64 64 64
62 62 61 60 59 58 59 60 63 67 69 70 69 70 70 72 71 69 69 69 68 67 65 66 64 63 61 61 62 61 60 59 61 66 63 62 61 59 57 60 61 61 62
65 64 63 61 61 61 60 62 68 69 70 70 69 68 70 72 72 69 68 67 67 65 64 64 62 62 61 60 68 64 59 59 59 57 59 63 60 60 58 56 53 55 59
67 65 66 62 62 64 65 66 66 64 67 67 68 70 70 70 70 68 67 66 65 65 63 63 61 59 58 59 56 57 56 57 57 57 57 57 58 59 58 56 54 53 54
66 66 66 67 68 68 68 68 68 68 68 70 69 69 70 69 71 69 67 63 65 64 63 61 60 57 58 58 54 54 50 51 54 56 55 57 55 57 57 58 56 56 54
66 66 68 69 69 69 71 72 72 70 69 70 70 67 69 69 70 69 67 65 64 63 60 60 59 58 55 55 57 53 48 47 49 52 53 53 53 52 53 55 56 56 55
69 69 70 71 72 72 72 72 70 70 68 68 68 69 69 69 69 68 68 65 64 63 61 60 62 60 57 54 55 61 55 52 46 45 50 51 52 54 51 51 52 54 54
72 71 71 72 74 72 71 71 69 69 68 68 67 68 68 66 66 65 65 63 62 61 62 59 60 59 58 53 56 56 55 51 50 46 42 47 50 51 52 50 51 51 54
73 72 71 72 74 74 72 71 69 65 68 65 64 63 64 62 63 63 65 61 61 61 59 58 58 58 54 53 54 54 54 52 48 47 44 45 46 50 53 51 49 50 50

GFSSE_sfc_temp_045.txt.gz
Temp
66 74 74 75 75 74 74 74 74 74 75 75 75 76 76 76 76 76 76 76 76 77 77 77 77 77 77 76 75 75 74 74 74 74 75 75 75 75 74 73 73 73 74
65 73 73 74 75 74 74 74 74 75 75 75 75 75 75 75 75 75 76 76 76 77 77 77 77 77 76 75 74 74 74 74 73 73 74 75 75 74 74 73 73 73 74
67 67 74 73 74 74 74 74 75 75 75 75 75 75 75 75 75 75 75 75 76 77 77 77 77 76 75 74 73 73 73 73 73 73 73 70 72 74 74 73 73 73 73
70 71 71 73 74 74 74 74 75 75 75 75 75 75 75 75 75 75 75 75 76 76 77 77 77 75 73 72 72 72 73 73 72 72 70 70 73 74 74 73 73 73 73
73 74 73 73 73 73 74 74 74 74 74 75 75 75 75 75 75 75 75 75 76 76 77 77 75 73 72 71 71 72 72 72 71 70 67 66 68 73 72 71 71 71 71
70 72 71 72 73 73 73 74 73 73 73 73 74 75 75 75 75 75 75 75 76 76 76 75 74 72 71 70 71 71 73 71 70 67 66 69 68 73 72 71 71 70 70
68 69 70 69 72 73 73 73 73 72 73 73 74 74 74 75 75 74 74 75 75 75 74 73 72 71 70 71 71 71 72 71 69 66 64 64 68 72 72 71 71 70 70
68 69 69 70 70 71 71 71 71 72 72 72 73 73 73 73 73 73 73 73 73 72 71 71 70 70 71 71 70 69 69 71 70 67 65 64 71 72 71 71 70 69 69
67 67 67 69 70 69 69 69 70 71 71 71 71 71 71 71 71 72 72 72 71 71 71 70 70 70 70 70 70 69 68 70 67 67 69 65 71 72 71 70 70 69 69
66 65 65 66 66 67 68 68 69 69 69 70 70 70 69 70 70 71 71 71 71 71 70 70 69 70 70 70 69 68 68 69 66 65 64 67 71 71 71 70 69 69 68
64 64 64 63 64 65 66 69 70 70 70 69 70 69 68 68 68 69 69 70 70 69 69 69 69 69 69 68 69 69 67 64 64 63 61 69 71 71 70 69 69 69 68
61 62 63 62 63 64 67 66 68 69 70 69 69 67 68 66 67 68 68 68 68 68 68 68 68 68 68 64 63 66 64 63 62 61 61 68 71 71 70 69 68 68 67
60 61 63 63 63 64 65 66 67 65 67 67 67 67 67 65 65 65 65 65 64 66 66 66 66 66 65 63 63 62 62 60 59 60 64 68 70 71 70 69 68 68 67
57 58 61 62 63 63 63 64 64 63 66 65 67 68 66 64 64 64 65 64 64 64 64 63 63 63 63 65 64 63 62 59 57 57 60 66 68 70 70 69 68 68 67
55 56 58 59 60 60 61 62 62 63 64 64 66 67 66 66 64 64 64 64 64 63 62 62 63 64 63 64 63 62 61 60 59 57 56 64 66 68 70 69 69 68 67
56 55 57 57 58 60 60 61 60 60 61 62 65 66 67 66 65 64 64 64 63 64 64 64 63 63 62 62 62 62 61 60 60 57 57 57 64 66 68 69 69 68 67
56 57 56 56 58 57 58 60 60 61 64 64 67 68 67 67 66 66 66 64 65 64 65 63 63 61 59 61 60 60 62 60 60 60 57 57 57 62 65 67 67 67 67
57 56 57 59 58 57 58 58 59 59 59 64 66 66 67 68 66 65 63 64 66 63 63 62 61 60 58 58 57 56 57 59 60 61 58 57 56 57 60 64 65 66 66
57 58 57 58 58 58 58 58 60 61 60 66 65 64 66 68 68 65 62 62 64 63 62 63 60 59 57 56 58 56 56 56 58 62 59 56 55 55 55 61 62 62 63
57 58 58 59 60 60 60 62 63 62 65 64 63 63 65 66 67 65 62 62 64 62 60 59 59 57 56 56 64 60 54 55 54 54 56 60 55 55 53 54 53 55 60
57 57 57 57 58 59 59 57 60 59 62 65 63 66 65 64 66 64 62 63 63 61 60 60 58 57 55 54 53 53 52 52 53 53 53 54 55 55 52 51 49 49 53
58 58 57 58 58 59 61 62 62 63 65 67 65 64 64 64 64 63 61 60 60 60 58 57 57 54 54 54 51 49 47 49 50 52 50 52 51 53 54 54 52 51 49
59 60 58 59 60 60 62 64 64 62 60 61 63 62 65 66 66 64 62 61 59 59 57 56 56 55 52 52 53 51 45 44 45 48 49 49 49 49 50 52 53 53 50
61 62 63 62 62 63 65 65 64 63 63 63 62 65 64 66 65 64 63 61 59 60 58 58 59 57 56 54 53 55 51 50 45 44 47 48 48 50 48 48 50 51 51
64 63 64 65 66 67 66 66 63 64 63 62 62 62 62 62 63 62 61 59 59 58 58 58 57 56 56 54 54 52 52 52 48 47 41 45 46 48 48 48 48 48 50
64 64 64 64 66 67 66 65 63 61 63 60 60 61 59 60 58 60 60 59 58 58 57 57 57 56 54 54 53 52 52 50 50 47 41 43 42 46 47 47 46 46 47

GFSSE_sfc_temp_048.txt.gz
Temp
69 73 73 74 74 74 74 74 74 74 75 75 76 76 76 76 75 75 75 76 76 77 77 77 77 77 76 76 75 74 73 73 73 74 74 75 75 74 74 74 73 73 74
68 73 72 73 74 74 74 74 74 75 75 75 75 75 75 75 75 75 75 76 76 77 77 77 76 76 76 75 74 73 73 72 72 73 74 75 74 74 74 73 73 73 73
69 72 72 72 73 74 74 74 75 75 75 75 75 75 75 75 75 75 75 75 76 77 77 77 76 75 75 73 73 73 73 72 72 72 72 69 71 74 74 73 73 73 73
68 71 72 72 72 74 74 74 74 75 75 75 75 75 75 75 75 75 75 75 76 77 77 77 76 75 74 72 73 73 72 71 70 70 67 68 72 73 73 73 73 73 71
67 68 69 68 69 72 74 74 74 74 74 74 75 75 75 75 75 75 74 75 76 77 77 76 75 73 72 71 72 71 71 70 70 68 62 64 68 73 72 71 71 71 71
69 70 70 69 70 72 73 73 73 73 73 73 74 75 75 75 75 74 74 75 76 76 76 75 74 72 71 71 71 71 70 69 67 61 62 68 67 72 72 71 70 70 69
67 69 68 70 72 71 73 73 73 72 73 73 74 74 74 75 74 74 74 74 74 74 74 73 72 71 71 71 71 70 69 68 64 60 61 63 67 72 72 71 70 70 70
66 67 69 70 70 70 71 72 72 72 72 72 73 73 74 73 73 73 73 73 72 72 71 71 71 71 71 71 70 69 68 68 66 63 62 63 70 71 71 70 69 69 69
67 67 67 67 69 66 66 69 70 71 71 71 72 72 72 72 72 72 72 72 71 71 71 71 70 70 71 70 68 68 67 67 62 64 66 63 71 71 71 70 69 68 68
64 66 65 66 66 64 63 66 68 69 69 70 70 70 70 70 71 71 71 71 71 71 70 71 70 70 69 69 69 68 67 66 61 61 61 66 71 71 71 70 69 68 68
63 63 64 65 64 64 63 66 70 69 69 69 69 68 67 68 68 68 69 69 70 69 69 70 69 68 67 67 68 67 66 60 60 60 60 69 71 71 70 70 69 68 68
61 61 63 63 63 63 63 63 66 69 70 68 67 66 66 66 67 68 68 68 68 68 68 69 68 68 66 61 61 64 60 60 59 60 60 68 70 71 70 69 68 68 67
61 61 62 63 62 62 61 62 64 65 66 66 66 66 66 65 65 65 66 66 65 66 65 66 65 64 65 62 61 60 59 59 57 59 63 68 70 70 69 69 68 67 67
59 61 62 62 63 62 62 64 65 64 66 65 66 65 64 63 64 63 61 62 63 63 61 62 61 62 62 62 61 59 59 57 56 57 61 66 68 70 69 69 68 68 67
56 60 61 63 63 63 63 64 63 64 63 64 66 64 64 64 62 60 59 61 63 62 60 61 61 61 61 61 61 61 59 57 57 57 56 65 66 69 70 70 69 68 67
56 56 59 61 62 63 64 62 62 63 63 64 66 65 64 63 62 63 61 62 62 61 61 62 61 60 60 60 60 60 58 58 58 57 56 57 64 66 68 70 69 68 67
55 56 57 58 59 60 60 60 60 62 63 66 65 65 64 65 63 63 62 60 61 62 62 61 61 60 59 60 59 58 58 58 57 57 55 55 56 62 65 67 68 68 67
56 56 58 59 57 58 59 59 59 59 60 64 64 63 63 65 64 62 61 61 62 61 61 60 59 57 56 56 55 55 56 57 57 56 56 55 55 57 61 64 65 67 66
57 57 56 57 57 58 58 58 60 60 61 64 64 63 65 66 65 63 61 60 62 62 60 61 58 58 55 54 55 53 53 54 56 59 55 55 54 53 54 62 63 63 65
58 58 58 57 56 58 60 60 60 59 61 63 64 63 64 64 65 62 61 61 61 60 59 58 58 55 55 54 61 57 51 52 53 52 54 56 53 53 53 54 54 55 61
55 58 58 57 57 59 60 59 59 59 61 62 62 60 62 62 64 62 60 60 60 60 60 58 56 55 52 53 52 51 50 50 51 51 52 51 52 52 51 51 50 50 53
54 55 55 56 57 60 61 62 62 61 61 63 63 61 63 61 62 63 61 60 59 58 57 56 56 52 53 52 51 48 47 49 50 51 49 51 49 51 51 52 50 50 48
54 54 55 56 57 58 59 59 59 57 60 61 63 62 61 62 63 63 61 60 59 59 58 55 54 55 54 53 54 52 45 46 44 47 48 48 48 46 48 50 50 50 48
55 57 57 57 57 58 59 59 58 58 57 61 63 64 62 62 62 63 62 60 59 57 56 57 57 54 54 53 54 55 54 51 48 45 47 46 47 48 46 46 48 49 49
57 57 57 58 59 60 59 60 60 59 61 59 58 59 61 60 61 61 61 59 58 59 57 55 54 54 54 54 54 52 52 51 50 47 44 45 45 46 46 46 46 46 48
59 59 58 57 59 60 60 59 59 59 60 57 57 59 60 61 61 60 60 59 59 59 56 55 55 54 54 52 54 52 51 50 48 46 44 45 46 46 47 46 45 45 45

GFSSE_sfc_temp_051.txt.gz
Temp
71 72 73 74 74 74 74 74 74 74 75 76 76 76 76 76 75 75 75 76 76 77 77 77 76 76 76 75 74 74 74 73 73 74 74 74 74 75 74 73 73 72 74
72 72 72 73 74 74 74 74 74 75 75 76 76 75 75 75 75 75 75 76 76 77 77 76 76 76 75 74 73 73 72 72 72 73 74 75 74 74 74 73 72 72 72
71 72 73 73 73 74 74 74 74 75 76 76 75 75 75 75 75 75 75 75 76 76 76 76 76 75 74 73 72 72 72 72 71 72 72 72 72 74 74 73 73 73 72
71 71 71 73 73 74 74 74 74 75 75 75 75 75 75 75 75 75 75 75 76 76 76 76 76 74 73 72 72 71 71 71 70 69 65 72 73 73 73 72 72 72 71
68 70 70 71 72 73 73 74 74 74 74 75 75 75 75 75 75 75 75 75 76 76 76 76 75 73 72 71 71 71 70 70 69 66 62 63 67 72 72 71 71 71 71
66 68 69 71 72 72 72 73 74 73 73 74 74 75 75 75 75 74 74 75 76 75 75 75 73 72 71 70 70 70 69 68 66 59 61 67 66 72 71 70 70 70 70
65 65 68 69 71 71 72 71 72 73 73 73 73 74 74 74 74 74 74 74 74 74 74 73 71 71 70 70 69 69 68 67 61 58 60 62 67 72 71 70 70 69 69
67 66 68 70 70 71 71 70 70 72 72 72 73 73 74 73 73 73 72 72 72 72 72 72 71 71 70 70 69 68 67 67 63 60 61 62 70 71 71 70 69 69 68
66 67 67 67 67 67 67 67 69 71 72 71 72 72 72 72 72 72 72 71 71 71 71 71 71 70 70 69 69 67 66 66 59 61 64 62 71 71 70 69 69 68 68
65 66 66 63 63 63 63 64 69 70 71 71 71 70 70 70 71 71 71 71 71 71 71 70 69 69 69 68 67 67 66 65 58 59 60 65 71 71 70 69 69 68 67
63 65 65 62 61 61 62 63 66 69 69 68 69 69 68 68 68 67 69 70 70 69 69 69 68 67 68 67 67 66 64 58 58 58 59 69 70 71 70 69 68 68 67
61 63 64 62 61 60 61 60 60 63 67 67 68 66 66 64 65 67 68 68 68 68 68 68 67 66 65 61 64 64 58 58 58 58 59 68 70 71 70 69 68 67 67
61 61 62 62 63 62 60 58 59 61 63 62 63 66 65 65 65 64 65 65 64 65 63 63 63 63 62 60 59 58 60 58 57 59 63 68 70 70 69 68 67 67 66
60 61 61 62 61 61 63 62 61 62 63 61 63 65 64 63 62 60 62 61 60 61 60 59 58 59 60 60 58 58 58 56 56 57 61 67 69 70 70 69 68 67 66
58 60 61 61 61 61 62 62 63 63 64 63 65 64 64 63 62 60 60 60 59 58 59 58 58 58 58 58 58 57 57 56 57 56 56 65 66 69 70 69 69 68 67
57 59 61 61 61 60 62 63 63 63 63 62 65 64 63 63 61 62 59 58 58 58 59 59 58 57 57 57 56 57 56 56 56 55 56 57 64 66 69 69 69 68 67
56 57 60 62 63 62 62 62 63 62 65 64 64 64 61 62 61 61 58 57 58 58 59 58 58 56 55 57 56 55 55 55 55 56 55 54 57 63 65 67 68 68 67
56 57 58 61 60 60 59 59 60 59 63 66 65 63 64 63 61 58 59 59 60 59 59 58 56 54 54 54 53 53 54 54 55 55 54 54 54 56 61 64 66 67 67
57 57 56 58 59 58 58 57 58 61 62 64 64 64 63 65 63 61 59 59 59 58 57 58 55 54 53 52 53 51 52 52 53 57 54 54 53 53 54 62 63 64 65
58 58 57 57 58 58 59 57 57 56 61 63 62 62 64 64 63 61 59 58 59 57 56 56 55 54 53 53 59 55 50 50 51 51 53 55 53 53 53 54 55 56 62
57 57 57 56 56 58 58 57 55 56 58 62 63 62 62 62 63 60 59 59 58 59 58 58 54 53 51 51 51 50 49 49 49 50 50 51 52 52 51 52 51 51 54
55 56 57 57 58 59 59 61 60 58 58 63 63 62 61 61 61 60 59 58 59 57 56 55 55 52 52 51 51 48 47 49 48 49 48 50 49 50 51 51 50 50 50
53 52 57 56 58 60 62 63 60 58 58 57 60 59 60 60 60 60 60 59 57 57 57 54 54 54 53 52 52 51 46 45 48 49 50 50 49 46 47 49 50 50 48
51 53 54 55 56 57 59 59 57 59 57 59 58 59 59 59 59 60 60 59 58 57 56 56 55 54 54 50 50 53 54 52 48 46 50 50 48 47 46 49 50 49 49
53 52 54 55 56 57 56 56 53 53 54 55 56 56 57 59 59 61 60 59 58 57 57 56 54 53 53 53 53 48 51 50 48 47 46 49 48 46 49 50 48 45 49
52 52 53 54 55 57 56 55 54 55 56 55 54 56 58 59 59 59 60 58 58 58 57 57 56 54 54 53 54 52 51 49 45 47 45 47 47 49 50 49 47 48 46

GFSSE_sfc_temp_054.txt.gz
Temp
68 70 73 74 74 75 74 74 75 75 75 76 76 76 76 76 76 76 76 76 76 77 77 77 76 76 76 75 74 74 73 73 73 74 74 75 75 74 73 73 73 73 74
71 72 72 73 74 74 75 74 75 75 75 76 76 75 75 75 75 76 76 76 76 77 77 76 76 75 75 74 73 73 73 73 73 73 74 75 75 74 74 73 72 72 73
70 72 72 73 74 74 75 75 75 75 75 76 75 75 75 75 75 75 75 75 76 77 77 76 75 75 74 73 72 72 72 72 72 72 73 71 72 74 73 73 73 72 72
71 71 71 73 73 74 74 74 75 75 75 75 75 75 75 75 75 75 75 75 75 76 77 76 76 74 73 71 71 71 71 70 70 69 71 72 72 73 73 72 72 72 72
70 69 70 72 73 73 74 74 74 75 74 74 74 75 75 75 75 75 74 75 75 76 76 75 74 73 71 70 70 70 70 70 69 66 64 70 70 72 72 71 71 71 70
67 68 69 72 72 73 74 74 74 74 73 74 74 75 75 75 75 75 74 75 75 76 75 75 73 71 70 70 70 70 69 68 65 61 62 69 69 71 71 71 70 70 69
66 66 68 70 71 72 73 73 73 73 73 73 73 74 74 75 75 74 74 74 74 74 74 73 72 70 70 69 69 69 68 67 61 60 61 63 67 71 71 70 70 69 69
65 64 67 70 71 71 71 71 72 72 72 73 73 73 74 74 73 73 73 73 73 72 71 71 70 70 70 69 68 67 67 67 62 61 62 66 70 71 70 70 69 69 68
65 64 64 65 67 69 68 68 70 70 71 72 72 72 72 71 72 72 72 72 71 71 71 70 70 70 69 69 68 66 66 65 59 61 64 65 71 71 70 69 69 68 68
65 65 64 64 64 63 63 67 68 70 70 71 71 71 70 70 71 71 71 71 71 71 71 70 70 70 69 68 67 66 65 64 59 60 61 68 70 71 70 69 68 68 67
64 61 62 61 61 61 61 63 66 71 71 70 70 69 67 66 66 66 69 70 70 69 69 69 69 68 68 67 67 66 64 59 59 60 61 69 71 71 70 69 68 68 67
62 61 61 60 60 60 62 62 61 63 69 69 69 68 67 64 64 68 68 69 68 68 68 67 68 67 66 63 65 64 59 59 59 60 62 69 70 71 70 68 68 68 67
61 61 61 60 60 60 61 61 60 59 62 68 66 66 64 63 64 63 64 65 64 65 64 64 63 61 59 59 59 58 58 59 58 60 64 68 70 70 70 68 68 67 67
60 61 61 60 60 61 62 63 59 59 60 60 64 65 64 63 62 61 61 61 61 58 59 60 59 57 57 58 58 57 57 57 57 59 63 67 69 70 70 69 68 67 66
59 60 61 61 60 59 61 62 59 60 59 61 61 64 65 62 62 61 60 59 59 59 59 56 57 58 56 57 57 57 57 56 57 58 59 66 67 69 70 70 69 68 67
58 60 60 60 60 61 62 62 61 63 61 61 62 61 63 62 61 61 60 59 58 59 57 57 58 55 55 55 55 56 56 56 56 56 57 60 64 67 68 69 69 68 68
58 58 60 60 59 60 61 61 62 63 64 62 63 62 62 61 60 60 59 57 59 58 57 57 56 55 54 56 55 55 55 55 55 55 56 57 59 63 65 68 68 68 68
57 58 59 61 59 59 60 61 62 62 63 64 63 61 62 63 60 58 58 58 59 58 58 57 55 54 53 53 53 53 53 54 55 55 55 56 56 58 61 64 66 67 67
58 58 57 59 60 60 59 59 60 60 63 64 60 62 62 62 61 62 58 57 59 58 57 57 54 55 53 52 53 52 52 53 54 57 54 55 55 55 56 61 63 64 65
57 58 57 58 59 59 58 57 57 57 59 61 62 61 62 64 62 60 58 58 58 57 55 55 54 53 53 53 58 54 50 51 51 51 53 55 54 55 55 57 59 59 62
56 57 57 57 57 57 56 56 56 56 57 59 61 61 62 63 62 60 59 59 58 57 56 56 54 53 52 52 52 51 50 50 50 50 51 52 53 53 53 54 54 55 57
56 57 57 57 57 58 57 60 60 58 57 57 60 60 61 61 61 60 59 58 57 55 55 54 54 51 52 51 50 48 48 50 49 50 49 51 50 51 52 53 52 52 53
55 55 57 57 58 59 61 58 56 57 57 56 58 59 60 61 61 61 59 58 57 56 55 53 54 53 51 50 51 53 45 46 47 48 48 48 49 49 51 52 51 51 51
55 55 56 58 58 58 61 59 58 56 58 59 59 60 60 60 60 60 60 58 57 56 55 55 54 53 52 50 51 53 52 50 48 48 48 50 50 51 50 49 51 52 52
51 52 51 56 58 59 60 60 59 59 59 59 57 57 57 59 59 59 58 57 57 56 56 55 54 52 53 52 52 50 51 50 47 48 48 48 47 49 50 50 51 50 50
50 51 51 52 54 55 54 55 55 56 55 55 53 54 53 55 55 57 57 56 57 56 55 54 54 53 54 53 53 52 50 50 47 48 47 47 47 49 50 50 48 49 49

GFSSE_sfc_temp_057.txt.gz
Temp
73 79 74 75 75 75 75 75 75 75 75 76 76 76 76 76 76 76 76 76 77 77 78 77 77 77 76 76 75 74 74 74 74 75 75 75 75 75 74 74 75 77 74
76 77 72 74 74 75 75 75 75 75 75 76 76 75 75 76 76 76 76 76 77 77 77 77 77 76 75 75 74 73 73 73 73 74 74 75 75 75 74 73 73 74 73
75 76 77 73 74 74 75 75 75 76 76 76 76 75 75 75 76 75 75 76 76 77 77 77 76 76 74 73 73 73 73 73 72 73 75 79 77 74 73 73 73 73 73
77 78 77 73 73 74 74 75 75 76 76 76 75 75 75 75 75 75 75 75 76 76 77 76 76 75 73 72 71 71 71 72 71 73 79 79 78 73 73 73 73 72 72
75 77 77 72 73 74 74 74 75 75 75 75 75 75 75 75 75 75 75 75 76 77 77 76 75 73 71 71 70 71 70 70 71 75 77 75 76 74 73 72 71 71 71
70 73 73 71 72 73 74 74 74 74 73 74 74 75 75 75 75 75 74 75 76 76 76 75 73 71 70 70 70 70 69 69 72 78 75 73 75 72 72 71 70 70 70
66 71 74 70 72 73 74 74 74 73 73 73 74 74 74 75 74 74 74 74 75 75 75 73 72 70 70 69 70 69 68 69 76 77 77 76 74 72 71 71 70 70 70
65 66 71 72 72 72 73 73 72 72 73 73 73 73 74 73 73 73 74 74 74 73 72 71 70 70 70 69 69 68 67 69 75 76 76 76 71 71 71 70 70 69 69
67 65 67 67 71 69 68 70 70 71 72 72 72 73 72 72 72 73 73 72 72 72 71 70 70 70 69 69 68 66 66 68 75 75 76 76 71 71 71 70 69 69 68
67 67 67 66 64 64 68 67 68 70 71 71 71 71 71 71 71 71 71 71 71 71 71 70 70 69 69 68 67 66 65 68 74 75 76 75 71 71 70 70 69 68 68
64 65 64 64 62 63 64 64 68 68 70 70 71 70 70 75 75 74 72 70 70 69 70 70 69 68 67 67 66 66 67 74 74 75 76 69 71 71 70 69 68 68 67
61 62 62 62 62 62 63 63 64 66 69 69 71 72 73 72 74 74 71 68 68 69 69 69 68 67 70 73 71 67 73 73 74 74 75 69 71 70 70 69 68 67 67
61 62 62 61 61 63 62 63 62 61 64 68 70 71 71 72 72 71 72 73 72 70 74 71 70 74 72 73 72 72 72 72 74 74 71 68 70 70 70 69 68 68 67
60 62 61 61 62 64 65 63 60 61 63 65 69 70 70 70 68 70 71 72 71 72 70 71 71 68 70 71 71 70 71 72 73 74 71 67 69 70 70 69 68 68 67
60 60 60 62 63 64 63 64 60 61 62 63 67 69 68 67 67 70 70 71 72 71 71 69 70 70 70 70 70 70 69 70 70 73 74 66 67 69 70 70 69 68 67
60 60 60 61 62 63 63 64 62 61 61 63 66 67 67 67 67 70 70 70 70 71 71 71 69 70 70 70 68 69 69 70 70 70 73 72 65 67 69 70 69 69 68
61 60 60 60 62 60 63 61 64 61 61 61 66 68 68 69 67 69 70 68 70 70 70 68 68 69 69 70 68 68 69 68 69 69 71 72 70 64 66 68 69 68 68
59 60 61 61 60 60 60 60 63 62 61 61 65 67 68 70 68 67 69 69 70 69 70 69 68 68 68 69 67 68 68 68 68 68 69 70 71 72 66 65 66 67 67
62 59 60 59 59 62 62 60 63 64 64 63 64 64 66 67 67 70 70 67 68 69 68 68 67 67 65 66 67 68 67 67 66 68 67 66 67 69 71 64 63 64 66
61 61 59 60 59 61 60 60 61 62 64 65 64 67 68 69 69 68 67 67 68 68 67 67 65 66 66 66 66 63 62 64 64 65 66 67 68 67 68 67 69 69 62
61 61 59 58 59 59 58 58 58 58 60 64 68 68 66 69 68 66 66 66 67 67 65 66 66 64 63 63 63 62 64 62 63 66 67 68 66 66 66 67 69 71 70
59 60 60 58 59 59 59 60 61 60 57 63 67 67 68 68 69 67 66 65 65 66 64 64 65 63 65 63 64 63 62 64 64 64 65 63 64 62 61 65 66 67 70
59 59 60 59 59 60 61 60 59 59 57 57 61 64 67 66 68 68 67 65 64 64 65 62 64 64 63 62 64 66 59 59 63 63 61 62 59 60 58 59 63 58 62
60 62 61 61 59 60 60 60 57 59 57 62 60 62 63 63 64 66 64 62 61 61 63 62 64 63 63 62 61 62 62 64 61 59 55 62 61 55 62 62 64 63 59
61 61 61 61 59 60 61 63 60 59 59 62 60 58 63 64 63 64 62 63 63 62 64 63 62 61 62 62 62 60 59 53 54 58 56 56 58 55 65 64 61 60 61
61 60 59 61 60 60 60 61 60 59 58 57 57 57 57 59 60 60 60 60 63 65 65 65 64 63 62 63 63 58 54 51 53 54 54 57 61 60 64 62 61 58 53

GFSSE_sfc_temp_060.txt.gz
Temp
84 88 74 74 75 76 75 75 75 75 75 76 76 76 76 76 76 76 76 76 77 78 78 78 77 77 76 76 75 75 74 74 74 74 75 76 76 76 75 75 76 78 74
85 88 73 74 75 76 75 75 75 75 76 76 76 76 76 76 76 76 76 76 77 78 78 77 77 76 76 75 74 74 74 73 73 74 75 75 75 75 74 73 74 76 74
81 85 81 74 74 75 76 75 75 76 76 76 76 76 76 76 76 76 76 76 76 77 77 77 76 76 75 74 73 73 73 73 74 74 76 82 76 74 74 73 73 73 73
82 85 82 73 74 75 75 75 75 76 76 76 76 76 76 76 76 76 75 75 76 77 77 77 76 75 73 72 72 72 72 72 73 74 85 84 80 74 73 73 73 73 72
79 86 85 72 73 74 74 75 75 75 75 75 75 76 76 76 76 75 75 75 76 76 76 76 75 73 72 71 71 71 71 72 73 81 85 82 81 75 73 73 72 72 72
71 83 78 71 73 74 74 74 74 74 74 74 74 75 76 76 76 75 74 75 76 76 76 75 74 72 70 70 70 70 71 71 75 83 82 79 78 73 72 71 71 71 70
71 79 80 70 72 74 74 74 74 74 73 74 74 74 75 75 75 74 74 75 75 75 74 73 72 70 70 70 70 70 70 71 84 83 82 79 76 72 72 71 70 70 70
72 70 75 72 73 72 73 73 72 72 73 73 74 74 74 74 74 74 74 74 74 73 72 71 70 70 70 69 69 68 69 73 82 83 81 79 72 72 72 70 70 69 69
74 69 72 70 71 71 72 71 71 72 72 72 73 73 73 72 72 73 73 73 72 72 71 70 70 70 69 69 68 67 68 71 83 82 81 79 71 71 71 70 69 69 69
72 67 69 67 68 66 66 67 71 72 71 71 72 72 71 71 72 72 72 72 71 71 70 70 69 69 69 68 67 67 68 70 83 83 81 77 71 71 71 70 69 69 68
70 70 70 67 67 65 65 67 71 71 70 71 71 70 70 78 77 74 74 70 70 69 69 69 69 68 67 67 67 67 68 82 82 82 79 69 71 71 70 69 68 68 68
64 64 67 65 66 65 64 64 67 68 69 71 72 76 80 77 76 78 73 69 69 69 69 68 67 67 71 77 75 69 82 80 82 81 78 69 71 71 70 69 68 68 67
67 63 67 66 66 66 64 64 63 65 64 66 68 73 75 75 75 77 76 75 75 71 76 74 73 80 79 79 78 80 78 79 81 80 73 68 70 71 70 69 68 67 67
65 67 65 70 67 66 65 63 63 63 64 64 66 71 71 72 72 76 78 78 76 79 77 77 79 79 78 78 78 77 78 80 81 80 73 67 69 70 70 70 69 68 67
64 65 65 65 65 65 63 62 61 61 63 64 65 70 73 74 71 77 78 78 79 81 79 79 79 77 77 77 78 77 77 78 78 80 77 66 67 69 70 70 69 69 67
65 65 63 63 65 67 66 64 61 61 63 63 64 72 73 73 73 76 75 78 79 80 81 80 78 78 78 78 77 77 77 77 78 78 79 74 66 67 69 70 69 69 68
65 66 63 62 65 68 67 63 63 61 62 62 64 72 72 72 72 74 76 76 79 80 79 79 78 79 79 79 76 77 77 76 77 76 78 78 73 64 66 68 69 69 68
64 62 64 63 63 67 68 62 64 61 61 63 65 72 71 70 70 71 73 75 77 78 78 78 78 77 77 78 76 77 77 76 75 75 77 77 77 77 67 66 67 68 68
64 64 61 62 61 61 61 61 63 61 61 61 65 74 74 72 72 72 73 73 76 77 76 77 76 77 75 76 76 76 76 76 75 75 74 74 74 76 77 64 64 65 66
70 62 62 61 61 62 61 60 62 62 61 61 62 68 73 76 74 74 75 73 76 76 76 76 74 75 75 75 76 74 74 74 75 74 73 74 74 73 75 75 72 71 63
67 66 60 59 60 60 58 59 59 60 61 60 62 66 70 75 74 74 75 74 76 76 75 73 72 71 72 74 72 70 70 71 70 72 73 75 75 74 74 75 74 77 72
69 67 62 59 60 59 63 61 62 64 63 62 63 65 70 73 74 72 70 73 74 75 73 71 70 71 73 72 70 71 65 68 71 72 74 73 72 75 74 72 71 71 73
66 63 68 65 60 60 61 63 62 61 58 60 61 65 68 74 74 73 69 74 73 73 71 70 70 69 69 69 71 71 67 65 72 73 70 72 70 71 72 71 64 71 73
69 68 69 67 64 62 62 61 61 58 60 61 65 66 71 71 72 73 70 73 71 71 71 71 71 69 71 68 67 70 72 70 67 62 71 67 70 61 65 65 70 72 72
71 68 66 68 65 61 62 62 60 59 61 64 64 66 69 66 69 69 69 71 69 69 69 69 67 65 69 68 70 70 68 69 66 60 54 61 61 66 68 67 71 72 72
72 70 66 65 65 61 61 62 61 61 60 60 60 60 61 65 67 67 70 70 70 69 67 62 65 68 69 69 71 70 69 66 65 62 51 51 54 63 63 71 71 71 71

GFSSE_sfc_temp_063.txt.gz
Temp
92 83 74 75 75 75 75 74 74 75 75 76 76 76 76 76 76 76 76 76 77 78 78 77 77 77 77 76 75 75 74 74 74 75 75 76 76 76 76 75 76 77 74
91 86 73 75 75 75 75 74 74 75 75 76 76 76 76 76 76 76 76 76 77 77 77 77 77 77 76 75 74 74 74 73 73 74 75 75 75 75 74 73 73 75 73
87 86 82 74 75 75 75 75 75 75 76 76 76 76 76 76 76 76 76 76 77 77 77 77 76 76 75 73 73 73 74 74 74 75 75 77 76 74 74 73 73 73 72
87 86 86 73 75 75 75 75 75 76 76 76 76 76 76 76 76 76 75 75 76 77 77 77 76 75 73 73 73 73 73 73 74 75 84 81 78 74 73 73 73 72 72
84 86 83 73 73 75 75 74 75 75 75 75 75 76 76 76 76 75 75 75 76 77 77 77 75 73 72 71 71 72 72 73 73 79 84 81 77 74 73 73 73 72 72
83 86 74 72 73 74 74 74 75 74 74 74 75 75 75 76 76 75 75 75 76 76 76 75 73 72 71 71 71 72 72 73 76 85 81 78 76 72 72 71 71 71 71
82 82 76 71 72 73 75 75 75 74 73 74 74 74 75 75 75 74 74 75 75 75 75 73 71 71 70 71 71 71 71 71 84 83 80 77 74 72 72 71 71 70 70
79 76 79 74 72 72 72 74 75 73 73 73 73 74 74 74 74 74 74 74 73 73 72 71 70 70 70 70 70 70 70 71 83 82 79 77 72 72 72 71 70 69 69
78 73 75 76 70 67 66 67 69 71 72 72 73 73 73 72 73 73 73 73 72 71 70 70 70 70 70 69 69 68 69 71 83 81 79 76 71 71 71 70 70 69 69
74 70 72 72 68 69 67 66 66 68 70 71 72 72 71 72 72 72 72 71 71 70 70 70 69 69 69 68 68 68 69 71 83 82 79 75 71 71 71 70 69 69 68
73 73 72 70 70 68 68 66 66 68 69 70 71 70 70 79 76 76 73 70 70 69 69 69 68 68 67 67 68 68 68 84 84 81 77 70 71 71 70 70 69 68 68
68 71 70 70 69 70 69 68 66 66 68 71 76 77 82 78 79 79 72 69 68 68 68 68 67 66 70 76 76 70 80 83 82 79 75 69 71 71 70 69 68 68 67
71 67 70 70 72 70 66 66 66 64 67 71 72 77 79 76 77 74 73 73 71 71 74 72 71 76 78 78 78 80 80 82 82 79 72 69 70 71 70 69 68 68 67
70 64 72 73 73 70 67 63 64 63 64 66 68 70 69 71 73 76 73 75 74 76 74 74 76 80 79 79 80 78 80 82 81 77 71 67 69 70 70 70 68 68 67
69 65 67 71 70 71 69 67 64 64 62 63 64 66 68 69 75 75 73 75 76 78 76 76 79 79 79 79 79 79 79 80 79 78 74 66 68 70 70 70 69 68 67
70 68 69 68 70 69 67 67 66 63 64 64 63 64 65 71 71 73 72 75 77 79 79 79 80 79 79 79 78 78 79 79 80 78 76 72 66 68 69 70 70 69 68
71 68 66 66 65 65 65 63 62 62 62 62 63 64 65 70 71 75 77 78 79 81 80 81 79 79 79 80 77 78 79 78 79 79 77 75 71 65 66 68 69 69 68
71 66 65 66 64 66 66 64 63 61 62 62 62 63 67 71 72 73 76 77 79 79 80 79 79 78 79 78 77 77 78 78 77 78 79 78 75 75 66 66 67 68 68
72 72 65 64 65 65 66 65 63 61 61 61 62 64 70 73 72 73 75 77 78 78 77 78 78 78 76 77 77 78 78 78 76 78 77 77 76 76 75 65 64 65 66
73 69 65 64 64 63 63 62 63 61 61 61 62 66 71 71 71 71 74 74 76 73 71 75 76 77 77 77 79 77 77 77 77 76 76 77 77 75 76 73 69 68 63
74 69 64 62 61 60 60 61 60 59 59 60 62 67 71 71 73 73 73 71 72 71 71 73 75 73 74 76 75 74 74 74 74 75 76 75 74 74 74 75 74 73 69
74 68 62 61 60 59 61 62 64 61 59 61 61 63 70 72 75 74 74 71 71 74 73 72 71 72 74 74 71 70 65 69 71 72 74 73 73 75 74 74 73 74 75
74 70 68 62 60 60 60 61 62 61 60 58 59 60 64 67 75 74 72 72 71 73 70 70 72 72 71 72 72 70 65 65 69 72 70 73 72 72 72 74 73 73 73
74 73 72 68 62 62 62 62 61 63 60 64 61 61 62 63 72 72 67 66 71 72 71 70 73 71 71 68 70 70 71 70 62 61 71 70 72 65 63 62 67 72 72
76 72 72 68 66 64 64 62 62 62 64 65 64 63 64 64 67 66 68 66 65 71 70 69 69 69 71 65 67 68 68 69 69 64 61 66 68 69 67 60 62 69 72
77 74 72 68 67 65 62 62 62 61 64 61 62 62 64 66 67 68 68 66 64 65 67 68 68 68 68 69 66 70 68 67 66 65 62 64 62 62 60 59 57 62 72

GFSSE_sfc_temp_066.txt.gz
Temp
80 78 74 75 75 75 74 74 74 74 75 76 76 76 76 76 76 76 76 76 76 77 78 78 78 77 77 76 75 75 75 74 74 75 75 76 76 76 75 75 74 74 74
82 80 73 75 75 75 75 74 74 75 75 76 76 76 75 75 76 76 76 76 77 77 77 77 77 77 76 75 74 74 74 73 73 74 75 75 75 75 74 73 73 73 73
85 78 78 74 75 75 75 75 75 75 76 76 76 75 75 76 75 76 76 76 76 77 77 77 77 76 75 74 73 74 74 74 74 74 75 73 73 74 74 73 73 73 73
87 81 80 74 75 75 74 74 75 75 76 76 75 75 75 76 75 75 75 75 76 76 77 76 76 75 74 73 73 73 73 73 74 74 74 75 75 74 74 73 73 72 72
84 86 81 73 74 74 74 74 74 75 75 75 75 75 76 76 76 75 75 75 76 76 76 76 75 74 72 72 72 72 73 73 73 77 72 72 72 73 73 73 72 72 71
83 85 72 73 73 74 74 74 74 74 74 74 75 75 76 76 75 75 74 75 76 76 76 75 74 72 71 71 72 72 72 73 72 74 72 71 71 72 72 71 71 71 71
82 80 75 71 72 73 73 74 74 74 73 73 74 75 75 75 75 74 74 75 75 75 74 73 72 71 71 71 71 71 71 71 75 72 70 69 70 72 72 71 70 70 70
80 77 77 73 72 72 71 70 70 72 73 74 73 74 74 74 73 74 74 74 73 73 72 71 70 71 71 70 70 70 69 71 76 72 70 68 71 72 71 71 70 69 69
77 75 74 74 72 68 67 67 66 65 67 73 72 73 73 72 72 73 73 73 72 71 70 70 70 70 70 70 69 69 69 72 73 71 72 68 71 71 71 70 69 69 69
74 72 71 71 69 68 67 67 66 63 64 69 71 71 71 71 72 72 71 71 71 70 70 70 69 69 69 68 69 69 69 73 73 71 69 68 71 71 71 70 69 69 68
72 72 71 70 69 69 67 67 66 67 66 66 71 70 69 73 72 71 71 69 69 69 69 69 68 67 67 68 69 68 68 74 73 70 68 69 71 71 70 69 69 68 68
70 69 70 69 68 68 68 66 65 64 64 62 71 71 73 72 71 72 69 68 68 68 68 67 67 67 69 66 66 67 67 75 71 69 67 69 71 71 70 69 68 68 67
71 69 69 69 69 69 68 67 65 63 64 66 69 71 72 72 69 67 67 67 66 67 67 67 66 68 67 67 67 68 71 74 70 69 67 68 70 71 70 69 68 68 67
69 68 69 69 68 67 66 65 65 63 64 65 67 70 69 68 67 67 68 68 67 67 66 66 66 67 67 69 69 70 71 74 69 67 66 67 69 71 70 69 68 68 67
69 66 68 70 70 68 67 64 63 63 63 64 66 67 67 69 67 69 68 68 69 68 68 67 67 69 68 69 69 70 71 72 69 68 66 66 67 69 70 70 69 68 67
69 67 67 68 69 69 67 66 64 63 62 62 63 64 66 67 67 69 68 69 69 69 70 69 71 68 68 69 68 70 73 73 69 67 66 64 65 67 69 70 69 68 67
69 69 66 66 67 66 67 66 64 63 63 62 62 63 64 66 67 68 67 67 70 70 70 69 72 68 67 70 68 68 69 70 71 68 67 65 64 65 66 68 69 69 68
71 67 65 66 64 64 64 63 63 63 63 62 62 62 63 66 68 66 66 68 71 71 71 69 68 67 66 66 65 66 67 68 69 69 68 67 66 67 64 65 67 68 68
73 69 65 65 65 63 63 62 62 61 62 61 62 62 63 65 67 66 64 66 72 69 70 70 67 67 65 65 66 65 65 65 66 71 71 68 66 67 65 64 64 65 66
73 66 64 64 64 63 63 61 61 60 61 62 61 61 63 66 67 67 66 65 66 66 67 67 66 66 66 65 73 68 64 65 65 64 65 69 67 67 67 66 64 64 63
70 69 64 62 61 60 60 59 58 57 58 59 60 61 63 67 68 67 66 67 67 66 66 66 65 65 64 66 64 61 62 64 63 63 64 64 65 66 65 65 64 64 63
69 65 62 61 60 61 61 62 62 60 59 60 60 62 64 66 67 67 66 65 66 66 64 64 64 63 64 65 62 60 55 58 61 63 62 63 62 63 65 66 65 65 65
69 66 64 61 60 60 62 60 60 59 59 58 59 60 65 66 67 67 66 66 64 65 63 64 64 64 61 62 63 61 55 53 57 60 60 60 60 60 63 64 64 65 64
71 66 65 62 60 61 61 61 59 58 57 60 60 61 64 65 67 69 68 66 66 65 63 63 66 64 63 61 60 64 61 61 56 53 59 60 60 61 60 60 62 66 67
72 68 65 63 60 61 61 62 61 60 60 62 61 61 61 61 64 64 68 64 64 66 63 63 63 64 63 60 60 60 59 59 58 54 51 55 59 59 58 60 60 58 62
73 69 67 64 62 62 61 62 61 61 61 60 60 59 60 62 63 62 66 63 62 62 63 62 63 61 61 62 60 60 60 58 57 55 52 54 54 55 56 56 55 57 59

GFSSE_sfc_temp_069.txt.gz
Temp
73 74 74 75 75 74 74 74 74 74 75 75 76 76 76 76 76 76 76 76 76 77 78 78 77 78 77 76 76 75 75 75 75 75 76 76 76 75 75 74 74 74 75
74 74 73 74 75 75 74 74 74 74 75 75 75 75 75 75 75 76 76 76 77 78 78 77 77 77 77 75 74 74 74 73 73 74 75 76 75 75 74 73 73 73 74
74 73 75 74 74 75 75 74 74 75 76 76 75 75 75 75 75 75 76 76 76 77 78 78 77 77 75 74 74 74 74 73 73 73 73 73 73 74 74 73 72 73 73
75 74 73 74 74 74 74 74 74 75 76 75 75 75 75 75 75 75 75 75 76 76 77 77 77 76 74 74 73 73 73 73 73 73 73 73 74 74 73 73 73 73 73
77 76 74 73 73 74 74 74 74 75 75 75 75 75 75 75 75 75 74 75 76 76 77 77 76 74 73 72 73 73 73 73 72 72 71 71 71 73 73 73 72 72 71
76 79 72 72 73 73 74 74 74 74 74 74 74 75 76 75 75 75 74 75 76 76 76 76 74 73 71 71 71 72 72 72 70 68 71 71 72 72 72 72 71 71 71
72 71 71 71 72 73 73 74 74 73 73 73 74 74 74 75 75 74 74 75 75 75 75 74 73 72 71 71 71 71 71 71 68 66 66 70 70 72 72 71 71 71 70
70 70 71 71 72 73 74 73 72 73 73 73 73 74 73 74 74 74 74 74 74 73 72 72 72 71 71 71 70 69 71 70 69 66 65 70 71 72 72 71 70 69 69
69 69 69 69 68 68 68 68 67 68 67 67 73 72 72 72 72 73 73 73 72 71 71 71 71 70 70 70 70 69 70 69 67 66 68 69 71 71 71 70 69 69 69
67 67 67 66 65 64 65 66 66 67 68 65 65 70 70 71 72 72 71 71 71 70 70 70 70 70 69 69 69 69 69 69 67 64 63 68 71 71 71 70 69 69 69
66 65 66 65 65 64 64 65 67 68 68 67 67 64 67 72 71 70 70 70 69 69 69 69 69 68 68 69 68 68 69 68 66 65 62 69 71 71 71 69 69 68 68
64 64 65 65 64 64 65 63 62 64 64 64 64 64 68 70 69 69 69 68 68 68 68 68 68 67 67 64 64 67 69 67 66 65 63 69 71 71 70 69 69 68 68
64 64 64 64 64 62 62 62 61 61 61 60 61 61 68 69 66 67 66 67 65 67 65 66 66 65 65 64 64 64 67 66 65 66 66 68 70 71 70 69 69 68 67
62 63 64 64 64 63 64 62 62 61 61 60 60 61 67 66 66 65 64 64 65 64 62 61 62 64 64 65 66 65 67 65 65 64 65 67 69 70 70 69 68 68 67
61 62 63 64 65 64 62 61 61 62 62 62 65 66 66 66 65 65 63 64 64 64 61 60 61 65 64 64 66 68 66 65 65 64 62 66 67 69 70 70 69 68 67
61 61 63 65 66 63 61 61 62 61 62 63 64 64 66 66 65 65 63 64 64 65 64 62 61 62 64 64 65 68 66 65 65 63 62 64 65 67 69 69 69 68 68
61 62 61 64 65 64 63 60 60 61 63 63 63 64 66 66 65 65 64 63 64 64 64 62 62 64 63 65 65 67 67 65 64 64 62 61 63 64 66 68 68 68 68
62 62 63 65 62 62 61 61 60 61 62 63 62 63 64 67 67 65 64 65 65 65 65 64 63 65 62 63 61 64 67 65 64 64 64 62 60 64 64 65 67 68 67
62 64 62 62 61 61 59 61 60 61 62 62 62 63 63 65 67 66 64 65 67 65 63 65 65 65 63 61 62 61 62 65 63 65 63 63 61 62 62 64 64 64 66
62 62 61 62 62 60 60 60 61 61 60 61 62 62 63 64 65 65 65 63 63 64 61 66 67 62 63 64 70 64 60 61 64 63 63 64 63 63 63 63 62 63 63
61 60 62 61 61 60 59 58 58 58 60 60 61 62 62 63 65 66 65 63 63 64 61 66 65 63 60 62 59 57 58 59 60 61 63 63 62 63 62 63 62 63 63
60 60 61 60 60 60 60 60 60 59 60 61 61 61 62 63 65 65 64 63 64 62 60 61 62 59 62 61 59 57 55 58 60 59 58 61 61 63 63 63 62 63 63
60 59 60 60 60 60 61 60 59 58 58 58 58 59 61 63 66 66 65 64 63 63 61 61 62 62 60 60 63 59 53 53 54 55 56 56 58 56 59 61 62 62 62
60 59 60 60 60 61 61 60 58 57 55 58 59 60 63 62 63 64 65 65 64 62 60 59 62 61 60 59 59 62 60 58 52 50 54 55 56 57 56 57 60 63 63
62 59 58 59 60 61 60 60 59 59 60 60 60 61 62 61 61 62 62 61 60 60 59 60 60 60 61 57 58 57 57 56 55 51 49 53 54 55 57 59 60 61 64
61 59 58 58 59 60 60 60 59 58 58 56 56 58 59 58 59 61 62 61 61 60 60 59 60 60 59 59 59 58 56 55 53 52 50 50 52 53 54 55 56 58 58

GFSSE_sfc_temp_072.txt.gz
Temp
72 73 73 74 74 74 74 73 74 74 75 75 76 76 76 76 76 76 76 76 77 78 78 78 77 78 78 77 76 75 75 75 75 75 75 76 76 76 75 74 74 74 75
72 73 72 74 74 74 74 74 74 75 75 76 75 75 75 75 75 76 76 76 77 78 78 77 78 77 77 76 74 74 74 74 74 74 75 76 75 75 75 73 73 73 74
72 73 73 73 74 74 74 74 74 75 75 75 75 75 75 75 75 75 75 76 77 77 78 78 77 77 76 74 73 73 73 73 73 73 73 72 72 74 74 73 73 73 74
73 72 73 73 74 74 74 74 74 75 75 75 75 75 75 75 75 75 75 75 76 77 78 78 77 76 74 73 73 73 72 72 72 73 72 72 73 74 74 73 73 73 73
72 73 73 73 73 74 73 74 74 75 74 74 75 75 75 75 75 75 75 75 76 77 77 78 77 74 73 72 72 72 72 71 71 71 71 71 71 73 73 72 72 72 72
72 73 71 72 72 73 73 73 74 74 73 73 74 75 75 75 75 75 74 75 76 76 77 76 75 73 72 71 72 71 70 70 70 70 70 71 71 73 72 71 71 71 71
69 71 71 71 72 73 73 74 73 73 73 73 74 74 75 75 75 74 74 74 75 75 75 75 73 71 71 71 71 70 69 68 66 67 69 69 70 71 72 71 71 71 71
68 68 69 71 71 72 73 73 73 72 73 73 73 74 74 74 73 73 74 74 74 73 73 73 71 71 71 70 70 69 68 69 67 64 69 68 70 72 72 71 71 70 70
68 68 68 68 69 69 69 69 69 71 71 69 69 71 72 71 72 73 73 73 73 72 72 71 71 70 71 70 69 68 67 67 65 65 70 69 71 72 71 71 70 70 69
66 66 66 66 64 64 65 67 67 69 67 67 67 66 67 69 70 71 72 72 71 71 71 71 70 70 69 69 68 67 67 67 62 61 69 69 71 71 71 70 70 69 69
65 64 64 64 65 64 64 66 68 68 68 67 67 66 66 66 70 71 70 70 70 69 69 69 69 69 68 69 68 67 67 65 64 63 68 69 71 71 71 70 69 69 69
62 62 63 63 63 64 65 65 64 66 65 65 64 65 63 61 68 69 69 69 68 68 68 68 68 68 67 67 68 67 65 65 64 62 68 69 71 71 71 69 69 69 68
62 62 63 62 62 64 63 63 62 61 62 61 63 63 61 63 66 67 66 67 66 67 65 66 66 65 63 62 65 64 64 64 64 64 66 69 70 71 70 69 69 68 68
62 62 62 62 62 60 61 61 60 61 60 60 61 63 62 64 65 66 66 65 65 65 62 62 61 61 61 63 66 64 63 63 62 63 65 67 69 70 70 69 69 68 67
60 61 62 62 63 63 62 60 60 59 60 60 61 62 65 66 66 66 65 63 64 63 63 60 60 60 62 64 66 64 62 62 62 62 64 66 67 69 70 70 69 68 67
60 60 61 62 64 64 60 60 61 61 62 61 60 62 64 67 66 65 64 61 61 61 62 63 60 60 61 63 65 64 63 62 62 61 62 64 65 67 69 69 69 68 68
60 60 60 61 64 62 60 60 61 60 62 62 63 63 64 66 63 62 61 61 61 61 59 58 58 59 60 62 65 64 63 62 62 61 60 61 63 64 66 68 68 68 68
60 60 60 63 60 60 60 60 61 62 62 63 64 64 64 65 64 62 61 61 63 61 62 61 58 58 59 59 62 63 62 62 62 61 61 60 59 63 64 65 66 67 67
60 60 60 62 61 59 61 61 61 61 62 62 63 63 64 65 64 63 62 62 62 62 61 61 57 58 57 57 62 63 62 59 60 63 61 60 58 59 59 63 64 64 66
60 61 62 62 61 57 58 60 61 60 60 60 62 63 64 65 66 63 63 62 61 63 60 61 58 58 60 58 66 61 62 60 59 59 60 61 60 60 60 59 61 62 63
59 59 60 60 60 59 59 59 59 59 59 60 61 62 61 64 66 65 65 62 63 61 62 63 60 61 59 58 57 55 56 59 60 59 60 60 60 60 60 60 60 61 62
58 59 59 59 60 60 60 60 60 59 60 61 61 61 62 63 65 66 66 63 64 62 59 60 59 59 59 60 60 56 52 55 57 59 60 60 59 61 60 61 61 61 61
58 58 59 59 60 60 60 59 57 58 58 58 59 59 60 61 63 64 65 64 62 63 60 59 59 61 56 57 62 57 51 52 55 57 56 59 58 58 60 60 60 61 61
58 59 59 59 59 60 60 59 57 57 56 59 59 60 60 60 61 62 63 63 61 62 60 59 60 60 59 59 56 60 59 57 52 51 55 55 55 57 57 58 60 61 61
60 59 58 58 58 59 60 59 58 57 59 59 59 59 60 59 60 60 61 62 60 60 59 59 59 59 58 55 55 55 57 56 55 51 48 51 51 53 56 57 59 60 61
58 60 57 57 57 58 60 59 59 57 58 57 57 57 58 60 59 60 61 61 60 60 59 59 60 59 59 58 57 57 56 54 53 51 48 48 50 53 55 57 55 58 60

GFSSE_sfc_temp_075.txt.gz
Temp
71 71 73 74 74 74 74 74 74 74 75 76 76 76 76 76 76 76 76 76 77 78 79 78 78 78 78 77 76 75 75 74 75 75 75 76 76 76 75 74 74 73 75
72 72 72 73 74 74 74 74 74 75 75 75 76 76 76 76 76 76 76 76 77 78 78 78 78 78 77 76 75 74 74 73 73 74 75 76 76 75 75 74 73 73 74
71 72 72 73 73 74 74 74 74 75 75 75 75 75 76 76 76 75 75 76 77 77 78 78 78 77 76 74 73 73 73 73 73 73 73 73 73 75 74 73 73 74 74
72 71 72 73 73 73 74 74 74 75 75 75 75 75 75 75 75 75 75 75 76 77 78 78 77 76 74 73 72 72 72 72 72 72 71 71 73 75 75 74 74 74 74
70 73 72 72 72 73 73 73 74 74 74 74 75 75 75 75 75 75 75 75 76 77 78 78 76 74 72 72 72 72 71 71 71 70 68 69 71 74 74 73 73 73 72
69 72 71 71 72 73 73 73 73 73 73 73 74 75 75 75 75 75 74 75 76 78 78 77 75 73 71 71 71 71 70 70 69 68 68 71 71 73 72 72 71 72 71
67 69 70 70 72 73 73 73 73 73 73 73 74 74 74 75 75 74 74 75 76 76 76 74 72 72 71 70 70 70 69 69 67 68 69 69 70 72 72 72 71 71 71
67 68 69 71 71 72 72 72 71 71 72 73 73 73 74 74 73 73 73 74 74 74 73 72 71 71 70 70 69 68 68 68 67 68 68 67 70 71 71 71 71 71 70
67 66 67 68 71 71 70 70 70 70 72 72 71 70 70 70 71 72 73 73 73 72 72 71 71 70 70 69 68 67 67 68 65 68 69 68 71 71 71 72 71 70 70
65 65 65 65 65 66 67 67 68 69 68 68 67 65 65 68 70 71 72 72 71 71 71 70 70 70 70 68 68 67 66 66 62 63 68 69 70 72 71 71 70 70 69
63 64 64 63 63 63 66 67 68 69 67 68 67 66 65 66 67 68 69 70 70 69 70 70 69 69 68 68 67 66 66 63 62 61 67 69 71 71 71 71 70 70 70
61 61 64 64 62 62 65 66 66 66 66 66 66 66 66 66 66 68 67 69 68 68 68 69 68 68 68 66 66 66 63 62 61 60 65 68 72 72 71 70 69 69 68
61 61 63 64 63 63 63 63 64 65 64 64 64 64 64 63 65 66 66 66 65 68 67 67 65 66 66 64 62 62 62 62 59 60 67 69 71 71 70 70 69 69 68
61 61 63 62 63 63 63 62 61 63 63 62 62 64 61 60 63 66 65 64 64 64 62 64 62 64 64 64 63 62 61 61 58 60 65 68 69 71 71 70 69 69 68
61 60 63 63 61 60 60 61 60 61 61 62 62 62 61 62 63 65 65 64 64 64 62 62 61 64 63 63 62 62 61 61 60 60 60 66 67 70 70 70 69 68 68
61 60 62 63 64 61 62 60 61 60 61 61 61 62 62 64 65 66 65 63 63 63 61 61 61 61 63 63 61 61 62 61 59 58 59 63 65 67 69 70 69 69 68
61 60 60 63 62 61 61 60 61 61 62 60 61 61 63 64 65 65 65 61 60 60 60 58 59 60 61 63 61 62 62 61 59 58 58 59 62 64 66 68 68 68 68
59 59 60 62 60 59 58 60 61 61 61 62 61 61 62 64 66 64 63 60 60 58 58 60 59 59 59 62 60 61 61 62 60 58 58 58 58 61 63 65 66 67 67
60 59 59 59 58 59 58 60 61 61 62 62 63 62 63 63 64 62 61 61 59 59 59 59 55 59 57 58 59 58 57 59 60 62 58 57 57 58 58 63 63 64 66
59 60 59 59 59 60 60 60 60 60 61 62 63 63 61 62 62 61 61 59 59 60 55 56 57 56 57 59 63 58 55 56 59 59 59 59 57 57 57 59 60 61 63
59 59 59 58 57 59 59 59 58 58 59 60 62 63 62 61 61 62 62 59 61 59 59 58 56 57 54 55 54 53 53 54 55 56 57 58 58 58 57 59 59 59 61
59 59 59 58 58 60 60 60 60 59 59 60 61 61 63 61 61 63 63 61 62 61 57 57 58 56 58 58 56 55 50 54 55 57 57 58 58 60 60 59 59 59 59
57 57 58 57 57 59 61 59 58 58 59 58 59 60 61 63 62 61 64 63 62 62 60 60 59 61 57 55 59 56 50 50 52 54 55 57 57 57 60 60 60 60 59
58 59 59 60 58 58 59 59 58 58 57 59 60 60 60 62 63 62 62 62 63 61 60 59 59 61 60 58 54 58 58 56 52 49 53 57 58 57 58 58 60 60 60
60 60 61 60 61 59 57 59 58 57 58 58 59 59 59 59 60 61 61 59 59 60 60 59 57 57 57 58 55 53 55 54 54 51 49 52 53 56 59 57 58 59 60
61 60 59 58 58 58 57 57 57 58 57 55 57 58 58 58 57 59 59 60 60 59 58 58 58 58 56 57 60 56 55 54 52 52 50 50 52 53 56 57 56 58 59

GFSSE_sfc_temp_078.txt.gz
Temp
69 70 73 74 75 74 74 74 74 74 76 77 77 76 77 76 76 76 76 76 77 78 79 78 78 78 78 78 77 76 75 75 75 76 75 77 77 76 75 74 74 75 75
70 72 72 74 74 74 74 74 74 75 76 76 76 76 76 76 76 76 76 76 77 78 79 78 78 78 78 76 75 74 74 74 74 74 75 76 76 76 75 74 74 74 75
70 71 72 73 74 74 74 74 74 75 76 76 76 76 76 76 76 76 76 76 77 78 78 78 78 78 76 74 73 73 73 73 73 74 74 73 74 75 75 73 73 74 74
70 72 71 72 73 74 74 74 74 75 76 76 76 76 76 76 76 75 75 75 77 78 78 78 78 76 74 73 73 73 73 72 72 73 73 73 74 75 75 75 74 75 74
69 72 70 72 72 73 73 74 74 75 75 75 75 76 76 76 76 75 75 75 76 77 78 78 77 75 73 72 71 72 71 71 71 70 69 69 71 74 75 74 74 73 73
70 71 70 71 72 73 73 73 74 74 73 74 74 75 75 75 75 75 74 75 76 77 77 77 75 73 71 71 71 71 70 70 68 67 70 71 71 74 74 73 72 72 72
68 71 71 70 71 73 73 73 73 73 72 73 74 74 75 75 75 74 74 75 75 76 76 75 73 71 71 70 70 70 69 69 67 66 67 69 71 73 73 72 71 71 71
66 67 69 71 71 72 72 72 71 72 72 72 73 73 74 74 73 73 74 74 75 75 73 72 71 71 70 70 69 69 68 68 67 67 68 69 71 72 72 71 71 70 70
66 66 67 70 71 70 70 70 70 70 71 71 71 71 69 70 71 73 73 74 73 73 71 71 70 70 70 69 68 67 67 68 67 68 69 69 71 72 72 71 71 71 71
64 65 65 69 70 70 70 69 67 69 69 68 68 67 67 66 69 71 70 71 73 71 71 70 70 70 69 68 67 67 67 67 66 67 67 69 71 72 72 72 70 70 69
63 63 63 64 66 67 68 68 68 69 68 68 68 67 66 66 66 68 68 70 71 69 70 70 70 69 68 67 67 66 67 64 65 64 65 69 71 72 71 70 70 70 70
62 62 64 64 62 62 65 65 67 67 66 66 65 65 64 65 65 67 67 68 69 68 69 69 68 67 66 64 65 66 64 63 63 62 64 69 70 71 71 70 70 70 69
62 60 64 64 62 63 64 65 66 65 64 65 64 64 64 64 66 66 65 66 66 67 66 66 66 65 63 63 59 61 62 62 60 61 66 69 71 72 71 70 69 69 69
60 60 63 64 64 63 63 64 63 64 64 64 65 64 63 64 65 64 64 64 64 65 63 62 64 62 62 62 61 61 61 60 59 60 67 67 70 70 70 70 69 69 68
59 60 63 63 64 63 63 62 62 63 63 64 64 64 63 63 63 64 64 63 64 62 62 59 61 61 60 61 61 61 61 60 59 60 64 66 67 69 70 70 69 70 69
61 60 63 63 64 61 61 61 61 62 62 62 62 64 62 62 62 63 63 63 62 62 61 60 62 62 61 61 60 61 61 59 60 60 61 65 65 67 69 70 70 70 69
61 60 63 63 62 59 60 61 61 60 61 60 61 62 62 62 62 65 64 62 62 63 61 58 59 61 61 62 60 61 60 60 60 59 60 60 63 65 66 68 69 69 68
59 59 64 65 61 58 59 61 61 61 61 60 60 62 62 63 65 65 64 62 61 62 62 60 59 59 59 58 58 59 60 60 60 59 59 59 60 62 64 65 67 67 68
60 59 61 62 60 57 57 60 61 61 61 62 61 61 62 64 65 64 63 61 60 61 62 60 58 60 59 58 58 58 57 59 59 61 59 58 59 59 60 63 64 64 66
58 59 61 61 59 58 59 60 60 60 61 61 62 61 62 62 64 62 61 59 60 61 58 59 57 55 58 58 60 56 55 56 58 58 59 60 59 59 59 60 61 61 62
57 58 59 59 59 59 58 58 58 58 59 60 62 63 62 63 64 61 59 59 60 58 59 59 57 56 53 56 54 53 53 54 55 56 57 58 58 59 59 59 59 60 61
59 60 59 59 59 59 60 59 60 59 59 60 61 61 60 60 60 60 59 59 60 59 57 58 59 55 54 58 53 52 50 53 54 56 57 58 58 60 59 60 60 60 60
60 60 59 59 59 58 60 59 58 58 59 58 59 60 60 60 59 59 59 60 60 60 58 59 59 57 56 56 59 54 49 49 52 54 54 55 57 57 59 60 59 60 60
60 61 59 57 59 61 61 59 57 57 56 58 59 60 61 60 59 59 60 59 60 59 58 59 60 60 58 57 55 58 58 55 51 48 53 55 57 57 58 59 60 60 61
60 58 57 57 58 59 60 60 54 56 57 58 58 59 59 60 60 59 60 60 59 59 59 59 57 57 58 58 56 55 55 55 54 51 48 51 54 57 59 59 59 60 61
61 58 58 60 60 59 58 60 54 56 57 55 56 57 58 58 59 59 60 59 59 59 59 58 57 57 57 57 59 56 55 54 53 52 50 51 54 54 58 59 58 59 60

GFSSE_sfc_temp_081.txt.gz
Temp
76 79 74 75 75 74 74 74 74 75 76 76 76 76 76 76 76 76 76 76 77 78 79 78 78 78 78 78 77 76 75 75 75 76 76 77 77 76 76 75 76 81 75
80 78 73 75 75 75 74 74 74 76 76 76 76 76 76 76 76 76 76 76 77 78 79 78 78 78 78 76 75 75 74 74 74 75 75 77 76 76 75 75 76 78 75
77 76 77 74 74 74 75 74 75 76 76 76 76 76 76 76 76 76 76 76 77 78 78 78 78 78 77 75 74 74 74 74 74 74 75 79 78 76 75 74 74 74 75
78 76 77 74 74 74 74 74 75 76 76 76 76 76 76 76 76 76 75 76 77 78 78 79 78 77 75 74 73 73 73 73 72 74 79 79 78 75 75 74 75 75 75
77 75 76 73 73 74 74 74 74 76 75 75 76 76 76 76 76 76 75 75 77 78 78 79 78 76 73 72 72 72 72 71 71 75 76 79 79 76 75 74 74 74 74
77 75 73 71 73 73 73 74 74 74 74 75 75 75 76 76 76 76 75 76 77 77 78 78 76 73 72 71 71 71 71 71 72 78 79 77 78 75 74 73 73 73 72
76 76 76 70 72 73 74 74 73 73 73 73 74 75 75 75 75 75 74 75 76 76 76 75 73 72 71 71 71 70 69 71 80 79 79 78 76 74 74 73 72 72 71
72 73 73 72 72 72 73 73 72 72 71 73 73 74 74 75 74 75 75 74 75 74 74 72 71 71 71 70 70 69 68 71 77 79 79 79 73 73 73 72 71 71 70
74 72 71 73 74 71 70 70 70 71 71 71 71 72 71 69 70 71 72 73 73 73 71 71 71 70 70 70 69 68 67 70 78 78 78 78 72 73 73 71 71 71 70
73 73 71 72 73 75 74 69 69 70 69 69 70 69 68 68 69 69 70 73 72 72 71 71 70 70 69 68 68 67 67 69 78 78 79 77 72 73 72 71 72 71 70
71 72 73 71 72 73 72 71 69 70 69 69 69 68 67 71 71 71 70 70 71 70 69 69 69 69 68 67 67 67 68 78 77 78 78 70 72 73 73 71 71 70 70
66 67 69 68 69 70 69 71 71 71 72 68 68 69 70 70 71 69 68 68 69 67 68 68 68 67 70 75 74 69 77 76 76 76 75 69 72 73 71 70 69 70 70
68 66 67 67 67 68 69 68 67 68 68 66 66 66 69 69 69 69 68 68 67 67 68 72 71 75 75 75 74 74 74 74 75 75 73 68 71 72 71 71 71 70 69
69 68 67 67 67 67 69 66 67 66 67 65 65 66 68 68 68 69 70 67 65 65 66 73 74 73 72 73 73 71 72 74 74 74 73 67 69 72 72 71 70 69 68
69 69 67 67 68 68 67 66 66 66 65 66 66 66 68 69 68 69 68 67 64 64 64 72 73 72 71 71 72 71 71 71 71 74 75 67 68 70 71 71 70 69 69
71 69 67 67 68 69 68 66 65 65 66 65 66 66 65 66 68 69 68 67 66 63 65 73 72 71 71 72 70 71 71 71 71 71 73 73 66 67 69 70 70 70 70
71 70 66 66 69 67 65 67 65 63 63 63 64 66 65 66 66 67 67 66 66 63 63 70 71 71 70 71 70 70 70 70 69 70 73 73 69 64 66 68 69 69 69
71 68 66 67 67 67 65 65 64 63 62 62 63 63 64 66 67 66 66 65 65 63 62 68 70 69 70 69 69 69 70 69 70 71 72 73 73 71 66 66 67 68 69
71 67 66 66 67 64 63 64 65 64 64 62 62 62 63 64 66 65 65 65 65 61 63 67 68 68 67 68 68 69 69 69 70 71 70 70 71 72 74 65 64 65 66
69 67 66 65 67 63 62 63 63 63 63 64 62 64 65 65 64 64 63 62 62 61 62 66 66 68 68 68 69 67 68 69 70 69 70 70 70 70 71 71 70 69 63
67 65 63 63 62 61 60 60 60 60 62 63 63 65 64 64 64 62 62 60 61 60 62 65 66 65 66 69 65 63 64 66 66 67 69 68 68 69 70 70 70 71 69
65 64 62 62 62 60 62 63 62 63 62 63 65 64 64 62 63 63 60 60 61 61 63 64 64 65 66 66 65 64 57 60 65 66 67 67 66 68 67 67 68 68 70
65 63 62 62 62 61 63 65 62 61 61 60 60 60 59 61 62 61 60 59 60 63 62 64 65 65 63 65 67 67 57 59 62 65 64 67 66 67 68 66 66 66 67
66 66 63 62 62 62 66 65 60 60 59 61 60 62 60 60 59 59 59 59 59 62 62 63 64 66 66 62 65 66 69 67 63 58 64 65 67 66 66 67 68 68 69
67 65 62 61 62 62 66 66 61 60 62 61 60 60 60 59 60 59 58 57 59 61 61 61 61 63 66 66 65 64 65 65 65 62 58 60 65 67 67 67 68 68 67
66 62 60 59 60 61 64 64 61 64 61 58 59 59 58 59 60 60 59 58 58 59 60 61 61 62 62 63 64 64 62 62 60 60 59 62 63 64 64 67 65 65 65

GFSSE_sfc_temp_084.txt.gz
Temp
89 90 74 75 75 75 75 75 75 76 76 76 76 76 77 77 77 76 76 77 77 78 79 79 78 78 78 78 77 77 76 75 75 76 76 77 77 77 77 76 77 83 75
90 89 73 75 75 75 75 75 75 76 76 77 76 76 76 76 76 76 76 77 77 78 79 78 78 79 79 77 75 75 75 74 74 75 76 77 77 77 77 76 77 79 75
89 88 81 74 75 75 75 75 75 76 77 77 76 76 76 76 76 76 76 77 77 78 79 78 78 78 77 75 74 74 74 74 74 75 76 83 80 76 76 75 74 75 75
91 90 85 74 74 74 74 75 75 76 77 76 76 76 76 76 76 76 76 76 77 78 78 79 79 78 75 74 73 73 74 73 73 74 83 82 82 75 75 75 75 75 75
89 90 87 73 73 74 74 74 75 76 76 76 76 76 76 76 76 76 75 76 77 78 78 79 78 76 73 73 72 72 73 73 73 79 84 81 80 77 75 75 75 75 75
88 87 76 72 73 73 74 74 75 76 74 74 75 76 76 76 76 76 75 76 77 77 78 78 76 73 72 71 71 71 71 72 74 88 80 79 80 75 75 73 73 73 73
86 86 82 71 73 73 74 74 74 74 74 74 75 75 76 75 75 74 74 76 76 77 77 76 73 72 71 71 71 71 71 72 82 83 82 78 77 74 74 73 72 72 72
86 83 83 74 73 73 73 73 72 73 73 73 73 74 75 75 75 75 75 75 75 75 74 73 72 71 71 71 70 70 70 72 80 82 82 80 74 74 74 72 71 71 71
84 82 79 79 78 71 71 71 71 71 72 72 72 72 73 73 73 72 72 73 72 73 73 72 71 71 71 70 69 69 69 71 82 80 80 78 73 74 73 73 72 71 71
82 79 75 75 77 77 77 70 70 71 71 69 71 68 69 71 70 70 70 70 69 71 72 71 70 70 69 69 68 68 68 71 84 84 82 76 72 73 73 72 71 71 71
81 82 79 75 75 76 78 77 71 71 70 70 70 69 69 78 75 69 70 70 71 70 71 70 69 69 67 67 68 68 69 82 82 82 79 70 72 73 73 72 71 71 70
81 80 82 75 76 76 78 77 77 79 78 78 78 75 79 78 75 74 72 69 70 69 69 68 68 67 69 77 76 70 81 81 82 83 76 70 73 73 72 71 71 70 70
84 80 78 74 75 80 77 75 73 71 73 75 76 73 74 77 76 75 77 71 74 71 69 68 69 76 76 77 77 78 80 81 85 85 73 69 72 73 72 71 70 70 70
84 79 75 74 74 77 75 73 72 69 69 71 74 75 72 73 77 78 73 77 72 68 68 67 75 75 76 78 77 78 80 83 83 84 75 68 70 72 72 71 71 71 70
84 82 75 76 75 72 71 71 69 68 68 70 73 74 72 73 76 77 77 75 70 66 66 66 73 74 75 77 79 79 79 80 80 82 79 67 68 70 72 73 71 70 69
86 83 78 77 76 78 78 72 68 69 69 70 72 74 71 71 74 74 74 70 69 66 66 67 71 73 76 79 78 79 78 79 78 79 80 72 66 68 70 71 71 70 70
86 84 77 75 75 77 78 77 73 69 71 69 69 70 69 71 71 73 73 71 68 69 64 66 71 75 78 80 77 78 78 78 78 78 80 75 73 64 67 69 70 70 70
87 83 78 75 74 74 76 76 75 69 69 69 69 69 68 68 68 67 67 68 69 66 66 64 71 76 76 77 75 77 78 77 76 76 78 77 74 74 66 66 67 69 69
87 83 77 73 74 74 74 73 73 68 66 66 66 67 67 68 67 66 69 69 68 65 68 63 68 76 75 76 76 77 77 77 75 78 77 77 77 73 77 65 65 65 67
85 83 78 74 75 73 68 69 71 68 66 65 64 64 64 65 67 67 66 66 65 65 63 63 67 73 76 75 76 74 75 75 74 73 73 78 78 76 78 74 72 71 64
82 80 77 71 73 69 67 67 66 67 66 65 67 66 67 65 64 65 64 64 63 62 62 63 69 70 71 74 71 67 70 70 70 71 71 75 77 76 76 77 77 77 72
80 78 75 71 70 71 73 72 69 67 67 70 71 73 72 69 68 64 62 62 62 62 61 61 66 67 70 73 69 68 58 64 67 69 71 72 74 76 75 73 75 76 77
78 77 72 70 72 71 74 70 71 69 66 65 68 70 67 65 64 64 63 61 62 61 59 60 65 68 68 72 73 70 60 62 65 68 69 69 71 72 75 75 74 75 74
78 77 72 71 74 70 72 70 69 70 64 70 65 65 67 65 63 62 62 62 61 61 60 60 66 70 72 68 71 73 75 76 67 62 71 71 72 71 73 75 75 74 73
79 76 72 69 71 70 68 73 71 70 69 72 64 63 62 60 61 60 60 60 60 60 60 61 65 69 71 70 70 70 71 73 73 71 66 68 72 74 75 73 75 74 74
79 75 67 66 67 68 68 73 70 69 69 68 62 60 60 60 60 59 58 59 59 59 59 61 68 68 69 70 70 70 69 67 69 69 69 69 68 71 74 75 72 74 76

GFSSE_sfc_temp_087.txt.gz
Temp
96 87 74 75 75 75 75 75 75 76 76 76 76 76 77 77 76 76 77 77 77 78 79 79 78 78 79 78 77 76 76 75 75 76 76 77 77 77 77 76 77 81 75
97 89 73 75 75 75 75 75 75 76 76 76 76 76 76 76 76 76 76 77 77 78 79 79 79 79 78 77 76 75 75 74 74 75 76 77 77 78 78 76 77 78 75
94 90 82 74 75 75 75 76 76 76 76 77 76 76 76 76 75 76 76 76 77 78 79 79 79 79 77 75 74 74 74 74 74 75 76 83 81 76 76 74 74 74 75
96 92 87 73 74 75 75 75 75 76 77 76 76 76 76 76 76 76 76 76 77 78 79 79 79 78 75 74 73 73 74 74 74 74 82 82 81 76 76 75 75 75 75
97 94 88 73 73 74 74 75 75 75 76 76 76 76 76 76 76 77 76 75 77 78 79 79 78 75 73 72 72 73 73 73 73 77 81 80 79 77 76 75 74 74 75
96 95 74 72 73 74 74 74 75 74 74 75 75 76 76 77 77 76 76 75 77 77 78 78 77 73 72 71 72 72 72 73 72 78 78 78 79 75 75 73 73 73 73
93 92 82 71 72 73 74 74 74 75 74 74 75 75 76 77 77 76 75 75 76 77 77 76 74 72 71 71 71 72 72 72 76 79 77 78 76 75 74 73 73 72 72
91 89 85 74 73 72 73 73 73 73 73 73 73 75 75 75 75 75 75 75 75 71 73 74 72 71 71 71 71 70 71 70 81 81 77 75 74 74 74 73 72 72 71
90 87 85 81 77 71 71 71 71 72 73 73 72 72 74 73 73 74 74 73 73 73 72 73 71 71 71 69 69 69 70 69 79 77 76 77 73 73 73 72 72 72 71
87 85 84 83 81 80 79 70 71 71 72 72 72 70 71 71 72 71 71 71 71 71 73 72 72 71 68 68 68 68 67 69 79 80 77 77 73 74 73 72 72 71 71
85 84 82 79 82 81 79 79 71 71 71 70 71 69 70 81 77 73 72 70 70 70 71 71 70 68 67 67 67 68 68 80 78 73 79 71 73 73 73 72 71 71 71
84 84 84 77 77 78 83 79 80 80 80 80 81 79 82 79 79 77 72 68 69 69 69 69 68 67 68 76 74 68 82 80 75 73 75 70 72 73 73 71 71 71 71
88 87 85 82 79 79 79 82 83 82 80 80 79 80 80 77 74 77 71 70 70 70 70 69 69 70 77 76 76 78 77 75 78 73 72 69 72 73 72 71 71 71 70
90 88 86 85 77 82 87 84 84 79 79 79 78 78 76 75 73 74 76 75 74 73 71 67 67 71 75 76 78 78 76 79 84 78 73 68 70 72 72 72 71 71 70
90 89 85 84 80 84 80 76 78 78 76 74 76 76 76 74 73 75 75 76 75 73 69 65 67 71 74 76 77 78 73 82 83 83 77 67 68 71 72 72 72 71 70
91 91 86 83 81 82 79 75 73 75 73 72 73 76 76 76 75 75 73 73 73 72 70 65 66 68 73 75 76 76 81 82 82 82 78 73 66 68 71 72 71 71 70
93 93 86 81 82 80 80 79 74 75 70 71 72 77 76 76 76 75 74 72 73 72 70 65 65 66 70 76 73 80 80 80 80 80 79 76 71 65 67 69 70 70 70
95 92 88 83 81 80 82 82 78 71 69 74 75 76 75 75 76 75 73 71 71 69 68 64 64 64 66 72 73 74 80 79 79 79 79 76 75 74 66 66 68 69 70
95 92 88 82 79 79 81 81 81 74 71 75 75 72 72 72 73 71 70 68 68 67 67 65 63 63 66 70 72 76 78 78 77 79 78 76 73 72 73 65 65 66 68
94 91 88 81 79 79 80 77 77 73 73 72 71 70 71 70 70 68 67 66 66 67 66 65 63 63 68 71 74 76 76 77 78 77 77 79 77 74 76 72 71 69 64
91 89 86 79 78 79 74 71 73 68 71 69 69 68 68 68 68 67 66 66 64 66 65 65 63 62 62 70 68 68 67 68 71 73 77 78 77 76 76 76 74 75 70
87 86 85 80 79 76 75 77 76 74 74 74 73 69 68 65 65 64 64 64 64 64 63 62 63 62 63 69 68 64 59 61 65 69 72 73 75 77 77 77 76 75 76
85 84 84 81 80 76 77 79 77 75 73 70 68 70 73 71 71 68 68 64 62 64 62 61 62 63 61 67 71 68 60 60 63 66 67 69 70 75 77 76 76 76 76
84 84 84 82 80 78 79 78 74 72 70 72 73 75 73 72 71 70 67 64 63 62 61 61 63 63 64 66 67 72 72 74 64 59 68 69 71 72 73 76 76 75 76
86 83 82 80 79 78 78 77 75 74 76 76 74 69 69 68 67 67 63 63 62 61 61 61 61 62 63 68 67 70 70 73 71 67 62 64 67 73 74 74 76 75 75
88 83 80 77 78 75 77 76 75 74 74 72 69 66 65 65 63 61 60 61 61 60 60 60 61 62 63 67 69 70 70 68 69 70 65 66 66 71 75 76 73 74 75

GFSSE_sfc_temp_090.txt.gz
Temp
84 78 75 76 76 76 76 75 75 75 76 76 76 76 76 76 76 76 76 77 77 78 79 79 78 78 78 77 76 76 75 75 75 76 76 77 78 78 77 76 76 76 75
84 80 74 75 75 76 76 76 75 75 76 76 76 76 76 76 76 76 76 76 77 79 79 79 78 79 78 77 75 75 74 74 74 75 76 78 78 78 77 76 75 75 75
85 79 78 74 75 75 76 76 76 76 76 76 76 76 76 76 76 76 76 76 77 78 79 79 79 78 77 75 74 74 74 74 74 75 77 76 75 77 76 74 74 75 75
88 82 79 73 74 75 75 75 75 76 76 76 76 76 76 76 76 76 76 76 77 77 78 79 79 78 75 74 73 73 74 74 74 75 76 76 77 76 76 75 75 75 74
89 86 80 73 73 74 74 75 75 75 76 76 75 76 76 76 76 76 75 75 76 77 78 79 78 75 73 72 72 73 73 73 73 75 73 74 74 75 76 75 74 74 74
89 89 72 72 73 74 74 74 75 74 74 74 75 76 76 76 77 76 75 76 77 77 77 78 76 73 72 72 72 72 72 73 73 74 71 75 74 75 76 74 73 73 73
86 78 76 71 72 73 74 74 74 74 73 74 74 74 75 76 76 76 75 75 76 76 76 76 75 73 71 71 72 72 72 70 74 70 71 71 72 75 75 74 73 73 72
85 80 76 73 72 72 73 73 73 74 75 74 74 74 75 75 74 74 75 75 75 72 70 72 71 71 71 71 71 71 70 70 73 70 71 70 73 74 74 73 72 72 72
84 82 77 75 74 72 71 72 72 72 74 73 73 73 73 73 73 74 74 74 72 71 70 70 71 71 70 69 70 69 67 68 70 70 72 70 72 74 74 73 72 72 72
82 81 78 77 75 74 73 70 71 72 72 72 73 71 70 72 72 72 72 72 71 70 70 70 72 71 69 68 68 67 67 70 69 73 71 71 72 74 73 73 72 72 71
81 80 79 77 76 76 76 73 71 72 71 71 71 70 68 74 73 72 72 71 71 70 71 71 70 68 68 68 67 67 67 72 70 69 68 70 73 73 73 72 71 71 71
79 79 78 76 77 76 79 74 74 74 73 73 74 72 74 74 74 74 70 69 68 69 70 69 68 68 68 68 66 66 68 68 69 69 70 70 73 74 73 72 71 71 71
82 79 79 75 76 76 77 76 76 76 75 74 74 74 74 73 71 72 70 68 67 68 67 68 67 67 69 70 69 70 69 70 68 70 70 69 72 73 72 72 71 71 70
83 81 81 77 75 76 79 77 77 77 75 74 74 74 72 70 69 70 70 69 66 67 67 67 66 67 68 70 70 70 70 73 69 71 68 68 70 72 72 72 71 71 70
83 83 81 79 75 77 77 78 76 75 74 74 73 73 71 70 68 70 71 71 70 68 67 66 66 67 68 69 70 70 71 70 71 71 68 67 68 71 72 72 72 71 71
84 84 81 80 76 78 78 74 73 73 73 72 72 72 72 70 69 69 69 69 68 67 68 66 65 65 65 67 69 70 71 71 72 70 68 66 66 68 70 72 72 72 71
86 86 79 77 77 76 76 73 72 72 72 72 71 72 71 71 69 69 68 67 68 67 66 64 64 64 64 67 68 71 72 72 74 69 68 66 64 65 67 69 70 71 70
88 85 79 80 77 76 74 74 72 71 71 71 70 70 71 72 70 69 67 67 68 66 65 63 63 63 63 64 66 65 69 72 70 70 69 68 65 67 65 66 68 68 69
88 85 78 77 76 75 75 76 73 70 70 70 70 71 71 71 71 68 67 67 67 66 64 63 62 63 61 62 62 69 68 70 68 72 70 68 66 66 65 64 65 65 67
87 83 79 77 76 76 76 75 74 70 69 70 69 70 70 70 70 68 66 66 66 64 63 63 63 62 62 62 64 69 70 66 67 65 70 69 66 66 66 65 63 65 65
84 84 78 76 75 75 74 72 71 68 69 66 68 68 68 69 67 66 65 65 65 64 64 63 62 61 60 62 60 59 63 65 65 65 67 69 67 67 66 66 65 65 63
80 80 78 76 75 74 75 72 72 70 69 68 67 67 67 68 66 65 64 63 63 63 63 63 62 60 60 61 59 60 55 58 62 64 64 65 68 68 67 68 67 66 65
78 79 79 77 75 75 74 73 72 70 69 67 66 67 66 66 66 65 64 63 63 63 63 63 62 61 59 60 62 63 55 53 56 61 61 61 63 65 66 69 69 69 66
77 77 81 78 75 74 73 73 70 67 66 67 67 68 67 67 65 65 65 64 63 63 62 62 63 62 61 58 59 66 65 63 56 53 59 61 62 64 63 66 65 67 68
79 77 78 78 77 73 72 73 71 68 68 68 68 67 67 66 67 66 65 65 63 62 62 63 61 61 61 60 60 61 62 62 64 58 54 58 60 62 63 63 64 65 68
79 78 76 76 76 74 73 73 70 68 68 68 66 64 63 62 62 62 62 62 62 62 61 62 62 61 61 61 61 62 63 60 60 61 56 58 58 61 65 64 63 64 65

GFSSE_sfc_temp_093.txt.gz
Temp
74 74 74 75 75 75 75 74 74 75 75 76 76 76 76 76 76 76 76 77 77 79 79 79 78 79 79 79 77 76 76 76 75 76 76 77 78 78 76 75 75 76 75
75 75 74 75 75 75 75 75 75 75 75 76 76 76 76 76 76 76 76 76 77 79 79 79 78 78 78 77 75 75 75 74 74 75 76 77 78 78 77 75 74 75 75
74 74 75 74 75 75 75 75 75 75 76 76 76 76 76 76 76 76 76 76 77 78 79 79 79 77 76 75 74 74 74 74 74 75 75 73 75 77 76 74 74 74 75
75 74 74 73 74 74 75 75 75 76 76 76 76 76 76 76 76 76 75 75 76 78 78 79 78 77 75 74 73 74 74 74 74 74 73 74 75 76 75 75 75 75 75
76 76 74 73 73 74 74 74 74 75 75 75 75 76 76 76 76 76 75 75 76 77 78 78 77 75 73 72 72 73 73 73 73 73 69 70 73 75 76 75 74 74 74
78 77 71 72 72 74 74 74 74 74 74 74 74 75 76 76 76 76 75 75 76 77 78 77 75 73 72 72 72 73 72 72 70 68 69 72 72 75 75 74 74 74 73
74 72 72 71 72 73 74 74 74 73 73 73 74 74 75 75 76 75 74 75 76 76 77 76 75 73 71 71 71 71 70 70 69 68 67 69 72 75 75 74 73 73 73
72 72 72 72 72 72 73 73 72 72 73 76 74 74 74 75 74 74 74 75 74 73 74 74 73 72 71 70 70 68 68 71 70 68 69 69 73 75 75 74 72 72 72
74 71 69 70 72 71 71 71 71 72 74 75 73 73 73 72 73 74 74 74 73 72 72 72 72 72 71 70 69 67 66 69 67 68 70 71 73 74 74 73 72 72 72
73 70 69 69 69 68 68 70 71 71 72 75 73 72 71 71 72 73 73 72 72 72 72 72 71 72 72 69 68 66 67 68 67 68 67 70 72 74 74 73 73 72 71
73 72 70 69 69 68 68 70 71 71 71 71 71 70 68 69 70 70 70 71 71 70 70 70 71 70 69 68 68 66 67 66 67 67 68 70 72 74 73 72 72 72 71
71 71 72 70 70 69 72 68 67 70 70 68 69 68 68 68 68 70 70 69 69 68 69 70 69 67 68 68 67 67 65 66 65 65 69 70 73 74 73 72 71 71 71
75 73 72 71 70 70 70 68 68 68 68 68 68 67 68 68 68 67 67 67 67 69 67 67 67 67 67 67 67 66 65 66 66 66 68 69 72 74 73 72 71 71 70
75 74 73 73 71 69 68 69 68 68 68 67 67 68 66 67 66 66 66 64 64 65 65 66 66 66 67 68 68 66 65 65 65 66 68 68 71 73 73 72 72 71 70
75 75 73 73 73 72 68 69 68 69 69 69 68 68 67 67 66 66 65 65 65 64 64 64 65 66 67 68 67 67 66 65 65 67 68 66 68 71 72 72 72 71 71
75 76 74 72 73 73 70 69 67 69 69 67 67 67 67 66 66 65 65 65 65 65 64 64 65 65 64 66 67 66 66 66 67 66 66 66 66 68 70 72 71 71 71
78 74 73 72 73 73 72 68 66 66 67 66 66 67 67 66 65 65 64 64 65 65 64 63 63 63 63 65 66 69 66 66 67 67 67 66 65 65 66 69 69 71 71
74 72 75 75 72 72 70 68 66 66 65 65 65 65 66 66 66 64 63 63 65 64 63 62 62 62 62 62 62 64 65 66 67 66 65 64 63 65 65 66 68 69 69
74 72 75 73 71 71 69 68 67 66 65 66 64 64 65 66 66 64 63 63 64 63 62 62 61 63 61 61 63 63 62 66 67 68 64 64 62 61 61 64 65 66 67
80 72 75 73 72 72 70 67 66 65 64 64 64 64 66 67 65 64 63 63 64 63 63 62 61 62 62 61 63 63 61 65 68 65 64 65 64 63 62 63 64 63 64
80 73 74 72 71 71 70 67 65 63 63 63 64 66 68 66 64 63 63 62 63 63 62 62 62 61 60 61 59 58 59 64 64 65 65 63 63 63 62 61 62 62 63
78 71 73 72 71 72 72 70 66 64 61 62 65 66 66 64 63 63 63 63 63 61 61 62 62 60 61 62 58 57 54 58 60 61 64 65 62 64 63 63 63 62 60
71 67 72 72 72 72 69 67 65 63 61 59 60 62 65 66 64 63 64 63 63 63 62 62 62 61 59 60 60 57 54 54 57 57 58 62 61 61 62 64 63 64 62
70 72 72 72 71 70 70 69 65 64 60 60 61 62 65 65 65 63 63 63 63 63 62 62 62 61 61 58 59 62 62 60 56 52 56 57 61 63 61 63 63 65 64
68 72 72 71 71 70 69 68 64 61 60 61 60 61 62 62 64 63 63 61 62 62 63 63 62 61 61 60 60 60 60 61 60 55 51 56 57 60 60 62 64 64 66
63 70 72 70 70 69 68 67 65 63 61 62 60 59 60 62 63 62 63 63 62 62 62 62 63 61 60 61 61 61 60 60 59 57 54 56 58 57 59 60 60 62 63

GFSSE_sfc_temp_096.txt.gz
Temp
72 73 74 75 75 75 75 74 74 75 75 76 76 76 76 77 76 76 76 76 77 78 79 79 78 78 79 79 77 77 76 76 76 76 76 77 77 77 76 75 75 75 76
73 74 73 75 75 75 75 74 74 75 76 76 76 76 76 76 76 76 76 76 77 78 79 79 78 79 78 77 76 75 75 75 75 75 76 77 77 77 76 75 75 75 75
73 74 74 73 75 75 75 75 75 75 76 76 76 76 76 76 76 76 76 76 77 78 78 79 78 78 77 75 74 75 74 74 74 75 76 73 74 76 76 74 74 75 75
74 73 73 73 74 75 75 75 75 76 76 76 76 76 76 76 76 76 75 75 76 78 78 78 79 76 75 74 73 74 74 73 73 73 70 72 75 76 76 75 75 75 75
73 73 73 73 73 74 74 74 74 75 75 75 75 76 76 76 76 76 75 75 76 77 78 78 77 75 73 73 73 73 73 73 72 71 68 69 72 75 76 75 75 74 74
73 73 71 71 72 73 74 74 74 74 73 74 74 75 76 76 76 75 74 74 76 77 78 78 76 74 72 72 72 73 72 71 70 67 67 72 72 76 76 74 74 73 73
71 71 71 70 72 73 74 74 73 73 73 73 74 74 75 75 75 74 74 75 76 77 77 76 74 72 72 72 72 72 71 70 68 67 67 68 70 75 75 74 73 73 73
70 70 70 72 72 72 73 73 72 72 72 72 73 73 74 74 74 74 74 74 75 75 74 74 72 72 72 72 71 70 68 70 68 66 68 68 73 75 75 74 72 72 72
70 69 69 70 71 71 70 70 70 71 72 73 73 73 73 73 72 73 74 73 73 73 73 73 72 72 72 72 70 67 68 69 66 67 68 69 73 75 75 73 72 72 71
69 69 68 68 68 68 69 69 70 70 71 75 74 72 71 71 72 72 72 72 73 72 73 73 72 71 71 70 68 67 67 67 66 65 67 69 73 75 74 73 73 72 71
69 68 68 68 67 67 67 69 70 71 71 74 74 70 69 70 70 71 70 71 71 69 71 71 71 70 70 69 69 68 68 66 65 65 66 70 73 74 74 73 72 72 71
67 67 67 67 67 66 70 68 67 69 69 69 70 69 69 68 68 69 69 69 68 67 69 70 70 68 68 67 66 67 66 66 65 65 67 69 72 74 73 72 71 71 71
70 69 68 68 68 67 68 67 68 70 69 67 67 67 66 67 66 66 66 67 67 67 66 67 67 66 67 66 66 66 66 67 65 64 66 69 72 74 73 72 71 71 71
69 70 70 70 68 68 68 67 68 68 67 67 67 67 66 66 65 65 66 64 65 66 64 65 64 64 66 67 66 65 65 66 64 65 66 67 71 73 74 73 72 71 70
71 71 70 70 70 69 68 67 67 67 67 67 67 67 66 66 65 65 64 64 64 64 64 63 62 63 65 67 66 66 65 65 65 65 66 65 67 71 73 73 73 72 71
72 72 71 71 71 71 69 68 67 68 67 67 67 67 66 66 65 65 65 64 64 64 64 64 63 63 63 66 66 65 65 64 66 64 66 66 66 68 71 72 73 71 71
69 73 70 71 71 71 70 69 67 68 67 66 67 66 66 66 66 65 65 65 64 64 63 62 62 62 62 65 65 64 64 64 64 64 65 65 65 65 67 69 70 70 70
69 71 71 73 70 69 71 70 68 67 67 67 66 66 66 66 66 64 64 64 65 64 64 63 62 62 62 62 62 63 63 63 64 64 65 64 63 65 64 66 67 68 70
71 67 70 71 69 69 69 69 67 67 68 66 65 65 64 65 65 64 63 63 65 64 64 63 62 62 61 61 62 62 62 62 63 65 63 63 61 60 61 64 65 65 67
73 66 71 71 69 69 67 67 66 66 66 65 65 64 64 65 65 64 62 62 64 63 62 62 62 61 62 61 62 62 61 62 62 62 63 64 61 61 61 61 64 63 64
69 66 69 69 69 68 66 65 64 64 64 63 64 64 63 64 64 63 62 62 63 62 62 62 61 60 60 61 59 60 58 60 61 63 63 62 61 61 60 60 60 61 64
69 70 70 69 68 68 68 69 66 66 64 64 63 64 64 64 64 65 63 62 63 63 62 62 61 60 60 61 58 57 53 55 58 60 62 62 60 62 61 61 61 61 61
66 69 70 70 69 69 70 67 64 61 60 60 62 64 65 65 64 64 63 62 62 62 61 62 61 61 59 60 60 57 52 51 55 57 59 60 59 60 61 62 61 62 60
58 66 73 70 70 71 69 66 63 64 62 61 62 60 64 65 64 62 62 62 63 62 62 62 62 61 61 58 59 60 58 58 55 52 56 58 58 59 58 60 61 61 61
59 60 69 70 70 70 67 67 64 63 61 61 60 60 60 63 64 63 62 62 62 62 62 62 61 60 61 60 60 58 57 57 57 55 52 53 55 61 61 60 61 61 62
55 57 64 69 69 68 68 66 65 62 60 60 60 59 59 59 61 62 61 62 62 62 60 62 62 60 60 60 61 61 59 57 56 56 55 56 56 56 60 61 60 61 62

GFSSE_sfc_temp_099.txt.gz
Temp
71 72 73 74 75 75 74 74 75 75 75 76 76 77 77 77 77 76 76 77 77 78 79 79 78 78 79 79 77 77 76 76 76 76 76 77 77 77 76 75 75 75 75
72 73 73 74 74 75 75 75 75 75 76 76 76 76 76 76 76 76 76 77 77 78 79 78 78 78 78 77 76 75 75 75 75 75 76 77 78 77 76 75 75 74 75
73 73 73 73 74 74 75 75 75 75 76 76 76 76 76 76 76 76 76 76 77 78 78 79 78 78 77 75 75 75 74 74 74 75 76 73 75 77 76 74 74 75 75
73 73 73 73 73 74 74 74 75 76 76 76 76 75 76 76 76 75 75 75 77 78 78 79 78 77 76 75 74 73 73 73 73 73 71 71 75 76 76 75 75 75 75
72 73 73 73 73 74 74 74 74 75 75 75 75 76 76 76 76 75 75 75 77 77 78 79 78 76 73 73 72 72 73 72 72 71 69 70 73 75 76 75 75 74 74
71 72 71 72 73 73 74 74 74 73 73 74 74 75 76 76 76 75 74 75 77 77 78 78 76 74 72 72 72 72 71 71 70 67 68 71 71 76 76 74 73 73 73
70 70 71 71 72 73 74 74 73 73 73 73 74 74 75 75 75 74 74 75 75 76 77 76 74 73 72 72 72 71 70 70 67 67 67 67 70 75 75 74 73 73 73
69 70 71 71 72 72 73 73 72 72 72 72 73 73 74 74 74 74 74 74 74 75 74 73 72 72 72 72 71 70 69 70 68 66 67 67 73 75 75 74 72 72 72
69 69 69 70 71 71 70 70 70 71 71 71 72 72 73 72 72 73 73 74 74 73 73 72 72 71 72 71 70 69 68 68 66 66 67 67 73 75 75 73 72 72 72
66 67 68 69 70 69 69 69 69 70 70 70 71 71 71 71 72 72 72 73 73 73 72 72 71 71 71 70 69 68 68 68 66 65 66 67 73 75 75 73 73 72 72
66 65 66 69 68 68 68 69 70 70 70 71 71 71 69 70 70 71 70 71 71 70 71 71 71 70 69 68 68 68 68 66 66 65 65 69 73 75 74 73 72 72 71
64 65 66 66 66 66 68 68 69 69 68 69 73 72 69 68 68 69 69 69 69 69 69 69 69 69 67 65 66 67 65 66 66 65 65 69 73 75 74 73 72 71 71
68 66 66 66 66 66 67 69 70 70 69 67 71 71 67 67 67 67 67 68 67 68 65 66 66 65 65 65 65 66 66 66 65 65 67 68 72 74 73 73 72 71 71
67 67 67 67 66 66 67 68 70 70 69 69 67 66 67 67 65 65 66 66 65 65 64 63 63 64 65 65 65 65 65 65 64 65 66 67 71 73 74 73 72 72 71
66 68 67 67 66 67 66 67 69 69 68 69 69 66 66 66 65 65 64 65 65 64 63 63 62 64 65 66 65 65 64 64 64 65 66 65 67 71 73 74 73 73 71
71 69 68 68 68 67 67 67 67 68 68 67 67 67 66 66 65 64 64 64 63 64 63 63 62 63 63 64 64 64 64 64 64 64 65 65 65 68 71 73 73 73 72
70 73 68 68 69 68 67 66 66 66 66 66 66 65 66 65 65 64 64 64 62 63 62 61 62 62 62 64 64 64 64 64 64 63 63 64 65 64 67 70 71 71 71
67 70 71 71 69 68 68 67 66 66 66 66 66 66 65 66 65 64 66 65 63 64 63 62 62 62 62 62 62 62 63 63 63 64 63 63 63 65 64 66 68 69 69
67 68 70 70 68 68 68 67 67 67 66 66 66 66 65 65 65 65 65 65 65 64 63 63 62 62 61 61 61 62 62 62 62 64 63 63 62 61 61 64 64 65 67
65 65 71 70 70 69 68 67 66 66 66 66 66 66 65 66 65 64 63 64 64 64 63 63 62 62 61 61 62 61 61 62 62 62 62 63 61 60 60 61 62 64 64
62 61 67 68 68 68 67 66 65 64 66 65 66 66 66 65 64 64 62 63 64 63 63 63 62 61 60 61 60 59 60 61 61 61 62 62 61 60 59 59 58 60 63
66 62 64 67 67 68 68 68 66 67 66 66 65 64 65 64 64 63 62 63 63 62 62 62 61 60 60 61 58 57 53 55 58 60 61 61 60 61 59 59 59 58 59
56 59 63 67 67 68 68 68 62 62 62 62 62 63 63 64 64 65 63 63 62 63 61 61 62 61 59 60 59 57 52 52 54 57 58 59 59 59 60 60 59 59 59
54 56 58 67 67 68 69 67 64 64 63 64 65 65 62 63 63 64 63 63 62 63 62 61 62 61 61 59 59 59 57 56 53 51 55 56 57 58 57 58 59 59 60
52 54 56 65 69 69 68 68 65 64 65 63 64 60 62 62 63 63 63 62 62 62 62 62 61 60 60 59 59 58 57 56 56 54 52 53 55 57 59 58 59 59 60
53 51 53 60 67 69 68 67 65 64 61 60 60 60 60 61 62 62 62 62 62 62 62 62 62 61 60 59 60 58 59 55 55 55 53 54 55 55 59 58 59 60 60

GFSSE_sfc_temp_102.txt.gz
Temp
69 72 74 74 74 75 74 74 74 75 76 76 76 77 77 77 77 76 76 76 77 78 79 79 78 78 79 79 78 77 77 76 76 76 76 77 77 77 76 75 75 76 76
71 73 73 74 74 75 75 74 74 75 76 76 76 76 77 77 76 76 76 76 77 78 79 78 78 79 79 77 76 76 75 75 75 75 76 77 77 77 76 75 74 75 75
71 73 73 74 74 74 75 75 75 76 76 76 76 76 76 76 76 76 76 76 77 78 79 78 78 78 78 76 75 75 75 74 74 75 76 76 76 77 76 75 75 75 75
73 72 73 73 74 74 74 75 75 76 76 76 76 76 76 76 76 76 75 75 77 78 78 79 79 78 76 75 74 74 74 73 73 73 72 74 76 76 76 75 75 75 75
72 72 72 73 73 74 74 74 74 75 75 75 75 76 76 76 76 76 75 75 77 77 78 79 78 77 74 73 73 73 73 72 72 71 70 72 73 76 76 75 75 75 74
71 71 71 71 72 73 74 74 74 74 73 74 75 75 76 76 76 75 74 75 77 77 78 78 77 74 73 72 72 72 71 71 70 69 69 72 72 76 76 74 73 73 73
69 70 71 70 72 73 74 74 73 73 73 73 74 74 75 75 75 75 74 75 75 76 77 76 74 73 72 71 72 71 70 70 69 68 68 69 70 76 75 74 73 73 73
69 69 71 72 72 72 73 72 72 72 72 73 73 74 74 74 74 74 74 74 74 75 74 73 72 72 72 71 71 70 69 70 69 68 68 68 72 75 75 74 72 72 72
68 69 70 71 72 71 70 70 70 71 71 72 72 72 73 72 72 73 73 74 74 73 73 72 72 71 71 71 70 69 68 69 68 68 68 68 73 75 76 74 73 73 72
66 68 70 71 69 69 70 69 70 70 70 71 71 71 71 71 72 72 72 73 73 73 72 72 71 71 71 70 69 68 68 68 67 67 67 68 73 75 75 74 73 73 72
65 64 69 70 71 70 67 69 70 71 70 70 70 70 69 69 70 71 70 71 71 71 71 71 71 70 69 69 68 68 67 66 66 67 66 68 74 75 75 74 72 72 72
63 63 68 69 69 68 69 69 70 71 71 69 69 69 69 68 68 69 69 69 70 69 70 70 68 68 68 66 66 68 66 65 66 66 67 69 74 75 75 73 72 72 71
64 64 65 67 68 68 69 70 70 71 68 67 68 67 67 67 67 66 66 67 66 68 66 67 66 66 66 66 65 66 65 65 66 66 67 68 73 74 74 72 72 71 71
66 66 65 64 65 66 69 70 71 71 69 66 67 70 68 68 67 65 66 65 64 64 64 63 64 64 64 64 64 65 64 65 65 65 67 68 71 74 74 73 73 72 71
69 68 66 65 65 66 67 69 70 71 71 72 71 70 69 69 68 66 65 66 64 63 63 62 62 63 64 64 64 64 65 65 65 65 65 66 68 71 73 74 73 73 71
66 68 68 66 66 66 67 68 69 71 71 70 69 69 68 69 68 66 66 66 63 63 62 62 62 62 63 64 64 64 64 64 64 64 64 64 63 67 70 73 74 73 72
67 70 67 67 67 66 66 65 66 68 69 68 68 68 69 68 67 66 65 65 65 63 62 61 61 61 62 63 63 64 64 64 64 64 64 64 64 64 65 68 71 72 72
62 64 69 70 67 67 67 66 65 67 68 67 67 67 67 67 65 64 65 65 64 64 64 63 62 62 61 62 62 63 63 64 63 63 63 64 63 65 64 66 68 69 70
62 62 65 68 68 67 68 67 66 65 66 65 66 66 66 66 65 65 66 65 64 64 63 63 62 63 61 61 62 62 63 63 63 64 63 63 62 62 64 64 65 66 68
60 60 64 68 68 68 68 67 66 66 66 66 66 66 66 65 65 65 66 65 64 64 63 63 62 62 62 61 62 62 62 62 63 63 63 63 62 61 62 63 64 64 64
58 58 60 63 67 67 68 66 66 65 66 66 66 66 65 65 65 65 65 64 64 63 64 64 63 61 61 62 60 59 60 61 61 62 63 62 62 61 61 62 62 63 65
52 53 56 60 66 67 68 71 68 68 67 67 66 65 65 65 65 65 64 63 63 63 62 63 62 61 61 61 59 57 54 55 59 61 62 62 61 61 61 61 61 60 63
50 50 53 54 62 66 68 68 63 64 63 64 65 65 65 65 65 65 64 64 63 63 62 62 62 61 59 60 60 58 53 53 55 57 60 61 60 59 60 61 60 60 60
51 51 52 53 54 65 67 67 67 65 63 65 66 66 66 65 65 65 64 63 63 63 62 62 62 62 61 59 60 60 59 57 53 51 56 58 59 59 59 60 60 60 60
50 52 52 51 55 60 66 67 66 64 66 65 66 64 64 64 64 64 63 62 63 62 62 62 61 61 62 61 60 59 57 56 56 53 52 53 56 57 58 59 60 60 60
48 48 50 51 53 57 66 66 65 65 64 62 63 63 62 63 62 62 62 62 62 62 61 61 62 61 60 60 60 59 60 57 54 54 52 55 55 55 57 58 58 60 60

GFSSE_sfc_temp_105.txt.gz
Temp
79 81 74 74 75 75 75 75 75 75 76 77 77 77 77 77 77 76 76 76 77 78 79 79 78 79 79 79 78 77 77 76 76 76 76 77 78 78 77 76 76 83 76
81 81 73 74 75 75 75 75 75 75 76 77 77 77 77 77 76 76 76 76 77 79 79 79 78 79 79 78 77 76 76 75 75 76 76 78 78 77 76 75 76 79 76
80 80 78 74 74 75 75 75 75 76 76 76 77 77 77 76 76 76 76 76 77 78 79 79 79 79 78 77 75 75 75 74 74 75 76 80 80 77 76 75 75 75 75
81 81 80 73 74 74 74 74 75 76 76 76 76 76 76 76 76 76 76 76 77 78 79 79 79 79 77 75 74 74 74 74 74 74 83 83 82 76 76 75 75 75 75
81 81 80 73 73 74 74 74 74 75 75 75 75 76 76 77 76 76 75 75 77 78 79 79 79 77 75 73 73 73 73 73 72 78 82 83 83 78 76 76 75 75 75
79 81 74 72 73 73 74 74 74 74 74 74 75 76 76 76 76 75 75 76 77 78 78 78 77 75 73 72 72 73 72 71 72 84 82 78 79 77 76 75 74 74 73
78 79 78 71 72 73 74 74 74 73 73 74 74 75 75 76 76 74 74 75 76 77 77 77 75 74 73 72 72 72 71 70 82 81 81 80 76 76 76 74 74 73 73
78 77 78 73 72 72 73 73 72 72 73 73 73 74 74 74 74 74 74 74 74 75 75 74 73 73 72 72 71 70 69 70 77 79 80 81 76 75 76 74 73 73 73
76 76 76 76 75 71 70 71 71 71 72 72 72 73 73 73 73 73 74 74 74 73 72 73 72 72 72 71 71 69 68 70 80 80 78 80 73 75 75 74 73 72 72
72 75 74 74 74 75 76 69 70 70 71 71 71 71 71 71 72 72 72 73 73 73 72 72 72 71 71 70 69 68 68 69 80 80 79 79 72 75 75 74 73 72 72
71 71 72 73 73 73 75 75 71 71 70 70 72 71 71 79 78 78 75 72 72 71 71 71 71 70 69 69 69 68 68 79 79 79 76 70 72 76 75 74 73 72 72
72 69 71 72 72 72 73 75 76 75 76 77 78 78 79 78 79 78 75 69 70 70 70 69 70 69 70 79 77 69 77 76 78 76 77 69 72 76 74 73 72 72 71
76 74 70 70 71 71 72 74 75 74 73 73 75 77 77 77 76 78 79 77 77 71 78 73 73 77 77 76 74 78 76 74 78 75 74 67 71 75 74 73 72 72 71
75 76 74 70 69 69 73 74 75 73 72 72 76 75 74 72 73 76 78 76 76 77 76 76 75 75 76 76 76 73 70 71 73 74 69 65 67 74 74 72 72 73 71
76 77 73 72 69 69 70 74 74 73 73 73 76 76 75 72 71 72 74 74 75 75 75 74 74 74 75 74 74 74 71 72 71 72 69 64 64 69 72 72 71 72 72
76 77 76 73 70 71 70 72 74 74 74 74 76 76 75 76 71 70 70 71 73 74 74 74 74 73 74 73 73 73 74 71 69 67 66 66 63 64 70 71 72 73 73
77 78 75 76 77 73 72 72 73 75 75 73 73 72 72 72 70 69 69 69 70 71 72 72 72 71 71 70 69 71 73 72 71 66 65 65 64 62 63 68 71 72 72
74 73 74 76 74 73 73 72 72 74 74 74 71 70 70 71 71 68 68 69 68 67 70 70 68 68 68 68 67 70 70 70 66 66 67 65 64 65 63 65 66 68 70
71 71 71 72 74 72 72 73 72 72 73 73 72 70 69 70 70 68 68 69 68 66 66 67 66 67 67 66 68 69 69 68 64 65 69 64 64 64 64 64 64 64 67
65 64 66 69 72 74 72 72 70 71 71 70 69 69 69 69 69 69 69 68 67 65 65 65 64 65 66 66 65 65 67 68 66 64 66 65 64 63 63 63 65 69 64
62 62 62 62 65 71 73 70 67 66 69 68 69 70 69 69 68 69 68 68 66 66 65 65 64 62 62 64 62 63 64 66 66 63 66 65 65 64 63 63 65 75 72
58 59 60 61 63 66 74 75 74 72 69 70 69 69 70 69 68 69 68 67 66 65 65 65 64 62 62 63 60 59 55 58 61 64 63 64 65 66 63 62 64 72 75
57 56 58 60 60 62 65 74 74 69 68 66 66 66 68 70 69 69 68 67 65 65 65 65 65 65 60 62 63 60 54 55 57 61 62 64 65 64 65 62 62 68 73
54 55 56 56 58 61 64 69 71 69 67 69 71 70 67 69 68 69 68 67 66 66 65 65 66 65 64 60 61 62 62 63 58 56 59 61 65 63 63 61 61 66 71
53 52 53 53 55 58 61 64 70 70 73 74 73 71 68 67 69 68 67 67 67 66 65 65 65 64 63 62 61 61 60 58 59 59 55 56 58 60 62 61 61 62 69
52 51 49 49 51 54 57 60 66 70 71 70 71 69 67 66 66 66 66 66 66 65 65 67 64 64 63 62 62 63 61 58 59 58 58 60 58 57 59 59 59 61 67

GFSSE_sfc_temp_108.txt.gz
Temp
93 92 74 75 76 75 75 75 75 76 77 77 77 77 77 77 77 76 76 77 77 79 80 80 79 79 79 79 79 78 77 76 76 76 76 78 78 78 77 76 76 85 76
95 90 73 75 75 76 75 75 75 76 77 77 77 77 77 77 76 76 76 77 78 79 80 79 79 79 79 79 77 77 76 76 75 76 76 78 78 78 77 76 77 81 76
92 89 82 74 75 75 76 76 76 76 77 77 77 77 77 77 76 76 76 77 78 79 79 79 79 79 79 77 76 76 76 75 75 75 76 87 81 77 77 76 75 76 76
93 91 87 73 74 75 75 75 76 76 77 77 77 77 77 76 76 76 76 76 77 78 79 79 79 79 77 76 75 75 75 74 74 74 86 89 88 76 77 76 76 75 76
92 92 89 73 74 74 75 75 75 75 75 76 76 77 77 77 76 76 75 76 77 78 79 79 79 78 75 74 74 74 74 74 73 77 90 90 88 80 76 76 75 75 75
92 92 77 72 73 74 74 75 75 74 74 74 75 76 77 77 77 76 75 76 77 78 79 79 78 76 74 73 73 73 73 72 72 90 91 86 86 77 77 75 75 75 74
90 90 83 71 73 74 74 74 74 74 73 74 75 75 76 76 76 75 75 75 76 77 78 77 76 74 73 73 73 72 72 71 86 92 90 88 85 77 77 75 74 74 74
88 87 85 74 72 73 73 73 73 73 73 73 74 74 75 75 74 74 74 75 75 75 75 75 74 73 73 72 72 71 70 71 82 90 89 83 77 76 76 75 73 73 73
86 85 86 83 78 71 71 71 71 72 72 72 73 73 74 73 73 74 74 74 74 74 73 73 73 73 72 72 71 69 69 71 87 90 87 87 74 75 76 74 74 73 72
83 83 84 82 80 82 81 70 70 71 71 72 72 72 72 72 73 73 73 73 73 73 72 73 72 72 72 71 70 69 69 70 85 89 88 89 74 75 76 74 73 73 72
80 81 80 77 77 78 82 80 72 71 71 71 73 71 72 85 83 81 78 73 72 72 71 71 71 71 70 70 69 68 68 85 87 87 88 72 73 75 75 73 72 72 72
83 78 78 77 77 76 78 82 82 83 83 83 83 83 84 85 86 86 80 71 71 70 70 70 70 69 71 85 81 71 82 87 87 84 82 71 72 75 75 73 72 72 71
87 85 80 77 77 77 76 83 81 79 82 84 84 84 84 86 85 85 86 83 82 73 83 78 79 82 83 85 83 83 84 80 81 80 78 68 70 75 75 73 72 72 71
85 85 83 82 80 78 79 82 85 84 80 77 80 82 84 84 84 85 87 86 82 85 82 83 84 83 83 83 82 80 81 80 78 82 74 66 66 70 75 74 73 72 71
85 86 85 84 81 80 75 84 84 84 81 79 81 83 82 79 79 85 85 86 85 83 82 82 83 82 81 81 80 80 80 79 77 78 72 65 66 68 70 74 71 73 72
87 87 87 84 83 82 80 80 83 83 84 82 82 85 80 84 79 76 82 80 85 84 83 83 82 81 81 80 78 79 79 77 72 79 79 72 64 66 67 69 69 70 72
85 85 83 83 84 81 80 81 83 85 83 84 84 83 83 83 82 75 74 74 80 85 81 80 80 79 79 78 77 78 78 77 75 77 75 68 70 62 64 66 68 70 71
82 80 81 82 82 83 82 83 83 85 84 85 84 84 82 83 83 75 75 73 75 79 80 78 77 75 76 75 75 77 76 77 75 76 72 66 69 73 65 63 63 66 70
78 76 77 77 78 80 82 83 83 82 83 85 85 83 80 80 80 73 73 74 72 72 74 75 73 74 73 72 74 74 72 74 75 75 71 66 68 70 70 63 62 64 66
75 74 74 75 74 76 81 82 83 83 82 84 84 83 79 79 76 72 72 73 70 69 71 71 70 71 71 70 70 71 72 72 72 74 73 68 66 71 66 66 64 65 62
72 71 71 71 72 74 77 80 80 74 77 81 83 81 79 77 73 71 71 70 69 69 69 70 70 68 67 69 64 63 67 70 70 71 71 70 72 70 68 64 65 65 65
68 68 68 69 70 71 74 78 82 81 80 80 81 79 76 75 73 71 71 69 69 70 69 69 67 64 66 68 63 61 58 60 66 70 68 67 69 74 69 68 64 64 65
66 65 65 67 67 68 69 73 76 81 81 79 77 76 74 74 72 70 71 70 69 71 69 69 66 66 62 64 69 63 56 56 58 64 68 68 71 69 69 71 68 65 64
64 64 65 64 65 66 67 68 70 75 77 80 79 79 73 72 74 71 71 71 71 71 69 70 68 70 69 63 64 69 63 66 63 60 64 68 70 69 67 71 69 70 66
62 61 61 61 61 63 62 61 63 68 77 81 80 76 71 70 71 72 72 72 71 70 70 69 67 70 73 70 65 63 64 63 60 63 65 64 64 68 70 67 66 69 69
60 58 57 56 57 58 57 57 58 60 68 76 79 75 70 69 68 69 71 71 72 69 68 68 71 71 69 72 72 70 67 60 61 60 63 64 67 67 66 65 64 65 63

GFSSE_sfc_temp_111.txt.gz
Temp
100 89 75 75 76 76 76 76 76 76 76 77 77 77 77 77 77 76 77 77 77 79 80 80 79 79 79 79 79 78 77 77 76 77 77 78 78 78 77 77 77 83 76
101 90 74 75 75 76 76 76 76 76 77 77 77 77 77 77 76 76 77 77 78 79 80 79 79 79 79 79 78 77 77 76 75 76 77 78 78 78 77 77 77 80 76
99 91 83 74 75 76 76 76 76 77 77 77 77 77 77 77 76 76 76 77 78 79 80 79 79 79 79 78 77 76 76 75 75 75 76 87 81 77 77 76 75 76 76
99 94 88 74 75 75 75 75 76 77 77 77 77 77 77 77 76 76 76 76 77 79 79 79 80 79 78 76 76 75 75 75 74 75 84 87 85 76 77 76 75 76 76
97 96 91 74 74 75 75 75 75 76 76 76 76 77 77 77 77 76 76 76 77 78 79 80 80 78 76 75 75 75 74 74 74 77 86 88 87 80 77 76 75 75 75
96 97 76 72 73 74 75 75 75 75 75 75 76 76 77 77 77 76 75 76 77 78 79 79 79 76 74 74 74 74 74 73 72 87 90 84 87 76 77 76 76 76 75
94 95 84 72 73 74 75 75 74 74 74 75 75 75 76 76 76 75 75 76 76 77 77 78 77 75 74 73 73 73 72 72 83 88 77 83 84 76 77 76 75 74 74
93 93 87 74 73 73 74 74 73 73 73 74 74 75 75 75 75 75 75 75 75 75 76 76 75 74 74 73 73 72 71 71 81 79 84 87 75 76 77 76 74 74 74
91 90 89 83 78 72 72 72 72 72 73 73 73 74 74 74 74 74 74 75 75 75 75 74 74 73 73 73 72 70 70 71 83 88 88 81 75 76 77 75 74 74 73
88 88 88 85 82 81 80 71 71 72 72 72 73 72 72 72 73 73 73 73 75 74 74 73 73 73 72 72 71 69 69 70 82 83 83 82 74 76 76 75 74 73 72
85 87 87 84 81 83 84 79 72 72 72 72 73 72 72 84 83 81 78 74 73 72 72 72 72 71 71 71 70 69 69 83 85 87 79 72 74 76 76 74 73 73 72
86 85 83 78 77 80 87 84 82 83 83 82 83 82 83 85 87 86 81 72 72 71 71 71 71 70 70 84 80 71 80 84 84 85 89 72 74 76 76 74 72 72 72
92 88 85 80 77 78 81 87 86 86 85 84 84 84 84 86 87 87 86 83 81 73 82 78 77 80 82 84 80 82 83 84 82 82 79 68 73 76 76 74 73 72 72
90 90 86 86 83 81 85 86 88 87 83 87 86 84 85 85 86 84 88 84 81 83 82 84 84 80 80 84 82 83 83 81 84 82 77 68 68 72 76 75 74 73 72
88 89 87 87 84 84 84 87 87 87 86 84 84 86 86 87 86 87 87 89 86 82 83 84 82 81 79 80 81 81 81 80 80 81 77 67 67 69 73 75 74 71 71
89 89 89 88 86 86 84 83 87 87 88 86 83 84 84 87 86 86 87 87 89 86 81 84 83 82 78 78 79 80 79 79 78 79 81 76 66 67 69 71 72 67 69
87 88 85 84 86 85 84 84 84 88 87 87 86 84 86 84 84 81 82 86 88 89 83 79 80 83 81 80 76 78 77 78 78 78 79 79 72 63 65 68 68 68 69
85 83 83 84 83 84 84 84 85 86 87 87 88 87 84 86 85 84 78 81 85 86 86 82 83 80 77 78 78 78 75 78 76 78 78 78 77 69 63 65 66 66 66
82 79 79 79 79 80 81 83 85 85 86 88 88 88 86 85 86 85 80 78 77 78 84 81 79 79 77 79 79 76 75 75 77 75 74 76 74 71 67 63 63 63 65
78 77 77 77 76 77 78 80 85 86 87 87 87 88 85 86 85 84 83 79 77 75 76 81 76 75 78 79 77 73 74 76 74 72 74 76 76 72 69 65 63 63 61
75 75 74 73 74 75 76 78 81 82 84 86 87 86 86 85 83 82 82 77 76 72 75 72 73 70 69 77 70 70 70 71 71 70 73 73 74 73 68 69 66 65 64
72 72 71 72 73 73 74 76 77 79 84 86 86 86 86 84 81 80 79 76 76 72 72 70 69 67 68 72 68 66 63 66 67 72 72 72 74 71 69 69 66 65 65
70 69 69 70 71 71 71 73 75 77 78 80 84 84 85 84 82 78 75 76 77 73 71 70 69 68 67 67 71 68 59 60 62 70 70 71 72 71 74 70 68 66 65
68 68 68 68 68 69 69 69 68 68 71 80 84 85 84 83 80 77 76 73 77 73 71 70 70 70 72 64 68 73 74 74 66 67 70 72 71 69 70 71 68 68 66
68 66 65 64 65 65 64 64 64 64 68 73 78 81 82 81 79 73 73 74 74 74 73 72 69 70 71 70 68 66 69 69 71 69 67 68 70 71 68 71 71 69 71
66 63 62 60 60 60 59 58 56 56 59 64 69 74 81 82 79 73 72 70 73 73 71 72 72 71 72 72 72 69 66 64 63 67 66 69 69 70 71 69 70 70 70

GFSSE_sfc_temp_114.txt.gz
Temp
87 80 75 76 76 76 76 76 76 76 76 76 76 76 76 77 76 76 77 77 78 79 80 79 79 79 79 79 78 78 77 77 76 76 77 78 78 78 77 76 76 79 76
87 82 74 75 76 76 76 76 76 76 76 77 76 76 76 76 76 76 76 77 78 79 80 79 79 79 79 79 77 77 76 76 76 76 77 78 78 78 78 76 77 76 76
87 83 79 74 75 76 76 76 76 76 77 77 76 76 76 76 76 76 76 77 78 79 79 79 79 79 79 78 76 76 76 75 75 75 76 77 76 78 78 76 76 75 76
91 84 82 74 75 75 75 76 76 77 77 77 76 76 76 76 76 76 76 76 77 78 79 79 79 79 78 76 76 75 75 75 74 75 76 80 80 77 77 76 76 76 76
95 89 84 74 74 75 75 75 75 76 76 76 76 76 76 76 76 76 76 76 77 79 79 79 79 78 76 75 75 75 74 74 74 75 76 75 78 78 77 76 76 75 75
94 90 72 72 73 74 75 75 75 75 75 75 75 76 76 76 76 76 75 76 77 78 79 79 78 76 74 74 74 74 74 73 72 74 76 77 78 77 77 76 75 75 74
91 81 78 72 73 74 75 75 75 74 74 74 75 75 76 76 76 75 75 76 76 77 78 78 77 75 74 73 73 73 73 72 75 74 71 67 73 76 77 76 75 74 74
87 83 78 74 73 73 74 74 73 73 74 74 74 75 75 75 75 75 75 75 75 76 76 76 75 74 74 73 73 72 71 70 76 76 71 69 73 76 77 75 74 74 74
88 83 79 77 75 73 72 72 72 72 73 73 73 74 74 73 73 74 74 75 74 75 74 74 73 73 73 73 72 71 70 70 71 75 72 69 75 76 77 75 74 73 73
85 85 80 78 77 75 74 71 71 72 72 72 73 72 72 72 73 73 73 74 74 74 74 74 72 73 72 72 71 70 69 70 70 75 72 70 73 77 76 75 74 74 73
83 83 83 79 78 77 77 75 71 72 72 71 72 72 70 76 75 75 74 74 73 72 72 72 72 71 71 71 71 69 69 72 75 75 71 71 74 77 76 74 74 73 73
81 81 80 77 78 78 81 76 75 76 75 75 76 74 76 77 78 80 76 72 72 71 71 71 71 70 69 74 71 69 70 74 76 75 69 70 72 75 76 75 74 73 73
85 82 77 75 74 75 79 78 78 78 77 76 77 76 76 78 78 78 77 76 73 71 73 71 70 72 74 74 74 72 73 74 75 71 68 70 71 75 77 75 74 73 71
83 82 80 77 75 74 78 79 79 80 78 78 78 77 76 76 76 77 79 76 75 75 74 74 74 74 74 75 75 72 73 72 74 70 67 68 70 74 76 76 75 73 71
82 80 76 77 76 75 75 79 77 79 79 79 79 79 78 78 76 78 77 78 77 76 75 75 75 75 75 75 75 74 73 73 73 70 69 67 67 70 74 76 76 74 72
82 81 78 79 76 78 76 77 78 79 79 78 78 78 78 79 77 78 77 77 77 78 76 75 76 76 73 72 73 73 73 72 72 72 70 66 67 67 70 74 75 72 71
81 80 76 76 78 72 76 76 76 78 80 78 78 77 77 79 77 77 76 76 76 78 75 74 74 75 73 73 71 71 71 71 71 72 70 67 64 63 66 69 71 71 71
79 76 76 78 73 72 72 76 78 78 77 79 78 78 77 79 78 75 75 74 76 76 76 74 72 71 71 70 69 69 69 70 70 70 70 69 67 65 63 65 67 69 69
77 74 74 72 71 71 71 71 73 76 77 78 78 78 77 78 79 77 76 75 74 73 73 74 73 72 70 69 70 68 68 68 69 70 69 69 67 65 64 63 63 64 66
75 74 73 71 71 70 70 71 71 72 77 79 79 79 77 79 79 77 76 74 74 72 71 72 71 70 70 70 72 71 68 68 68 68 67 68 68 66 65 64 62 62 62
72 71 70 69 69 69 69 68 69 68 73 75 79 78 78 78 78 77 76 73 72 72 72 71 70 68 67 69 66 65 65 67 67 65 66 66 68 68 65 64 63 63 62
68 67 67 68 67 67 68 67 67 68 69 71 71 74 79 78 77 77 76 74 73 71 71 71 69 65 67 67 63 62 59 61 63 65 65 65 65 66 66 64 64 63 63
67 65 65 65 65 65 65 66 67 67 68 69 71 74 76 76 77 76 75 75 72 71 70 71 69 67 66 67 68 61 56 55 59 63 64 66 65 64 66 64 64 63 64
64 64 64 63 63 64 62 60 59 60 60 64 66 70 72 75 77 75 74 74 72 71 69 69 70 69 69 65 66 69 65 63 57 56 62 64 65 64 64 64 64 64 64
64 61 60 61 61 60 58 57 56 55 57 59 60 61 65 69 74 76 74 72 72 71 70 69 69 68 69 67 66 65 65 64 63 59 56 59 63 66 64 65 64 64 64
62 59 58 57 57 56 55 54 52 52 53 53 55 56 59 64 69 73 74 71 69 70 69 69 69 68 69 69 67 66 65 63 62 59 57 58 60 61 64 63 64 65 65

GFSSE_sfc_temp_117.txt.gz
Temp
76 75 74 75 76 76 75 75 75 75 76 76 76 76 77 77 77 76 76 77 77 79 79 79 79 79 79 79 78 77 76 76 76 76 76 77 78 78 77 76 76 77 76
78 76 74 75 75 76 76 75 75 75 76 76 76 76 76 76 76 76 76 77 77 79 79 79 79 79 79 78 77 76 76 75 75 75 76 78 78 78 77 76 76 76 76
77 76 76 74 75 75 76 76 76 76 76 76 76 76 76 76 76 76 76 76 77 78 79 79 79 79 78 77 76 76 75 75 74 74 76 74 76 78 77 76 75 75 76
80 76 75 74 74 75 75 75 75 76 76 76 76 76 76 76 76 76 76 76 77 78 79 79 79 79 77 76 75 75 75 74 73 74 74 77 79 77 77 76 75 76 76
80 79 76 73 74 74 75 75 75 75 75 75 75 76 76 76 76 76 75 76 77 78 79 79 79 78 76 74 74 74 74 74 73 74 71 70 73 77 77 76 76 75 75
81 81 73 72 73 74 74 74 74 74 74 74 74 76 76 76 76 76 75 76 77 78 78 78 78 76 74 73 74 74 73 73 72 69 70 71 72 76 77 75 74 74 73
78 75 74 71 72 74 74 74 74 74 73 74 74 74 75 76 76 75 74 75 76 77 77 77 76 75 73 73 73 73 72 72 73 68 68 70 71 71 77 75 74 74 74
76 74 74 73 73 73 73 73 73 73 73 73 74 74 75 74 74 74 74 74 75 75 75 75 75 74 73 73 73 72 71 70 73 68 68 68 70 72 78 75 74 74 73
76 74 72 72 73 72 72 71 71 72 72 73 73 73 73 73 73 73 74 74 74 74 74 74 73 73 73 72 72 70 69 69 69 67 71 67 72 73 76 76 74 74 74
75 74 72 71 70 70 70 70 71 71 72 72 72 72 72 72 72 73 73 73 74 74 73 73 72 72 72 71 71 70 69 69 69 69 69 68 70 72 78 75 75 74 74
76 74 73 71 71 70 70 71 71 72 71 71 72 71 70 72 72 72 72 72 73 72 72 72 71 71 70 70 70 70 69 68 69 69 67 70 74 77 77 75 74 74 73
73 74 73 72 72 71 75 70 69 71 70 70 71 71 71 71 71 74 72 71 71 71 71 71 70 70 69 68 68 69 67 69 70 68 68 70 74 77 77 75 74 74 74
74 74 72 73 73 72 74 70 70 69 68 69 70 70 71 73 72 72 72 72 70 71 70 69 69 69 68 68 68 67 67 69 68 67 68 70 72 75 77 76 74 74 73
72 73 72 72 72 72 75 72 72 72 70 70 70 70 70 69 70 72 72 71 70 70 69 69 68 68 68 70 70 68 68 68 67 67 66 66 70 73 77 76 75 74 72
71 72 71 71 70 72 73 73 72 71 73 73 72 73 72 71 70 70 72 72 72 70 70 68 69 69 69 70 70 69 69 69 69 67 65 65 68 72 75 76 76 75 73
71 69 70 70 71 71 69 70 69 70 72 74 74 74 74 72 71 71 71 71 72 72 71 71 70 70 71 69 70 71 70 69 69 68 66 64 65 67 71 75 76 75 74
67 69 69 68 69 67 68 68 69 69 72 70 70 73 75 75 71 73 70 70 72 74 71 71 69 69 68 69 68 68 68 68 69 68 66 64 64 64 66 69 72 73 74
66 67 67 70 67 66 66 65 68 69 69 69 72 73 73 75 74 70 72 72 70 73 73 71 71 67 68 67 66 66 67 67 67 67 66 65 63 64 63 65 68 69 70
65 64 65 65 65 65 65 64 64 65 63 69 69 72 74 74 74 74 70 70 70 68 70 72 69 67 65 65 66 65 65 65 66 67 66 65 64 63 62 63 64 65 67
63 64 64 65 64 64 64 64 65 65 65 67 70 68 70 73 74 72 74 72 69 68 67 68 69 66 67 66 69 66 64 64 64 64 65 66 65 63 63 62 61 61 63
61 62 61 61 60 61 61 59 61 60 63 64 63 65 67 70 74 74 70 68 68 71 71 66 65 67 64 65 63 62 63 63 63 63 64 64 64 64 63 63 61 61 61
58 58 59 59 59 59 59 59 59 59 59 63 64 64 64 65 70 70 71 70 70 67 66 67 65 62 64 66 61 59 59 58 61 63 62 64 64 64 63 63 62 61 61
55 54 56 56 56 56 56 56 56 57 58 58 60 62 63 64 66 68 71 72 69 68 66 67 66 64 64 63 65 60 56 54 56 59 62 63 63 62 63 63 62 62 62
52 54 54 55 54 56 53 52 50 49 49 53 54 56 57 60 62 64 66 70 70 70 67 66 67 67 65 63 61 64 60 58 54 53 58 61 62 63 61 61 62 62 62
52 51 50 51 52 51 50 49 48 47 49 51 52 52 53 56 58 61 62 64 69 68 67 67 65 66 65 64 65 65 63 59 59 56 53 57 59 61 62 62 62 62 62
50 49 47 48 48 48 47 47 45 44 45 46 47 47 49 52 54 57 60 61 65 69 67 66 65 65 68 68 67 65 65 64 62 56 54 55 59 58 63 62 62 62 62

GFSSE_sfc_temp_120.txt.gz
Temp
73 74 74 75 75 75 75 75 75 75 76 76 77 77 77 77 77 76 76 77 77 78 79 79 78 79 79 78 77 76 76 76 75 76 76 77 78 77 77 76 76 76 76
75 75 73 75 75 75 75 75 75 75 76 76 76 77 77 76 76 76 76 77 77 78 79 79 79 79 79 77 76 75 75 75 75 75 76 78 78 78 77 75 75 75 76
74 75 75 74 75 75 75 75 75 75 76 76 76 76 76 76 76 76 76 76 77 78 79 79 79 79 78 76 75 75 74 74 74 75 75 73 73 77 77 75 75 75 76
76 74 74 73 74 75 75 75 75 76 76 76 76 76 76 76 76 76 75 75 77 78 78 79 79 78 76 75 75 74 74 74 73 74 72 73 75 76 77 75 75 76 75
76 76 75 73 73 74 74 74 74 75 75 75 75 76 76 76 76 76 75 75 77 78 79 79 79 77 75 73 74 73 74 73 73 73 70 69 71 72 78 76 75 75 75
76 77 72 72 73 74 74 74 74 74 73 74 74 75 76 76 76 75 75 75 77 77 78 78 77 75 73 72 73 73 73 73 71 69 70 71 70 76 77 76 75 74 74
75 74 73 71 72 73 74 74 74 73 73 73 74 74 75 75 75 75 74 75 76 76 77 76 75 74 73 72 73 73 72 71 70 68 68 68 70 75 75 76 75 74 74
73 73 73 73 72 72 73 73 72 72 72 73 73 73 75 74 74 74 74 74 75 75 74 74 73 73 73 73 72 71 71 70 71 68 68 67 70 74 77 76 74 73 73
73 71 71 71 72 71 71 71 71 71 72 72 72 72 73 73 72 73 74 74 74 73 73 73 72 72 72 72 71 70 69 69 68 67 69 67 72 74 75 76 75 74 73
71 71 70 70 71 70 71 70 70 70 71 71 71 71 71 71 72 72 72 73 73 73 73 73 72 72 71 71 70 69 68 68 67 67 67 67 71 75 76 76 75 74 73
71 70 69 69 70 70 70 71 71 71 71 70 71 71 70 71 72 72 71 71 72 71 71 72 71 70 70 70 70 69 68 67 68 67 66 69 71 75 76 75 74 73 73
71 70 70 69 69 69 72 70 70 71 71 71 71 71 72 70 71 72 71 70 70 70 70 70 70 69 69 68 68 69 67 67 68 67 66 69 72 75 76 75 74 73 73
70 70 71 70 69 69 70 68 68 69 69 70 70 72 72 71 70 70 70 70 70 70 70 70 69 69 68 67 67 66 66 67 66 66 68 68 72 76 77 75 74 74 73
66 70 71 71 70 69 70 68 69 68 68 68 69 70 70 70 69 69 70 69 69 70 68 69 68 68 68 68 67 67 67 67 65 66 66 67 69 74 76 76 75 74 73
65 66 67 69 68 70 70 69 68 68 69 68 68 70 70 70 69 70 70 69 70 69 69 68 68 68 68 68 67 67 67 67 66 66 65 66 66 69 74 77 76 75 74
66 65 66 65 66 69 68 69 69 69 68 68 70 71 71 72 71 70 70 70 69 69 70 69 68 68 68 68 67 68 68 67 67 66 65 66 64 67 71 75 75 75 75
62 65 65 65 64 63 65 65 66 68 69 68 70 71 72 72 71 72 71 69 71 70 69 69 68 68 67 67 67 67 67 67 67 66 65 64 64 63 66 69 71 73 74
61 62 62 65 62 62 61 61 62 63 64 65 67 69 70 72 72 71 70 71 70 71 70 69 68 67 67 66 66 65 66 66 66 66 65 64 63 64 62 65 67 70 72
59 60 60 59 59 59 59 59 59 60 60 61 63 66 69 68 70 68 68 70 67 70 69 69 68 68 66 65 66 65 65 65 65 66 65 64 63 62 62 63 64 65 68
58 59 59 59 58 57 57 58 58 58 60 60 61 63 65 67 68 70 69 69 66 66 68 68 69 67 67 67 68 65 63 64 64 64 65 65 63 62 62 62 62 62 64
57 56 56 55 55 55 55 53 53 53 56 57 59 61 62 62 64 64 68 69 68 67 67 67 67 64 63 64 62 60 61 62 62 63 64 64 63 62 61 61 61 60 61
53 54 54 54 52 52 53 52 51 51 52 56 56 56 58 57 58 61 61 64 68 68 68 65 67 63 65 64 62 58 57 59 60 62 62 63 63 63 62 62 61 61 61
50 51 51 51 50 49 50 50 50 51 51 51 51 53 54 55 56 57 59 61 63 66 67 66 66 66 63 62 63 60 54 55 56 58 61 62 62 62 62 62 62 61 61
47 48 49 49 48 49 48 46 44 43 43 46 48 50 51 53 53 55 56 57 58 61 64 66 66 65 65 62 63 63 60 58 55 53 58 62 62 61 61 61 61 61 61
47 45 46 47 46 45 44 44 42 41 43 44 46 46 47 49 51 53 53 55 56 58 61 64 63 64 64 63 62 63 59 58 57 54 52 57 61 61 61 61 61 61 61
45 44 43 43 42 43 42 41 40 39 40 41 41 42 44 46 48 49 51 51 54 56 59 62 65 64 63 63 64 64 64 59 57 55 53 53 57 61 61 61 61 61 61